<?xml version="1.0" encoding="UTF-8" standalone="no" ?>
<gpx xmlns="http://www.topografix.com/GPX/1/1" xmlns:xsi="http://www.w3.org/2001/XMLSchema-instance" xsi:schemaLocation="http://www.topografix.com/GPX/1/1 http://www.topografix.com/GPX/1/1/gpx.xsd" version="1.1" creator="VisuGPX - https://www.visugpx.com">
  <metadata>
    <name>Passo grande dei Rondoi (Großer Wildgrabenjoch)  </name>
    <desc><![CDATA[Val Campo di dentro (Innerfeldtal) (parcheggio 1) - Passo grande dei Rondoi (Großer Wildgrabenjoch)]]></desc>
  </metadata>
  <wpt lat="46.64711" lon="12.27844">
    <ele>2285.1</ele>
    <name><![CDATA[Passo Grande Rondoi]]></name>
    <type><![CDATA[user]]></type>
  </wpt>
  <trk>
    <name><![CDATA[Passo_Grande_Rondoi_2017-02-27]]></name>
    <trkseg>
      <trkpt lat="46.69881" lon="12.31355">
        <ele>1341.66</ele>
        <time>2017-02-27T07:34:18Z</time>
      </trkpt>
      <trkpt lat="46.69884" lon="12.31362">
        <ele>1339.73</ele>
        <time>2017-02-27T07:34:39Z</time>
      </trkpt>
      <trkpt lat="46.69881" lon="12.31355">
        <ele>1339.25</ele>
        <time>2017-02-27T07:34:52Z</time>
      </trkpt>
      <trkpt lat="46.69883" lon="12.31358">
        <ele>1339.25</ele>
        <time>2017-02-27T07:35:21Z</time>
      </trkpt>
      <trkpt lat="46.69886" lon="12.31363">
        <ele>1339.25</ele>
        <time>2017-02-27T07:35:45Z</time>
      </trkpt>
      <trkpt lat="46.69886" lon="12.31362">
        <ele>1339.25</ele>
        <time>2017-02-27T07:36:16Z</time>
      </trkpt>
      <trkpt lat="46.69882" lon="12.31362">
        <ele>1339.73</ele>
        <time>2017-02-27T07:36:50Z</time>
      </trkpt>
      <trkpt lat="46.69884" lon="12.31362">
        <ele>1340.7</ele>
        <time>2017-02-27T07:37:04Z</time>
      </trkpt>
      <trkpt lat="46.69884" lon="12.31364">
        <ele>1340.7</ele>
        <time>2017-02-27T07:37:29Z</time>
      </trkpt>
      <trkpt lat="46.69884" lon="12.31361">
        <ele>1340.7</ele>
        <time>2017-02-27T07:37:54Z</time>
      </trkpt>
      <trkpt lat="46.69885" lon="12.31361">
        <ele>1342.14</ele>
        <time>2017-02-27T07:38:06Z</time>
      </trkpt>
      <trkpt lat="46.69885" lon="12.3136">
        <ele>1340.7</ele>
        <time>2017-02-27T07:38:24Z</time>
      </trkpt>
      <trkpt lat="46.69884" lon="12.31364">
        <ele>1341.18</ele>
        <time>2017-02-27T07:38:42Z</time>
      </trkpt>
      <trkpt lat="46.69885" lon="12.31365">
        <ele>1341.18</ele>
        <time>2017-02-27T07:39:00Z</time>
      </trkpt>
      <trkpt lat="46.69886" lon="12.31362">
        <ele>1341.18</ele>
        <time>2017-02-27T07:39:16Z</time>
      </trkpt>
      <trkpt lat="46.69886" lon="12.31358">
        <ele>1341.66</ele>
        <time>2017-02-27T07:39:30Z</time>
      </trkpt>
      <trkpt lat="46.69886" lon="12.31356">
        <ele>1341.66</ele>
        <time>2017-02-27T07:39:47Z</time>
      </trkpt>
      <trkpt lat="46.69887" lon="12.31357">
        <ele>1343.58</ele>
        <time>2017-02-27T07:40:07Z</time>
      </trkpt>
      <trkpt lat="46.69881" lon="12.31359">
        <ele>1342.14</ele>
        <time>2017-02-27T07:40:22Z</time>
      </trkpt>
      <trkpt lat="46.69874" lon="12.31368">
        <ele>1342.62</ele>
        <time>2017-02-27T07:40:37Z</time>
      </trkpt>
      <trkpt lat="46.6987" lon="12.3137">
        <ele>1342.62</ele>
        <time>2017-02-27T07:40:54Z</time>
      </trkpt>
      <trkpt lat="46.69868" lon="12.31368">
        <ele>1342.62</ele>
        <time>2017-02-27T07:41:06Z</time>
      </trkpt>
      <trkpt lat="46.69869" lon="12.31365">
        <ele>1343.1</ele>
        <time>2017-02-27T07:41:22Z</time>
      </trkpt>
      <trkpt lat="46.6987" lon="12.31368">
        <ele>1343.1</ele>
        <time>2017-02-27T07:41:45Z</time>
      </trkpt>
      <trkpt lat="46.69868" lon="12.31376">
        <ele>1343.1</ele>
        <time>2017-02-27T07:41:58Z</time>
      </trkpt>
      <trkpt lat="46.69868" lon="12.31376">
        <ele>1344.54</ele>
        <time>2017-02-27T07:42:08Z</time>
      </trkpt>
      <trkpt lat="46.69871" lon="12.31374">
        <ele>1343.1</ele>
        <time>2017-02-27T07:42:18Z</time>
      </trkpt>
      <trkpt lat="46.69869" lon="12.31376">
        <ele>1343.1</ele>
        <time>2017-02-27T07:42:30Z</time>
      </trkpt>
      <trkpt lat="46.69858" lon="12.31376">
        <ele>1343.58</ele>
        <time>2017-02-27T07:42:43Z</time>
      </trkpt>
      <trkpt lat="46.69846" lon="12.31377">
        <ele>1344.06</ele>
        <time>2017-02-27T07:42:59Z</time>
      </trkpt>
      <trkpt lat="46.69843" lon="12.31376">
        <ele>1344.54</ele>
        <time>2017-02-27T07:43:02Z</time>
      </trkpt>
      <trkpt lat="46.69832" lon="12.31374">
        <ele>1345.02</ele>
        <time>2017-02-27T07:43:17Z</time>
      </trkpt>
      <trkpt lat="46.69823" lon="12.31372">
        <ele>1345.5</ele>
        <time>2017-02-27T07:43:29Z</time>
      </trkpt>
      <trkpt lat="46.69821" lon="12.31371">
        <ele>1345.5</ele>
        <time>2017-02-27T07:43:32Z</time>
      </trkpt>
      <trkpt lat="46.69813" lon="12.31365">
        <ele>1345.98</ele>
        <time>2017-02-27T07:43:44Z</time>
      </trkpt>
      <trkpt lat="46.69802" lon="12.31362">
        <ele>1346.46</ele>
        <time>2017-02-27T07:44:00Z</time>
      </trkpt>
      <trkpt lat="46.69794" lon="12.31358">
        <ele>1347.43</ele>
        <time>2017-02-27T07:44:14Z</time>
      </trkpt>
      <trkpt lat="46.69785" lon="12.31359">
        <ele>1347.43</ele>
        <time>2017-02-27T07:44:22Z</time>
      </trkpt>
      <trkpt lat="46.69782" lon="12.31356">
        <ele>1347.91</ele>
        <time>2017-02-27T07:44:25Z</time>
      </trkpt>
      <trkpt lat="46.69767" lon="12.31352">
        <ele>1348.39</ele>
        <time>2017-02-27T07:44:38Z</time>
      </trkpt>
      <trkpt lat="46.6976" lon="12.31347">
        <ele>1348.87</ele>
        <time>2017-02-27T07:44:49Z</time>
      </trkpt>
      <trkpt lat="46.69754" lon="12.31344">
        <ele>1349.35</ele>
        <time>2017-02-27T07:44:55Z</time>
      </trkpt>
      <trkpt lat="46.69747" lon="12.31339">
        <ele>1350.31</ele>
        <time>2017-02-27T07:45:08Z</time>
      </trkpt>
      <trkpt lat="46.6974" lon="12.31342">
        <ele>1350.79</ele>
        <time>2017-02-27T07:45:21Z</time>
      </trkpt>
      <trkpt lat="46.6973" lon="12.31337">
        <ele>1352.23</ele>
        <time>2017-02-27T07:45:33Z</time>
      </trkpt>
      <trkpt lat="46.69722" lon="12.31326">
        <ele>1352.71</ele>
        <time>2017-02-27T07:45:49Z</time>
      </trkpt>
      <trkpt lat="46.6972" lon="12.31325">
        <ele>1353.19</ele>
        <time>2017-02-27T07:45:51Z</time>
      </trkpt>
      <trkpt lat="46.69718" lon="12.31323">
        <ele>1353.19</ele>
        <time>2017-02-27T07:45:53Z</time>
      </trkpt>
      <trkpt lat="46.69712" lon="12.31319">
        <ele>1353.19</ele>
        <time>2017-02-27T07:45:59Z</time>
      </trkpt>
      <trkpt lat="46.69699" lon="12.31311">
        <ele>1354.63</ele>
        <time>2017-02-27T07:46:14Z</time>
      </trkpt>
      <trkpt lat="46.69692" lon="12.31306">
        <ele>1355.12</ele>
        <time>2017-02-27T07:46:22Z</time>
      </trkpt>
      <trkpt lat="46.69679" lon="12.313">
        <ele>1356.08</ele>
        <time>2017-02-27T07:46:36Z</time>
      </trkpt>
      <trkpt lat="46.69676" lon="12.31299">
        <ele>1356.56</ele>
        <time>2017-02-27T07:46:38Z</time>
      </trkpt>
      <trkpt lat="46.69659" lon="12.31291">
        <ele>1357.04</ele>
        <time>2017-02-27T07:46:52Z</time>
      </trkpt>
      <trkpt lat="46.69655" lon="12.31287">
        <ele>1357.52</ele>
        <time>2017-02-27T07:46:57Z</time>
      </trkpt>
      <trkpt lat="46.69641" lon="12.31283">
        <ele>1358.48</ele>
        <time>2017-02-27T07:47:09Z</time>
      </trkpt>
      <trkpt lat="46.69628" lon="12.31279">
        <ele>1358.96</ele>
        <time>2017-02-27T07:47:19Z</time>
      </trkpt>
      <trkpt lat="46.69627" lon="12.31278">
        <ele>1358.96</ele>
        <time>2017-02-27T07:47:21Z</time>
      </trkpt>
      <trkpt lat="46.69619" lon="12.31266">
        <ele>1359.92</ele>
        <time>2017-02-27T07:47:35Z</time>
      </trkpt>
      <trkpt lat="46.6961" lon="12.31258">
        <ele>1360.88</ele>
        <time>2017-02-27T07:47:49Z</time>
      </trkpt>
      <trkpt lat="46.69604" lon="12.3125">
        <ele>1360.88</ele>
        <time>2017-02-27T07:48:01Z</time>
      </trkpt>
      <trkpt lat="46.69604" lon="12.31248">
        <ele>1360.88</ele>
        <time>2017-02-27T07:48:04Z</time>
      </trkpt>
      <trkpt lat="46.69596" lon="12.31241">
        <ele>1361.84</ele>
        <time>2017-02-27T07:48:16Z</time>
      </trkpt>
      <trkpt lat="46.69582" lon="12.31238">
        <ele>1362.81</ele>
        <time>2017-02-27T07:48:31Z</time>
      </trkpt>
      <trkpt lat="46.69572" lon="12.31228">
        <ele>1363.77</ele>
        <time>2017-02-27T07:48:44Z</time>
      </trkpt>
      <trkpt lat="46.6956" lon="12.31216">
        <ele>1365.21</ele>
        <time>2017-02-27T07:48:58Z</time>
      </trkpt>
      <trkpt lat="46.69555" lon="12.31211">
        <ele>1365.69</ele>
        <time>2017-02-27T07:49:08Z</time>
      </trkpt>
      <trkpt lat="46.69545" lon="12.31202">
        <ele>1367.13</ele>
        <time>2017-02-27T07:49:21Z</time>
      </trkpt>
      <trkpt lat="46.69543" lon="12.31199">
        <ele>1367.13</ele>
        <time>2017-02-27T07:49:24Z</time>
      </trkpt>
      <trkpt lat="46.69532" lon="12.31186">
        <ele>1368.57</ele>
        <time>2017-02-27T07:49:38Z</time>
      </trkpt>
      <trkpt lat="46.69531" lon="12.31185">
        <ele>1368.57</ele>
        <time>2017-02-27T07:49:39Z</time>
      </trkpt>
      <trkpt lat="46.69521" lon="12.31179">
        <ele>1369.54</ele>
        <time>2017-02-27T07:49:52Z</time>
      </trkpt>
      <trkpt lat="46.69517" lon="12.31175">
        <ele>1370.5</ele>
        <time>2017-02-27T07:49:58Z</time>
      </trkpt>
      <trkpt lat="46.69514" lon="12.31173">
        <ele>1370.5</ele>
        <time>2017-02-27T07:50:02Z</time>
      </trkpt>
      <trkpt lat="46.6951" lon="12.3117">
        <ele>1370.98</ele>
        <time>2017-02-27T07:50:06Z</time>
      </trkpt>
      <trkpt lat="46.69508" lon="12.31169">
        <ele>1370.98</ele>
        <time>2017-02-27T07:50:09Z</time>
      </trkpt>
      <trkpt lat="46.69503" lon="12.31166">
        <ele>1371.46</ele>
        <time>2017-02-27T07:50:14Z</time>
      </trkpt>
      <trkpt lat="46.69482" lon="12.31167">
        <ele>1372.42</ele>
        <time>2017-02-27T07:50:29Z</time>
      </trkpt>
      <trkpt lat="46.69462" lon="12.31172">
        <ele>1373.38</ele>
        <time>2017-02-27T07:50:44Z</time>
      </trkpt>
      <trkpt lat="46.69451" lon="12.31177">
        <ele>1373.86</ele>
        <time>2017-02-27T07:50:56Z</time>
      </trkpt>
      <trkpt lat="46.69443" lon="12.31177">
        <ele>1374.34</ele>
        <time>2017-02-27T07:51:07Z</time>
      </trkpt>
      <trkpt lat="46.69431" lon="12.31181">
        <ele>1374.82</ele>
        <time>2017-02-27T07:51:18Z</time>
      </trkpt>
      <trkpt lat="46.69418" lon="12.31182">
        <ele>1375.78</ele>
        <time>2017-02-27T07:51:32Z</time>
      </trkpt>
      <trkpt lat="46.69408" lon="12.31184">
        <ele>1376.26</ele>
        <time>2017-02-27T07:51:44Z</time>
      </trkpt>
      <trkpt lat="46.69401" lon="12.31184">
        <ele>1376.26</ele>
        <time>2017-02-27T07:51:51Z</time>
      </trkpt>
      <trkpt lat="46.69396" lon="12.31184">
        <ele>1376.75</ele>
        <time>2017-02-27T07:51:58Z</time>
      </trkpt>
      <trkpt lat="46.69388" lon="12.31186">
        <ele>1377.71</ele>
        <time>2017-02-27T07:52:07Z</time>
      </trkpt>
      <trkpt lat="46.69378" lon="12.31182">
        <ele>1378.67</ele>
        <time>2017-02-27T07:52:19Z</time>
      </trkpt>
      <trkpt lat="46.69369" lon="12.31177">
        <ele>1379.15</ele>
        <time>2017-02-27T07:52:32Z</time>
      </trkpt>
      <trkpt lat="46.69367" lon="12.31174">
        <ele>1379.63</ele>
        <time>2017-02-27T07:52:36Z</time>
      </trkpt>
      <trkpt lat="46.69356" lon="12.31171">
        <ele>1380.59</ele>
        <time>2017-02-27T07:52:50Z</time>
      </trkpt>
      <trkpt lat="46.69353" lon="12.31169">
        <ele>1380.59</ele>
        <time>2017-02-27T07:52:54Z</time>
      </trkpt>
      <trkpt lat="46.69345" lon="12.31163">
        <ele>1381.55</ele>
        <time>2017-02-27T07:53:06Z</time>
      </trkpt>
      <trkpt lat="46.69336" lon="12.31154">
        <ele>1382.51</ele>
        <time>2017-02-27T07:53:20Z</time>
      </trkpt>
      <trkpt lat="46.69329" lon="12.31148">
        <ele>1382.99</ele>
        <time>2017-02-27T07:53:33Z</time>
      </trkpt>
      <trkpt lat="46.69318" lon="12.31135">
        <ele>1383.96</ele>
        <time>2017-02-27T07:53:46Z</time>
      </trkpt>
      <trkpt lat="46.69318" lon="12.31135">
        <ele>1383.96</ele>
        <time>2017-02-27T07:53:47Z</time>
      </trkpt>
      <trkpt lat="46.69313" lon="12.31125">
        <ele>1384.92</ele>
        <time>2017-02-27T07:54:01Z</time>
      </trkpt>
      <trkpt lat="46.69307" lon="12.31116">
        <ele>1385.4</ele>
        <time>2017-02-27T07:54:10Z</time>
      </trkpt>
      <trkpt lat="46.693" lon="12.31111">
        <ele>1385.88</ele>
        <time>2017-02-27T07:54:23Z</time>
      </trkpt>
      <trkpt lat="46.693" lon="12.31101">
        <ele>1386.36</ele>
        <time>2017-02-27T07:54:38Z</time>
      </trkpt>
      <trkpt lat="46.69293" lon="12.31093">
        <ele>1386.84</ele>
        <time>2017-02-27T07:54:46Z</time>
      </trkpt>
      <trkpt lat="46.69281" lon="12.3108">
        <ele>1388.28</ele>
        <time>2017-02-27T07:55:02Z</time>
      </trkpt>
      <trkpt lat="46.69273" lon="12.31076">
        <ele>1388.76</ele>
        <time>2017-02-27T07:55:12Z</time>
      </trkpt>
      <trkpt lat="46.69267" lon="12.31072">
        <ele>1389.24</ele>
        <time>2017-02-27T07:55:27Z</time>
      </trkpt>
      <trkpt lat="46.69264" lon="12.31073">
        <ele>1389.72</ele>
        <time>2017-02-27T07:55:34Z</time>
      </trkpt>
      <trkpt lat="46.69257" lon="12.31071">
        <ele>1390.2</ele>
        <time>2017-02-27T07:55:48Z</time>
      </trkpt>
      <trkpt lat="46.69252" lon="12.31074">
        <ele>1390.68</ele>
        <time>2017-02-27T07:55:55Z</time>
      </trkpt>
      <trkpt lat="46.69244" lon="12.31083">
        <ele>1392.13</ele>
        <time>2017-02-27T07:56:09Z</time>
      </trkpt>
      <trkpt lat="46.69239" lon="12.3109">
        <ele>1393.09</ele>
        <time>2017-02-27T07:56:16Z</time>
      </trkpt>
      <trkpt lat="46.69237" lon="12.31094">
        <ele>1393.57</ele>
        <time>2017-02-27T07:56:20Z</time>
      </trkpt>
      <trkpt lat="46.69231" lon="12.31112">
        <ele>1395.01</ele>
        <time>2017-02-27T07:56:33Z</time>
      </trkpt>
      <trkpt lat="46.69225" lon="12.31124">
        <ele>1396.45</ele>
        <time>2017-02-27T07:56:45Z</time>
      </trkpt>
      <trkpt lat="46.69223" lon="12.3113">
        <ele>1396.93</ele>
        <time>2017-02-27T07:56:58Z</time>
      </trkpt>
      <trkpt lat="46.69222" lon="12.31134">
        <ele>1397.41</ele>
        <time>2017-02-27T07:57:06Z</time>
      </trkpt>
      <trkpt lat="46.69219" lon="12.31139">
        <ele>1397.41</ele>
        <time>2017-02-27T07:57:12Z</time>
      </trkpt>
      <trkpt lat="46.69215" lon="12.3114">
        <ele>1398.37</ele>
        <time>2017-02-27T07:57:16Z</time>
      </trkpt>
      <trkpt lat="46.69208" lon="12.3114">
        <ele>1399.34</ele>
        <time>2017-02-27T07:57:28Z</time>
      </trkpt>
      <trkpt lat="46.69203" lon="12.31139">
        <ele>1400.3</ele>
        <time>2017-02-27T07:57:35Z</time>
      </trkpt>
      <trkpt lat="46.69201" lon="12.31138">
        <ele>1400.78</ele>
        <time>2017-02-27T07:57:38Z</time>
      </trkpt>
      <trkpt lat="46.692" lon="12.31133">
        <ele>1401.74</ele>
        <time>2017-02-27T07:57:49Z</time>
      </trkpt>
      <trkpt lat="46.69198" lon="12.3113">
        <ele>1401.74</ele>
        <time>2017-02-27T07:57:53Z</time>
      </trkpt>
      <trkpt lat="46.69192" lon="12.31118">
        <ele>1402.7</ele>
        <time>2017-02-27T07:58:06Z</time>
      </trkpt>
      <trkpt lat="46.69185" lon="12.31108">
        <ele>1404.14</ele>
        <time>2017-02-27T07:58:19Z</time>
      </trkpt>
      <trkpt lat="46.69184" lon="12.31106">
        <ele>1404.14</ele>
        <time>2017-02-27T07:58:21Z</time>
      </trkpt>
      <trkpt lat="46.69176" lon="12.31095">
        <ele>1404.62</ele>
        <time>2017-02-27T07:58:34Z</time>
      </trkpt>
      <trkpt lat="46.69175" lon="12.31092">
        <ele>1406.07</ele>
        <time>2017-02-27T07:58:46Z</time>
      </trkpt>
      <trkpt lat="46.69169" lon="12.31078">
        <ele>1407.03</ele>
        <time>2017-02-27T07:59:00Z</time>
      </trkpt>
      <trkpt lat="46.69164" lon="12.31067">
        <ele>1407.99</ele>
        <time>2017-02-27T07:59:12Z</time>
      </trkpt>
      <trkpt lat="46.69159" lon="12.31056">
        <ele>1409.43</ele>
        <time>2017-02-27T07:59:26Z</time>
      </trkpt>
      <trkpt lat="46.69152" lon="12.31044">
        <ele>1410.87</ele>
        <time>2017-02-27T07:59:41Z</time>
      </trkpt>
      <trkpt lat="46.69147" lon="12.31035">
        <ele>1411.35</ele>
        <time>2017-02-27T07:59:56Z</time>
      </trkpt>
      <trkpt lat="46.69145" lon="12.31038">
        <ele>1410.87</ele>
        <time>2017-02-27T08:00:12Z</time>
      </trkpt>
      <trkpt lat="46.69149" lon="12.31047">
        <ele>1410.87</ele>
        <time>2017-02-27T08:00:46Z</time>
      </trkpt>
      <trkpt lat="46.69146" lon="12.31038">
        <ele>1413.28</ele>
        <time>2017-02-27T08:01:05Z</time>
      </trkpt>
      <trkpt lat="46.69144" lon="12.31024">
        <ele>1413.28</ele>
        <time>2017-02-27T08:01:19Z</time>
      </trkpt>
      <trkpt lat="46.69136" lon="12.31008">
        <ele>1414.72</ele>
        <time>2017-02-27T08:01:34Z</time>
      </trkpt>
      <trkpt lat="46.69127" lon="12.30997">
        <ele>1416.16</ele>
        <time>2017-02-27T08:01:45Z</time>
      </trkpt>
      <trkpt lat="46.6912" lon="12.30987">
        <ele>1418.08</ele>
        <time>2017-02-27T08:01:57Z</time>
      </trkpt>
      <trkpt lat="46.69108" lon="12.3098">
        <ele>1420</ele>
        <time>2017-02-27T08:02:10Z</time>
      </trkpt>
      <trkpt lat="46.69097" lon="12.30974">
        <ele>1421.93</ele>
        <time>2017-02-27T08:02:24Z</time>
      </trkpt>
      <trkpt lat="46.69088" lon="12.30967">
        <ele>1423.85</ele>
        <time>2017-02-27T08:02:36Z</time>
      </trkpt>
      <trkpt lat="46.69079" lon="12.30962">
        <ele>1425.29</ele>
        <time>2017-02-27T08:02:48Z</time>
      </trkpt>
      <trkpt lat="46.69068" lon="12.30954">
        <ele>1426.73</ele>
        <time>2017-02-27T08:02:59Z</time>
      </trkpt>
      <trkpt lat="46.69064" lon="12.30949">
        <ele>1426.73</ele>
        <time>2017-02-27T08:03:12Z</time>
      </trkpt>
      <trkpt lat="46.69055" lon="12.30942">
        <ele>1426.25</ele>
        <time>2017-02-27T08:03:25Z</time>
      </trkpt>
      <trkpt lat="46.69051" lon="12.3094">
        <ele>1426.25</ele>
        <time>2017-02-27T08:03:32Z</time>
      </trkpt>
      <trkpt lat="46.69044" lon="12.3094">
        <ele>1426.73</ele>
        <time>2017-02-27T08:03:39Z</time>
      </trkpt>
      <trkpt lat="46.69036" lon="12.30934">
        <ele>1428.18</ele>
        <time>2017-02-27T08:03:51Z</time>
      </trkpt>
      <trkpt lat="46.69029" lon="12.30932">
        <ele>1429.14</ele>
        <time>2017-02-27T08:04:01Z</time>
      </trkpt>
      <trkpt lat="46.6902" lon="12.30926">
        <ele>1430.58</ele>
        <time>2017-02-27T08:04:13Z</time>
      </trkpt>
      <trkpt lat="46.69012" lon="12.3092">
        <ele>1432.02</ele>
        <time>2017-02-27T08:04:24Z</time>
      </trkpt>
      <trkpt lat="46.69" lon="12.30912">
        <ele>1432.98</ele>
        <time>2017-02-27T08:04:37Z</time>
      </trkpt>
      <trkpt lat="46.68999" lon="12.30911">
        <ele>1433.46</ele>
        <time>2017-02-27T08:04:38Z</time>
      </trkpt>
      <trkpt lat="46.68988" lon="12.30901">
        <ele>1434.91</ele>
        <time>2017-02-27T08:04:53Z</time>
      </trkpt>
      <trkpt lat="46.68981" lon="12.30892">
        <ele>1435.87</ele>
        <time>2017-02-27T08:05:06Z</time>
      </trkpt>
      <trkpt lat="46.68975" lon="12.30883">
        <ele>1436.83</ele>
        <time>2017-02-27T08:05:17Z</time>
      </trkpt>
      <trkpt lat="46.68968" lon="12.30867">
        <ele>1438.27</ele>
        <time>2017-02-27T08:05:31Z</time>
      </trkpt>
      <trkpt lat="46.68957" lon="12.30858">
        <ele>1439.23</ele>
        <time>2017-02-27T08:05:45Z</time>
      </trkpt>
      <trkpt lat="46.6895" lon="12.3086">
        <ele>1440.67</ele>
        <time>2017-02-27T08:05:57Z</time>
      </trkpt>
      <trkpt lat="46.68945" lon="12.30865">
        <ele>1441.15</ele>
        <time>2017-02-27T08:06:04Z</time>
      </trkpt>
      <trkpt lat="46.68942" lon="12.3087">
        <ele>1441.63</ele>
        <time>2017-02-27T08:06:08Z</time>
      </trkpt>
      <trkpt lat="46.68939" lon="12.30881">
        <ele>1442.6</ele>
        <time>2017-02-27T08:06:21Z</time>
      </trkpt>
      <trkpt lat="46.68938" lon="12.3089">
        <ele>1443.08</ele>
        <time>2017-02-27T08:06:33Z</time>
      </trkpt>
      <trkpt lat="46.68934" lon="12.30899">
        <ele>1444.04</ele>
        <time>2017-02-27T08:06:46Z</time>
      </trkpt>
      <trkpt lat="46.68932" lon="12.30912">
        <ele>1445.48</ele>
        <time>2017-02-27T08:06:58Z</time>
      </trkpt>
      <trkpt lat="46.68931" lon="12.30926">
        <ele>1446.44</ele>
        <time>2017-02-27T08:07:11Z</time>
      </trkpt>
      <trkpt lat="46.6893" lon="12.30943">
        <ele>1447.88</ele>
        <time>2017-02-27T08:07:24Z</time>
      </trkpt>
      <trkpt lat="46.68933" lon="12.30958">
        <ele>1449.32</ele>
        <time>2017-02-27T08:07:37Z</time>
      </trkpt>
      <trkpt lat="46.68935" lon="12.30971">
        <ele>1450.29</ele>
        <time>2017-02-27T08:07:49Z</time>
      </trkpt>
      <trkpt lat="46.68934" lon="12.30982">
        <ele>1451.73</ele>
        <time>2017-02-27T08:08:02Z</time>
      </trkpt>
      <trkpt lat="46.68932" lon="12.30985">
        <ele>1451.73</ele>
        <time>2017-02-27T08:08:06Z</time>
      </trkpt>
      <trkpt lat="46.68924" lon="12.3099">
        <ele>1453.17</ele>
        <time>2017-02-27T08:08:19Z</time>
      </trkpt>
      <trkpt lat="46.68917" lon="12.30985">
        <ele>1454.13</ele>
        <time>2017-02-27T08:08:33Z</time>
      </trkpt>
      <trkpt lat="46.68917" lon="12.30984">
        <ele>1454.61</ele>
        <time>2017-02-27T08:08:34Z</time>
      </trkpt>
      <trkpt lat="46.68908" lon="12.30973">
        <ele>1455.57</ele>
        <time>2017-02-27T08:08:48Z</time>
      </trkpt>
      <trkpt lat="46.68901" lon="12.30963">
        <ele>1456.53</ele>
        <time>2017-02-27T08:09:02Z</time>
      </trkpt>
      <trkpt lat="46.68898" lon="12.30954">
        <ele>1457.02</ele>
        <time>2017-02-27T08:09:11Z</time>
      </trkpt>
      <trkpt lat="46.68895" lon="12.30942">
        <ele>1457.98</ele>
        <time>2017-02-27T08:09:25Z</time>
      </trkpt>
      <trkpt lat="46.68894" lon="12.30938">
        <ele>1458.46</ele>
        <time>2017-02-27T08:09:31Z</time>
      </trkpt>
      <trkpt lat="46.68892" lon="12.30931">
        <ele>1458.94</ele>
        <time>2017-02-27T08:09:36Z</time>
      </trkpt>
      <trkpt lat="46.6889" lon="12.30916">
        <ele>1460.38</ele>
        <time>2017-02-27T08:09:49Z</time>
      </trkpt>
      <trkpt lat="46.68883" lon="12.30905">
        <ele>1461.34</ele>
        <time>2017-02-27T08:10:00Z</time>
      </trkpt>
      <trkpt lat="46.68879" lon="12.30892">
        <ele>1462.78</ele>
        <time>2017-02-27T08:10:13Z</time>
      </trkpt>
      <trkpt lat="46.68873" lon="12.30879">
        <ele>1463.74</ele>
        <time>2017-02-27T08:10:26Z</time>
      </trkpt>
      <trkpt lat="46.68868" lon="12.30867">
        <ele>1465.19</ele>
        <time>2017-02-27T08:10:40Z</time>
      </trkpt>
      <trkpt lat="46.68862" lon="12.30855">
        <ele>1466.15</ele>
        <time>2017-02-27T08:10:52Z</time>
      </trkpt>
      <trkpt lat="46.68854" lon="12.30841">
        <ele>1467.59</ele>
        <time>2017-02-27T08:11:07Z</time>
      </trkpt>
      <trkpt lat="46.68848" lon="12.3083">
        <ele>1469.03</ele>
        <time>2017-02-27T08:11:20Z</time>
      </trkpt>
      <trkpt lat="46.68838" lon="12.30819">
        <ele>1470.47</ele>
        <time>2017-02-27T08:11:35Z</time>
      </trkpt>
      <trkpt lat="46.68837" lon="12.30818">
        <ele>1470.47</ele>
        <time>2017-02-27T08:11:36Z</time>
      </trkpt>
      <trkpt lat="46.68836" lon="12.30811">
        <ele>1470.95</ele>
        <time>2017-02-27T08:11:43Z</time>
      </trkpt>
      <trkpt lat="46.68827" lon="12.30798">
        <ele>1472.4</ele>
        <time>2017-02-27T08:11:58Z</time>
      </trkpt>
      <trkpt lat="46.6882" lon="12.30789">
        <ele>1473.84</ele>
        <time>2017-02-27T08:12:10Z</time>
      </trkpt>
      <trkpt lat="46.68809" lon="12.30782">
        <ele>1474.8</ele>
        <time>2017-02-27T08:12:23Z</time>
      </trkpt>
      <trkpt lat="46.68802" lon="12.30776">
        <ele>1476.24</ele>
        <time>2017-02-27T08:12:37Z</time>
      </trkpt>
      <trkpt lat="46.68795" lon="12.30764">
        <ele>1477.2</ele>
        <time>2017-02-27T08:12:51Z</time>
      </trkpt>
      <trkpt lat="46.68791" lon="12.30753">
        <ele>1478.16</ele>
        <time>2017-02-27T08:13:04Z</time>
      </trkpt>
      <trkpt lat="46.68789" lon="12.3075">
        <ele>1478.65</ele>
        <time>2017-02-27T08:13:18Z</time>
      </trkpt>
      <trkpt lat="46.68785" lon="12.30747">
        <ele>1479.13</ele>
        <time>2017-02-27T08:13:28Z</time>
      </trkpt>
      <trkpt lat="46.68775" lon="12.30743">
        <ele>1479.61</ele>
        <time>2017-02-27T08:13:41Z</time>
      </trkpt>
      <trkpt lat="46.68769" lon="12.30738">
        <ele>1480.09</ele>
        <time>2017-02-27T08:13:57Z</time>
      </trkpt>
      <trkpt lat="46.68758" lon="12.3073">
        <ele>1481.05</ele>
        <time>2017-02-27T08:14:09Z</time>
      </trkpt>
      <trkpt lat="46.68746" lon="12.30722">
        <ele>1482.97</ele>
        <time>2017-02-27T08:14:24Z</time>
      </trkpt>
      <trkpt lat="46.68745" lon="12.30721">
        <ele>1483.45</ele>
        <time>2017-02-27T08:14:25Z</time>
      </trkpt>
      <trkpt lat="46.6874" lon="12.30718">
        <ele>1484.41</ele>
        <time>2017-02-27T08:14:38Z</time>
      </trkpt>
      <trkpt lat="46.68736" lon="12.30711">
        <ele>1484.89</ele>
        <time>2017-02-27T08:14:52Z</time>
      </trkpt>
      <trkpt lat="46.68736" lon="12.30706">
        <ele>1485.37</ele>
        <time>2017-02-27T08:14:57Z</time>
      </trkpt>
      <trkpt lat="46.68738" lon="12.30693">
        <ele>1485.37</ele>
        <time>2017-02-27T08:15:08Z</time>
      </trkpt>
      <trkpt lat="46.68741" lon="12.30679">
        <ele>1486.34</ele>
        <time>2017-02-27T08:15:20Z</time>
      </trkpt>
      <trkpt lat="46.68745" lon="12.30664">
        <ele>1487.3</ele>
        <time>2017-02-27T08:15:32Z</time>
      </trkpt>
      <trkpt lat="46.68746" lon="12.30654">
        <ele>1488.74</ele>
        <time>2017-02-27T08:15:43Z</time>
      </trkpt>
      <trkpt lat="46.68746" lon="12.30642">
        <ele>1490.18</ele>
        <time>2017-02-27T08:15:58Z</time>
      </trkpt>
      <trkpt lat="46.68746" lon="12.30636">
        <ele>1490.66</ele>
        <time>2017-02-27T08:16:04Z</time>
      </trkpt>
      <trkpt lat="46.68746" lon="12.30626">
        <ele>1491.14</ele>
        <time>2017-02-27T08:16:13Z</time>
      </trkpt>
      <trkpt lat="46.68743" lon="12.3062">
        <ele>1491.62</ele>
        <time>2017-02-27T08:16:20Z</time>
      </trkpt>
      <trkpt lat="46.68735" lon="12.3062">
        <ele>1492.58</ele>
        <time>2017-02-27T08:16:28Z</time>
      </trkpt>
      <trkpt lat="46.68722" lon="12.30624">
        <ele>1493.55</ele>
        <time>2017-02-27T08:16:42Z</time>
      </trkpt>
      <trkpt lat="46.68714" lon="12.30628">
        <ele>1494.03</ele>
        <time>2017-02-27T08:16:54Z</time>
      </trkpt>
      <trkpt lat="46.68714" lon="12.30628">
        <ele>1494.03</ele>
        <time>2017-02-27T08:16:55Z</time>
      </trkpt>
      <trkpt lat="46.68708" lon="12.30632">
        <ele>1494.99</ele>
        <time>2017-02-27T08:17:02Z</time>
      </trkpt>
      <trkpt lat="46.68705" lon="12.30633">
        <ele>1495.47</ele>
        <time>2017-02-27T08:17:05Z</time>
      </trkpt>
      <trkpt lat="46.68695" lon="12.30638">
        <ele>1496.43</ele>
        <time>2017-02-27T08:17:18Z</time>
      </trkpt>
      <trkpt lat="46.68686" lon="12.30643">
        <ele>1497.87</ele>
        <time>2017-02-27T08:17:29Z</time>
      </trkpt>
      <trkpt lat="46.68679" lon="12.30645">
        <ele>1498.83</ele>
        <time>2017-02-27T08:17:41Z</time>
      </trkpt>
      <trkpt lat="46.68671" lon="12.30645">
        <ele>1499.79</ele>
        <time>2017-02-27T08:17:52Z</time>
      </trkpt>
      <trkpt lat="46.68662" lon="12.30642">
        <ele>1500.76</ele>
        <time>2017-02-27T08:18:05Z</time>
      </trkpt>
      <trkpt lat="46.6866" lon="12.30641">
        <ele>1500.76</ele>
        <time>2017-02-27T08:18:08Z</time>
      </trkpt>
      <trkpt lat="46.68655" lon="12.30639">
        <ele>1501.24</ele>
        <time>2017-02-27T08:18:16Z</time>
      </trkpt>
      <trkpt lat="46.68645" lon="12.30631">
        <ele>1503.16</ele>
        <time>2017-02-27T08:18:30Z</time>
      </trkpt>
      <trkpt lat="46.68638" lon="12.30626">
        <ele>1504.6</ele>
        <time>2017-02-27T08:18:42Z</time>
      </trkpt>
      <trkpt lat="46.68633" lon="12.30619">
        <ele>1506.04</ele>
        <time>2017-02-27T08:18:55Z</time>
      </trkpt>
      <trkpt lat="46.68625" lon="12.30613">
        <ele>1507.48</ele>
        <time>2017-02-27T08:19:07Z</time>
      </trkpt>
      <trkpt lat="46.68618" lon="12.30609">
        <ele>1508.45</ele>
        <time>2017-02-27T08:19:18Z</time>
      </trkpt>
      <trkpt lat="46.68609" lon="12.30604">
        <ele>1509.89</ele>
        <time>2017-02-27T08:19:30Z</time>
      </trkpt>
      <trkpt lat="46.686" lon="12.30602">
        <ele>1510.85</ele>
        <time>2017-02-27T08:19:43Z</time>
      </trkpt>
      <trkpt lat="46.68596" lon="12.30599">
        <ele>1510.85</ele>
        <time>2017-02-27T08:19:49Z</time>
      </trkpt>
      <trkpt lat="46.68592" lon="12.30597">
        <ele>1510.85</ele>
        <time>2017-02-27T08:19:53Z</time>
      </trkpt>
      <trkpt lat="46.68584" lon="12.30594">
        <ele>1511.33</ele>
        <time>2017-02-27T08:20:03Z</time>
      </trkpt>
      <trkpt lat="46.68575" lon="12.30589">
        <ele>1512.29</ele>
        <time>2017-02-27T08:20:15Z</time>
      </trkpt>
      <trkpt lat="46.68562" lon="12.30583">
        <ele>1512.29</ele>
        <time>2017-02-27T08:20:29Z</time>
      </trkpt>
      <trkpt lat="46.68551" lon="12.30577">
        <ele>1513.25</ele>
        <time>2017-02-27T08:20:42Z</time>
      </trkpt>
      <trkpt lat="46.68542" lon="12.30572">
        <ele>1513.73</ele>
        <time>2017-02-27T08:20:55Z</time>
      </trkpt>
      <trkpt lat="46.68533" lon="12.30565">
        <ele>1514.21</ele>
        <time>2017-02-27T08:21:08Z</time>
      </trkpt>
      <trkpt lat="46.68529" lon="12.30562">
        <ele>1514.69</ele>
        <time>2017-02-27T08:21:17Z</time>
      </trkpt>
      <trkpt lat="46.68521" lon="12.30556">
        <ele>1514.69</ele>
        <time>2017-02-27T08:21:30Z</time>
      </trkpt>
      <trkpt lat="46.68519" lon="12.30548">
        <ele>1515.18</ele>
        <time>2017-02-27T08:21:40Z</time>
      </trkpt>
      <trkpt lat="46.68519" lon="12.30545">
        <ele>1515.18</ele>
        <time>2017-02-27T08:21:43Z</time>
      </trkpt>
      <trkpt lat="46.68516" lon="12.30531">
        <ele>1516.14</ele>
        <time>2017-02-27T08:21:54Z</time>
      </trkpt>
      <trkpt lat="46.68512" lon="12.30517">
        <ele>1517.1</ele>
        <time>2017-02-27T08:22:04Z</time>
      </trkpt>
      <trkpt lat="46.68511" lon="12.30513">
        <ele>1517.1</ele>
        <time>2017-02-27T08:22:07Z</time>
      </trkpt>
      <trkpt lat="46.68507" lon="12.30495">
        <ele>1518.06</ele>
        <time>2017-02-27T08:22:21Z</time>
      </trkpt>
      <trkpt lat="46.68501" lon="12.30477">
        <ele>1519.02</ele>
        <time>2017-02-27T08:22:36Z</time>
      </trkpt>
      <trkpt lat="46.68495" lon="12.30462">
        <ele>1519.98</ele>
        <time>2017-02-27T08:22:51Z</time>
      </trkpt>
      <trkpt lat="46.68489" lon="12.30443">
        <ele>1520.94</ele>
        <time>2017-02-27T08:23:06Z</time>
      </trkpt>
      <trkpt lat="46.68484" lon="12.3043">
        <ele>1521.42</ele>
        <time>2017-02-27T08:23:19Z</time>
      </trkpt>
      <trkpt lat="46.68479" lon="12.30419">
        <ele>1522.39</ele>
        <time>2017-02-27T08:23:32Z</time>
      </trkpt>
      <trkpt lat="46.68478" lon="12.30413">
        <ele>1522.87</ele>
        <time>2017-02-27T08:23:37Z</time>
      </trkpt>
      <trkpt lat="46.68469" lon="12.30393">
        <ele>1523.83</ele>
        <time>2017-02-27T08:23:52Z</time>
      </trkpt>
      <trkpt lat="46.68462" lon="12.30377">
        <ele>1524.79</ele>
        <time>2017-02-27T08:24:08Z</time>
      </trkpt>
      <trkpt lat="46.68455" lon="12.30361">
        <ele>1525.75</ele>
        <time>2017-02-27T08:24:22Z</time>
      </trkpt>
      <trkpt lat="46.68449" lon="12.30348">
        <ele>1527.19</ele>
        <time>2017-02-27T08:24:35Z</time>
      </trkpt>
      <trkpt lat="46.68443" lon="12.30334">
        <ele>1527.67</ele>
        <time>2017-02-27T08:24:50Z</time>
      </trkpt>
      <trkpt lat="46.68442" lon="12.30328">
        <ele>1528.15</ele>
        <time>2017-02-27T08:24:54Z</time>
      </trkpt>
      <trkpt lat="46.68435" lon="12.30314">
        <ele>1529.59</ele>
        <time>2017-02-27T08:25:08Z</time>
      </trkpt>
      <trkpt lat="46.6843" lon="12.30301">
        <ele>1530.56</ele>
        <time>2017-02-27T08:25:21Z</time>
      </trkpt>
      <trkpt lat="46.68424" lon="12.30285">
        <ele>1531.52</ele>
        <time>2017-02-27T08:25:35Z</time>
      </trkpt>
      <trkpt lat="46.68422" lon="12.30278">
        <ele>1532</ele>
        <time>2017-02-27T08:25:42Z</time>
      </trkpt>
      <trkpt lat="46.68417" lon="12.30269">
        <ele>1532.48</ele>
        <time>2017-02-27T08:25:56Z</time>
      </trkpt>
      <trkpt lat="46.68412" lon="12.30263">
        <ele>1532.96</ele>
        <time>2017-02-27T08:26:04Z</time>
      </trkpt>
      <trkpt lat="46.68403" lon="12.30251">
        <ele>1533.92</ele>
        <time>2017-02-27T08:26:17Z</time>
      </trkpt>
      <trkpt lat="46.684" lon="12.30237">
        <ele>1534.88</ele>
        <time>2017-02-27T08:26:31Z</time>
      </trkpt>
      <trkpt lat="46.68395" lon="12.30223">
        <ele>1535.36</ele>
        <time>2017-02-27T08:26:43Z</time>
      </trkpt>
      <trkpt lat="46.68394" lon="12.30222">
        <ele>1535.36</ele>
        <time>2017-02-27T08:26:44Z</time>
      </trkpt>
      <trkpt lat="46.68391" lon="12.30212">
        <ele>1535.84</ele>
        <time>2017-02-27T08:26:53Z</time>
      </trkpt>
      <trkpt lat="46.68389" lon="12.30207">
        <ele>1536.32</ele>
        <time>2017-02-27T08:26:58Z</time>
      </trkpt>
      <trkpt lat="46.68387" lon="12.30201">
        <ele>1536.8</ele>
        <time>2017-02-27T08:27:03Z</time>
      </trkpt>
      <trkpt lat="46.68383" lon="12.30195">
        <ele>1536.8</ele>
        <time>2017-02-27T08:27:08Z</time>
      </trkpt>
      <trkpt lat="46.68382" lon="12.30188">
        <ele>1537.29</ele>
        <time>2017-02-27T08:27:13Z</time>
      </trkpt>
      <trkpt lat="46.68374" lon="12.30173">
        <ele>1537.77</ele>
        <time>2017-02-27T08:27:27Z</time>
      </trkpt>
      <trkpt lat="46.68364" lon="12.30168">
        <ele>1538.73</ele>
        <time>2017-02-27T08:27:40Z</time>
      </trkpt>
      <trkpt lat="46.68362" lon="12.30169">
        <ele>1539.21</ele>
        <time>2017-02-27T08:27:43Z</time>
      </trkpt>
      <trkpt lat="46.68352" lon="12.30166">
        <ele>1539.69</ele>
        <time>2017-02-27T08:27:55Z</time>
      </trkpt>
      <trkpt lat="46.68346" lon="12.30175">
        <ele>1540.17</ele>
        <time>2017-02-27T08:28:04Z</time>
      </trkpt>
      <trkpt lat="46.68337" lon="12.3019">
        <ele>1541.13</ele>
        <time>2017-02-27T08:28:16Z</time>
      </trkpt>
      <trkpt lat="46.68333" lon="12.30201">
        <ele>1541.61</ele>
        <time>2017-02-27T08:28:25Z</time>
      </trkpt>
      <trkpt lat="46.68327" lon="12.30219">
        <ele>1543.05</ele>
        <time>2017-02-27T08:28:40Z</time>
      </trkpt>
      <trkpt lat="46.68325" lon="12.30235">
        <ele>1544.01</ele>
        <time>2017-02-27T08:28:54Z</time>
      </trkpt>
      <trkpt lat="46.68321" lon="12.30256">
        <ele>1544.98</ele>
        <time>2017-02-27T08:29:07Z</time>
      </trkpt>
      <trkpt lat="46.68318" lon="12.30267">
        <ele>1545.94</ele>
        <time>2017-02-27T08:29:20Z</time>
      </trkpt>
      <trkpt lat="46.68317" lon="12.30279">
        <ele>1546.9</ele>
        <time>2017-02-27T08:29:35Z</time>
      </trkpt>
      <trkpt lat="46.68314" lon="12.30291">
        <ele>1547.86</ele>
        <time>2017-02-27T08:29:49Z</time>
      </trkpt>
      <trkpt lat="46.68309" lon="12.30297">
        <ele>1548.82</ele>
        <time>2017-02-27T08:30:02Z</time>
      </trkpt>
      <trkpt lat="46.68305" lon="12.30297">
        <ele>1549.3</ele>
        <time>2017-02-27T08:30:15Z</time>
      </trkpt>
      <trkpt lat="46.68302" lon="12.30292">
        <ele>1549.78</ele>
        <time>2017-02-27T08:30:27Z</time>
      </trkpt>
      <trkpt lat="46.68302" lon="12.30287">
        <ele>1549.78</ele>
        <time>2017-02-27T08:30:54Z</time>
      </trkpt>
      <trkpt lat="46.68305" lon="12.30295">
        <ele>1549.78</ele>
        <time>2017-02-27T08:31:06Z</time>
      </trkpt>
      <trkpt lat="46.68308" lon="12.30298">
        <ele>1550.26</ele>
        <time>2017-02-27T08:31:21Z</time>
      </trkpt>
      <trkpt lat="46.68303" lon="12.30289">
        <ele>1550.26</ele>
        <time>2017-02-27T08:31:32Z</time>
      </trkpt>
      <trkpt lat="46.68303" lon="12.30288">
        <ele>1550.74</ele>
        <time>2017-02-27T08:31:35Z</time>
      </trkpt>
      <trkpt lat="46.68297" lon="12.30271">
        <ele>1551.71</ele>
        <time>2017-02-27T08:31:50Z</time>
      </trkpt>
      <trkpt lat="46.68296" lon="12.30265">
        <ele>1552.19</ele>
        <time>2017-02-27T08:31:56Z</time>
      </trkpt>
      <trkpt lat="46.68291" lon="12.30255">
        <ele>1553.15</ele>
        <time>2017-02-27T08:32:05Z</time>
      </trkpt>
      <trkpt lat="46.68285" lon="12.30244">
        <ele>1554.11</ele>
        <time>2017-02-27T08:32:19Z</time>
      </trkpt>
      <trkpt lat="46.68281" lon="12.30231">
        <ele>1555.07</ele>
        <time>2017-02-27T08:32:31Z</time>
      </trkpt>
      <trkpt lat="46.68276" lon="12.30219">
        <ele>1556.03</ele>
        <time>2017-02-27T08:32:43Z</time>
      </trkpt>
      <trkpt lat="46.68274" lon="12.30211">
        <ele>1556.51</ele>
        <time>2017-02-27T08:32:51Z</time>
      </trkpt>
      <trkpt lat="46.68271" lon="12.30206">
        <ele>1556.99</ele>
        <time>2017-02-27T08:32:56Z</time>
      </trkpt>
      <trkpt lat="46.68267" lon="12.30193">
        <ele>1557.95</ele>
        <time>2017-02-27T08:33:09Z</time>
      </trkpt>
      <trkpt lat="46.6826" lon="12.30181">
        <ele>1558.92</ele>
        <time>2017-02-27T08:33:21Z</time>
      </trkpt>
      <trkpt lat="46.68256" lon="12.30172">
        <ele>1559.4</ele>
        <time>2017-02-27T08:33:31Z</time>
      </trkpt>
      <trkpt lat="46.68253" lon="12.30168">
        <ele>1560.36</ele>
        <time>2017-02-27T08:33:36Z</time>
      </trkpt>
      <trkpt lat="46.68247" lon="12.30159">
        <ele>1560.84</ele>
        <time>2017-02-27T08:33:46Z</time>
      </trkpt>
      <trkpt lat="46.68244" lon="12.30154">
        <ele>1561.32</ele>
        <time>2017-02-27T08:33:51Z</time>
      </trkpt>
      <trkpt lat="46.68238" lon="12.30152">
        <ele>1561.32</ele>
        <time>2017-02-27T08:33:58Z</time>
      </trkpt>
      <trkpt lat="46.68232" lon="12.30152">
        <ele>1561.8</ele>
        <time>2017-02-27T08:34:04Z</time>
      </trkpt>
      <trkpt lat="46.68225" lon="12.30166">
        <ele>1563.24</ele>
        <time>2017-02-27T08:34:18Z</time>
      </trkpt>
      <trkpt lat="46.68225" lon="12.30167">
        <ele>1563.24</ele>
        <time>2017-02-27T08:34:19Z</time>
      </trkpt>
      <trkpt lat="46.68224" lon="12.30183">
        <ele>1564.2</ele>
        <time>2017-02-27T08:34:32Z</time>
      </trkpt>
      <trkpt lat="46.68225" lon="12.30201">
        <ele>1565.64</ele>
        <time>2017-02-27T08:34:47Z</time>
      </trkpt>
      <trkpt lat="46.68224" lon="12.30216">
        <ele>1566.12</ele>
        <time>2017-02-27T08:35:00Z</time>
      </trkpt>
      <trkpt lat="46.68223" lon="12.30233">
        <ele>1567.57</ele>
        <time>2017-02-27T08:35:15Z</time>
      </trkpt>
      <trkpt lat="46.68222" lon="12.30242">
        <ele>1568.05</ele>
        <time>2017-02-27T08:35:22Z</time>
      </trkpt>
      <trkpt lat="46.68221" lon="12.30259">
        <ele>1569.01</ele>
        <time>2017-02-27T08:35:36Z</time>
      </trkpt>
      <trkpt lat="46.6822" lon="12.30267">
        <ele>1569.97</ele>
        <time>2017-02-27T08:35:43Z</time>
      </trkpt>
      <trkpt lat="46.68215" lon="12.30278">
        <ele>1570.45</ele>
        <time>2017-02-27T08:35:57Z</time>
      </trkpt>
      <trkpt lat="46.68207" lon="12.3028">
        <ele>1571.41</ele>
        <time>2017-02-27T08:36:10Z</time>
      </trkpt>
      <trkpt lat="46.68206" lon="12.30276">
        <ele>1571.89</ele>
        <time>2017-02-27T08:36:19Z</time>
      </trkpt>
      <trkpt lat="46.68202" lon="12.30265">
        <ele>1572.85</ele>
        <time>2017-02-27T08:36:31Z</time>
      </trkpt>
      <trkpt lat="46.68199" lon="12.30258">
        <ele>1573.33</ele>
        <time>2017-02-27T08:36:38Z</time>
      </trkpt>
      <trkpt lat="46.68193" lon="12.30244">
        <ele>1574.78</ele>
        <time>2017-02-27T08:36:53Z</time>
      </trkpt>
      <trkpt lat="46.68191" lon="12.30237">
        <ele>1574.78</ele>
        <time>2017-02-27T08:37:00Z</time>
      </trkpt>
      <trkpt lat="46.68189" lon="12.30226">
        <ele>1576.22</ele>
        <time>2017-02-27T08:37:13Z</time>
      </trkpt>
      <trkpt lat="46.68184" lon="12.30212">
        <ele>1577.18</ele>
        <time>2017-02-27T08:37:26Z</time>
      </trkpt>
      <trkpt lat="46.68182" lon="12.30205">
        <ele>1577.66</ele>
        <time>2017-02-27T08:37:33Z</time>
      </trkpt>
      <trkpt lat="46.68179" lon="12.302">
        <ele>1578.14</ele>
        <time>2017-02-27T08:37:38Z</time>
      </trkpt>
      <trkpt lat="46.68177" lon="12.30193">
        <ele>1578.62</ele>
        <time>2017-02-27T08:37:44Z</time>
      </trkpt>
      <trkpt lat="46.68176" lon="12.30188">
        <ele>1579.1</ele>
        <time>2017-02-27T08:37:49Z</time>
      </trkpt>
      <trkpt lat="46.68171" lon="12.30177">
        <ele>1580.06</ele>
        <time>2017-02-27T08:38:01Z</time>
      </trkpt>
      <trkpt lat="46.68165" lon="12.30165">
        <ele>1581.99</ele>
        <time>2017-02-27T08:38:15Z</time>
      </trkpt>
      <trkpt lat="46.68165" lon="12.30164">
        <ele>1581.99</ele>
        <time>2017-02-27T08:38:17Z</time>
      </trkpt>
      <trkpt lat="46.6816" lon="12.30156">
        <ele>1583.43</ele>
        <time>2017-02-27T08:38:28Z</time>
      </trkpt>
      <trkpt lat="46.68156" lon="12.3015">
        <ele>1583.43</ele>
        <time>2017-02-27T08:38:34Z</time>
      </trkpt>
      <trkpt lat="46.68155" lon="12.30146">
        <ele>1583.91</ele>
        <time>2017-02-27T08:38:38Z</time>
      </trkpt>
      <trkpt lat="46.68148" lon="12.30135">
        <ele>1585.83</ele>
        <time>2017-02-27T08:38:52Z</time>
      </trkpt>
      <trkpt lat="46.68142" lon="12.30125">
        <ele>1587.27</ele>
        <time>2017-02-27T08:39:04Z</time>
      </trkpt>
      <trkpt lat="46.68138" lon="12.30117">
        <ele>1587.75</ele>
        <time>2017-02-27T08:39:13Z</time>
      </trkpt>
      <trkpt lat="46.68131" lon="12.30108">
        <ele>1588.72</ele>
        <time>2017-02-27T08:39:27Z</time>
      </trkpt>
      <trkpt lat="46.68129" lon="12.30105">
        <ele>1588.72</ele>
        <time>2017-02-27T08:39:41Z</time>
      </trkpt>
      <trkpt lat="46.68122" lon="12.30094">
        <ele>1589.68</ele>
        <time>2017-02-27T08:39:53Z</time>
      </trkpt>
      <trkpt lat="46.68117" lon="12.30082">
        <ele>1590.64</ele>
        <time>2017-02-27T08:40:05Z</time>
      </trkpt>
      <trkpt lat="46.68115" lon="12.30069">
        <ele>1591.12</ele>
        <time>2017-02-27T08:40:17Z</time>
      </trkpt>
      <trkpt lat="46.68115" lon="12.30065">
        <ele>1591.12</ele>
        <time>2017-02-27T08:40:20Z</time>
      </trkpt>
      <trkpt lat="46.68114" lon="12.30059">
        <ele>1593.52</ele>
        <time>2017-02-27T08:40:25Z</time>
      </trkpt>
      <trkpt lat="46.68113" lon="12.30054">
        <ele>1592.08</ele>
        <time>2017-02-27T08:40:30Z</time>
      </trkpt>
      <trkpt lat="46.68111" lon="12.30038">
        <ele>1593.04</ele>
        <time>2017-02-27T08:40:43Z</time>
      </trkpt>
      <trkpt lat="46.68104" lon="12.3002">
        <ele>1594.96</ele>
        <time>2017-02-27T08:41:00Z</time>
      </trkpt>
      <trkpt lat="46.68096" lon="12.30007">
        <ele>1595.93</ele>
        <time>2017-02-27T08:41:14Z</time>
      </trkpt>
      <trkpt lat="46.68094" lon="12.30001">
        <ele>1596.41</ele>
        <time>2017-02-27T08:41:21Z</time>
      </trkpt>
      <trkpt lat="46.68091" lon="12.29996">
        <ele>1596.89</ele>
        <time>2017-02-27T08:41:26Z</time>
      </trkpt>
      <trkpt lat="46.68087" lon="12.29985">
        <ele>1597.37</ele>
        <time>2017-02-27T08:41:36Z</time>
      </trkpt>
      <trkpt lat="46.68084" lon="12.2998">
        <ele>1597.85</ele>
        <time>2017-02-27T08:41:41Z</time>
      </trkpt>
      <trkpt lat="46.68079" lon="12.29969">
        <ele>1598.33</ele>
        <time>2017-02-27T08:41:54Z</time>
      </trkpt>
      <trkpt lat="46.68075" lon="12.29959">
        <ele>1599.77</ele>
        <time>2017-02-27T08:42:03Z</time>
      </trkpt>
      <trkpt lat="46.68069" lon="12.29946">
        <ele>1601.21</ele>
        <time>2017-02-27T08:42:16Z</time>
      </trkpt>
      <trkpt lat="46.68063" lon="12.29935">
        <ele>1602.17</ele>
        <time>2017-02-27T08:42:28Z</time>
      </trkpt>
      <trkpt lat="46.68061" lon="12.29926">
        <ele>1602.66</ele>
        <time>2017-02-27T08:42:38Z</time>
      </trkpt>
      <trkpt lat="46.68056" lon="12.29915">
        <ele>1603.62</ele>
        <time>2017-02-27T08:42:48Z</time>
      </trkpt>
      <trkpt lat="46.68054" lon="12.2991">
        <ele>1603.62</ele>
        <time>2017-02-27T08:42:53Z</time>
      </trkpt>
      <trkpt lat="46.6805" lon="12.29904">
        <ele>1604.1</ele>
        <time>2017-02-27T08:42:59Z</time>
      </trkpt>
      <trkpt lat="46.68045" lon="12.29889">
        <ele>1605.54</ele>
        <time>2017-02-27T08:43:13Z</time>
      </trkpt>
      <trkpt lat="46.68041" lon="12.29885">
        <ele>1606.02</ele>
        <time>2017-02-27T08:43:19Z</time>
      </trkpt>
      <trkpt lat="46.68035" lon="12.29875">
        <ele>1606.98</ele>
        <time>2017-02-27T08:43:32Z</time>
      </trkpt>
      <trkpt lat="46.6803" lon="12.29871">
        <ele>1606.98</ele>
        <time>2017-02-27T08:43:40Z</time>
      </trkpt>
      <trkpt lat="46.68018" lon="12.29865">
        <ele>1607.46</ele>
        <time>2017-02-27T08:43:53Z</time>
      </trkpt>
      <trkpt lat="46.68011" lon="12.29863">
        <ele>1607.94</ele>
        <time>2017-02-27T08:44:06Z</time>
      </trkpt>
      <trkpt lat="46.6801" lon="12.29863">
        <ele>1607.94</ele>
        <time>2017-02-27T08:44:08Z</time>
      </trkpt>
      <trkpt lat="46.67996" lon="12.29861">
        <ele>1607.94</ele>
        <time>2017-02-27T08:44:21Z</time>
      </trkpt>
      <trkpt lat="46.67985" lon="12.29856">
        <ele>1608.9</ele>
        <time>2017-02-27T08:44:34Z</time>
      </trkpt>
      <trkpt lat="46.6798" lon="12.29856">
        <ele>1609.38</ele>
        <time>2017-02-27T08:44:40Z</time>
      </trkpt>
      <trkpt lat="46.67979" lon="12.29855">
        <ele>1609.38</ele>
        <time>2017-02-27T08:44:42Z</time>
      </trkpt>
      <trkpt lat="46.67966" lon="12.29848">
        <ele>1609.86</ele>
        <time>2017-02-27T08:44:57Z</time>
      </trkpt>
      <trkpt lat="46.67958" lon="12.2984">
        <ele>1610.83</ele>
        <time>2017-02-27T08:45:11Z</time>
      </trkpt>
      <trkpt lat="46.67955" lon="12.29836">
        <ele>1610.83</ele>
        <time>2017-02-27T08:45:15Z</time>
      </trkpt>
      <trkpt lat="46.67946" lon="12.29824">
        <ele>1611.79</ele>
        <time>2017-02-27T08:45:29Z</time>
      </trkpt>
      <trkpt lat="46.67937" lon="12.29816">
        <ele>1611.79</ele>
        <time>2017-02-27T08:45:40Z</time>
      </trkpt>
      <trkpt lat="46.67928" lon="12.29807">
        <ele>1612.75</ele>
        <time>2017-02-27T08:45:53Z</time>
      </trkpt>
      <trkpt lat="46.67918" lon="12.29801">
        <ele>1612.75</ele>
        <time>2017-02-27T08:46:05Z</time>
      </trkpt>
      <trkpt lat="46.67908" lon="12.29796">
        <ele>1615.15</ele>
        <time>2017-02-27T08:46:19Z</time>
      </trkpt>
      <trkpt lat="46.679" lon="12.2979">
        <ele>1616.59</ele>
        <time>2017-02-27T08:46:33Z</time>
      </trkpt>
      <trkpt lat="46.6789" lon="12.29785">
        <ele>1618.04</ele>
        <time>2017-02-27T08:46:45Z</time>
      </trkpt>
      <trkpt lat="46.67881" lon="12.29781">
        <ele>1619.48</ele>
        <time>2017-02-27T08:46:57Z</time>
      </trkpt>
      <trkpt lat="46.67878" lon="12.2978">
        <ele>1619.96</ele>
        <time>2017-02-27T08:47:01Z</time>
      </trkpt>
      <trkpt lat="46.6787" lon="12.29775">
        <ele>1620.44</ele>
        <time>2017-02-27T08:47:14Z</time>
      </trkpt>
      <trkpt lat="46.67863" lon="12.29773">
        <ele>1621.88</ele>
        <time>2017-02-27T08:47:26Z</time>
      </trkpt>
      <trkpt lat="46.67854" lon="12.29766">
        <ele>1623.32</ele>
        <time>2017-02-27T08:47:40Z</time>
      </trkpt>
      <trkpt lat="46.6785" lon="12.29763">
        <ele>1624.28</ele>
        <time>2017-02-27T08:47:46Z</time>
      </trkpt>
      <trkpt lat="46.67848" lon="12.2976">
        <ele>1624.77</ele>
        <time>2017-02-27T08:47:51Z</time>
      </trkpt>
      <trkpt lat="46.67843" lon="12.29758">
        <ele>1625.73</ele>
        <time>2017-02-27T08:47:57Z</time>
      </trkpt>
      <trkpt lat="46.67837" lon="12.29754">
        <ele>1626.69</ele>
        <time>2017-02-27T08:48:07Z</time>
      </trkpt>
      <trkpt lat="46.67829" lon="12.2975">
        <ele>1628.13</ele>
        <time>2017-02-27T08:48:18Z</time>
      </trkpt>
      <trkpt lat="46.67828" lon="12.29748">
        <ele>1628.13</ele>
        <time>2017-02-27T08:48:21Z</time>
      </trkpt>
      <trkpt lat="46.67822" lon="12.29742">
        <ele>1630.05</ele>
        <time>2017-02-27T08:48:31Z</time>
      </trkpt>
      <trkpt lat="46.67818" lon="12.29739">
        <ele>1630.05</ele>
        <time>2017-02-27T08:48:38Z</time>
      </trkpt>
      <trkpt lat="46.67815" lon="12.29736">
        <ele>1630.53</ele>
        <time>2017-02-27T08:48:42Z</time>
      </trkpt>
      <trkpt lat="46.67811" lon="12.29731">
        <ele>1631.49</ele>
        <time>2017-02-27T08:48:51Z</time>
      </trkpt>
      <trkpt lat="46.67805" lon="12.29731">
        <ele>1631.98</ele>
        <time>2017-02-27T08:49:08Z</time>
      </trkpt>
      <trkpt lat="46.67797" lon="12.2973">
        <ele>1632.94</ele>
        <time>2017-02-27T08:49:21Z</time>
      </trkpt>
      <trkpt lat="46.67788" lon="12.29728">
        <ele>1633.9</ele>
        <time>2017-02-27T08:49:32Z</time>
      </trkpt>
      <trkpt lat="46.67779" lon="12.29725">
        <ele>1633.9</ele>
        <time>2017-02-27T08:49:42Z</time>
      </trkpt>
      <trkpt lat="46.67767" lon="12.29722">
        <ele>1634.38</ele>
        <time>2017-02-27T08:49:56Z</time>
      </trkpt>
      <trkpt lat="46.6776" lon="12.29719">
        <ele>1634.86</ele>
        <time>2017-02-27T08:50:08Z</time>
      </trkpt>
      <trkpt lat="46.67755" lon="12.29715">
        <ele>1634.86</ele>
        <time>2017-02-27T08:50:20Z</time>
      </trkpt>
      <trkpt lat="46.67753" lon="12.29713">
        <ele>1634.38</ele>
        <time>2017-02-27T08:50:36Z</time>
      </trkpt>
      <trkpt lat="46.67751" lon="12.29715">
        <ele>1634.38</ele>
        <time>2017-02-27T08:50:49Z</time>
      </trkpt>
      <trkpt lat="46.67753" lon="12.29717">
        <ele>1634.86</ele>
        <time>2017-02-27T08:50:53Z</time>
      </trkpt>
      <trkpt lat="46.67754" lon="12.29717">
        <ele>1634.38</ele>
        <time>2017-02-27T08:51:06Z</time>
      </trkpt>
      <trkpt lat="46.67753" lon="12.29714">
        <ele>1634.38</ele>
        <time>2017-02-27T08:51:18Z</time>
      </trkpt>
      <trkpt lat="46.67748" lon="12.29711">
        <ele>1634.38</ele>
        <time>2017-02-27T08:51:21Z</time>
      </trkpt>
      <trkpt lat="46.67746" lon="12.29711">
        <ele>1634.38</ele>
        <time>2017-02-27T08:51:23Z</time>
      </trkpt>
      <trkpt lat="46.67735" lon="12.29706">
        <ele>1634.38</ele>
        <time>2017-02-27T08:51:36Z</time>
      </trkpt>
      <trkpt lat="46.67724" lon="12.29702">
        <ele>1633.9</ele>
        <time>2017-02-27T08:51:47Z</time>
      </trkpt>
      <trkpt lat="46.67714" lon="12.29698">
        <ele>1633.9</ele>
        <time>2017-02-27T08:51:57Z</time>
      </trkpt>
      <trkpt lat="46.67705" lon="12.29689">
        <ele>1634.86</ele>
        <time>2017-02-27T08:52:09Z</time>
      </trkpt>
      <trkpt lat="46.67695" lon="12.29683">
        <ele>1635.82</ele>
        <time>2017-02-27T08:52:22Z</time>
      </trkpt>
      <trkpt lat="46.6769" lon="12.2968">
        <ele>1636.3</ele>
        <time>2017-02-27T08:52:33Z</time>
      </trkpt>
      <trkpt lat="46.67682" lon="12.29678">
        <ele>1635.82</ele>
        <time>2017-02-27T08:52:45Z</time>
      </trkpt>
      <trkpt lat="46.67671" lon="12.29686">
        <ele>1635.82</ele>
        <time>2017-02-27T08:52:57Z</time>
      </trkpt>
      <trkpt lat="46.67659" lon="12.2969">
        <ele>1635.82</ele>
        <time>2017-02-27T08:53:09Z</time>
      </trkpt>
      <trkpt lat="46.67648" lon="12.29692">
        <ele>1635.82</ele>
        <time>2017-02-27T08:53:22Z</time>
      </trkpt>
      <trkpt lat="46.67647" lon="12.29692">
        <ele>1635.82</ele>
        <time>2017-02-27T08:53:24Z</time>
      </trkpt>
      <trkpt lat="46.67642" lon="12.29697">
        <ele>1635.82</ele>
        <time>2017-02-27T08:53:37Z</time>
      </trkpt>
      <trkpt lat="46.6764" lon="12.29696">
        <ele>1635.34</ele>
        <time>2017-02-27T08:53:39Z</time>
      </trkpt>
      <trkpt lat="46.67635" lon="12.29692">
        <ele>1635.82</ele>
        <time>2017-02-27T08:53:44Z</time>
      </trkpt>
      <trkpt lat="46.67624" lon="12.29687">
        <ele>1635.82</ele>
        <time>2017-02-27T08:53:56Z</time>
      </trkpt>
      <trkpt lat="46.67622" lon="12.29686">
        <ele>1635.34</ele>
        <time>2017-02-27T08:53:59Z</time>
      </trkpt>
      <trkpt lat="46.67619" lon="12.29685">
        <ele>1635.82</ele>
        <time>2017-02-27T08:54:03Z</time>
      </trkpt>
      <trkpt lat="46.67611" lon="12.29682">
        <ele>1635.82</ele>
        <time>2017-02-27T08:54:11Z</time>
      </trkpt>
      <trkpt lat="46.67596" lon="12.29676">
        <ele>1635.82</ele>
        <time>2017-02-27T08:54:25Z</time>
      </trkpt>
      <trkpt lat="46.67587" lon="12.29673">
        <ele>1635.82</ele>
        <time>2017-02-27T08:54:38Z</time>
      </trkpt>
      <trkpt lat="46.67578" lon="12.2967">
        <ele>1635.82</ele>
        <time>2017-02-27T08:54:50Z</time>
      </trkpt>
      <trkpt lat="46.67566" lon="12.29667">
        <ele>1635.82</ele>
        <time>2017-02-27T08:55:03Z</time>
      </trkpt>
      <trkpt lat="46.67562" lon="12.29666">
        <ele>1635.82</ele>
        <time>2017-02-27T08:55:08Z</time>
      </trkpt>
      <trkpt lat="46.67553" lon="12.29664">
        <ele>1635.82</ele>
        <time>2017-02-27T08:55:18Z</time>
      </trkpt>
      <trkpt lat="46.6755" lon="12.29663">
        <ele>1635.82</ele>
        <time>2017-02-27T08:55:22Z</time>
      </trkpt>
      <trkpt lat="46.67539" lon="12.29662">
        <ele>1635.82</ele>
        <time>2017-02-27T08:55:34Z</time>
      </trkpt>
      <trkpt lat="46.67529" lon="12.2966">
        <ele>1636.3</ele>
        <time>2017-02-27T08:55:46Z</time>
      </trkpt>
      <trkpt lat="46.67522" lon="12.29661">
        <ele>1636.3</ele>
        <time>2017-02-27T08:55:57Z</time>
      </trkpt>
      <trkpt lat="46.67517" lon="12.29663">
        <ele>1636.3</ele>
        <time>2017-02-27T08:56:03Z</time>
      </trkpt>
      <trkpt lat="46.67506" lon="12.29664">
        <ele>1636.3</ele>
        <time>2017-02-27T08:56:18Z</time>
      </trkpt>
      <trkpt lat="46.67499" lon="12.29663">
        <ele>1636.3</ele>
        <time>2017-02-27T08:56:29Z</time>
      </trkpt>
      <trkpt lat="46.67491" lon="12.29665">
        <ele>1636.3</ele>
        <time>2017-02-27T08:56:43Z</time>
      </trkpt>
      <trkpt lat="46.67484" lon="12.29664">
        <ele>1636.3</ele>
        <time>2017-02-27T08:56:54Z</time>
      </trkpt>
      <trkpt lat="46.67476" lon="12.29665">
        <ele>1636.3</ele>
        <time>2017-02-27T08:57:05Z</time>
      </trkpt>
      <trkpt lat="46.67467" lon="12.29665">
        <ele>1636.78</ele>
        <time>2017-02-27T08:57:19Z</time>
      </trkpt>
      <trkpt lat="46.67458" lon="12.29664">
        <ele>1636.78</ele>
        <time>2017-02-27T08:57:32Z</time>
      </trkpt>
      <trkpt lat="46.67447" lon="12.29664">
        <ele>1636.78</ele>
        <time>2017-02-27T08:57:46Z</time>
      </trkpt>
      <trkpt lat="46.67439" lon="12.29665">
        <ele>1637.26</ele>
        <time>2017-02-27T08:58:01Z</time>
      </trkpt>
      <trkpt lat="46.6743" lon="12.29669">
        <ele>1636.78</ele>
        <time>2017-02-27T08:58:14Z</time>
      </trkpt>
      <trkpt lat="46.67425" lon="12.29669">
        <ele>1636.78</ele>
        <time>2017-02-27T08:58:31Z</time>
      </trkpt>
      <trkpt lat="46.67424" lon="12.29671">
        <ele>1636.78</ele>
        <time>2017-02-27T08:58:51Z</time>
      </trkpt>
      <trkpt lat="46.67421" lon="12.29674">
        <ele>1636.78</ele>
        <time>2017-02-27T08:59:03Z</time>
      </trkpt>
      <trkpt lat="46.67416" lon="12.29679">
        <ele>1636.78</ele>
        <time>2017-02-27T08:59:16Z</time>
      </trkpt>
      <trkpt lat="46.67412" lon="12.29686">
        <ele>1636.78</ele>
        <time>2017-02-27T08:59:30Z</time>
      </trkpt>
      <trkpt lat="46.67404" lon="12.29694">
        <ele>1636.78</ele>
        <time>2017-02-27T08:59:43Z</time>
      </trkpt>
      <trkpt lat="46.67395" lon="12.297">
        <ele>1636.3</ele>
        <time>2017-02-27T08:59:56Z</time>
      </trkpt>
      <trkpt lat="46.67396" lon="12.29703">
        <ele>1636.78</ele>
        <time>2017-02-27T09:00:10Z</time>
      </trkpt>
      <trkpt lat="46.674" lon="12.29699">
        <ele>1636.78</ele>
        <time>2017-02-27T09:00:19Z</time>
      </trkpt>
      <trkpt lat="46.67414" lon="12.29687">
        <ele>1636.3</ele>
        <time>2017-02-27T09:00:36Z</time>
      </trkpt>
      <trkpt lat="46.67425" lon="12.29674">
        <ele>1636.3</ele>
        <time>2017-02-27T09:00:50Z</time>
      </trkpt>
      <trkpt lat="46.67426" lon="12.29663">
        <ele>1636.3</ele>
        <time>2017-02-27T09:01:03Z</time>
      </trkpt>
      <trkpt lat="46.67421" lon="12.29657">
        <ele>1636.3</ele>
        <time>2017-02-27T09:01:11Z</time>
      </trkpt>
      <trkpt lat="46.67415" lon="12.29646">
        <ele>1636.3</ele>
        <time>2017-02-27T09:01:23Z</time>
      </trkpt>
      <trkpt lat="46.67405" lon="12.29631">
        <ele>1636.3</ele>
        <time>2017-02-27T09:01:36Z</time>
      </trkpt>
      <trkpt lat="46.67398" lon="12.29619">
        <ele>1636.3</ele>
        <time>2017-02-27T09:01:46Z</time>
      </trkpt>
      <trkpt lat="46.6739" lon="12.29604">
        <ele>1636.78</ele>
        <time>2017-02-27T09:01:58Z</time>
      </trkpt>
      <trkpt lat="46.67389" lon="12.296">
        <ele>1636.3</ele>
        <time>2017-02-27T09:02:01Z</time>
      </trkpt>
      <trkpt lat="46.67385" lon="12.29588">
        <ele>1636.78</ele>
        <time>2017-02-27T09:02:11Z</time>
      </trkpt>
      <trkpt lat="46.67384" lon="12.29587">
        <ele>1636.78</ele>
        <time>2017-02-27T09:02:12Z</time>
      </trkpt>
      <trkpt lat="46.67378" lon="12.29575">
        <ele>1637.26</ele>
        <time>2017-02-27T09:02:24Z</time>
      </trkpt>
      <trkpt lat="46.67369" lon="12.29557">
        <ele>1637.26</ele>
        <time>2017-02-27T09:02:37Z</time>
      </trkpt>
      <trkpt lat="46.67365" lon="12.29551">
        <ele>1637.74</ele>
        <time>2017-02-27T09:02:43Z</time>
      </trkpt>
      <trkpt lat="46.67362" lon="12.29538">
        <ele>1637.74</ele>
        <time>2017-02-27T09:02:52Z</time>
      </trkpt>
      <trkpt lat="46.67362" lon="12.29534">
        <ele>1637.74</ele>
        <time>2017-02-27T09:02:55Z</time>
      </trkpt>
      <trkpt lat="46.67356" lon="12.2952">
        <ele>1638.22</ele>
        <time>2017-02-27T09:03:06Z</time>
      </trkpt>
      <trkpt lat="46.67346" lon="12.29504">
        <ele>1638.7</ele>
        <time>2017-02-27T09:03:23Z</time>
      </trkpt>
      <trkpt lat="46.67343" lon="12.29484">
        <ele>1639.19</ele>
        <time>2017-02-27T09:03:36Z</time>
      </trkpt>
      <trkpt lat="46.67337" lon="12.29482">
        <ele>1639.19</ele>
        <time>2017-02-27T09:03:40Z</time>
      </trkpt>
      <trkpt lat="46.67329" lon="12.29469">
        <ele>1639.67</ele>
        <time>2017-02-27T09:03:50Z</time>
      </trkpt>
      <trkpt lat="46.67325" lon="12.29465">
        <ele>1639.67</ele>
        <time>2017-02-27T09:03:54Z</time>
      </trkpt>
      <trkpt lat="46.67324" lon="12.29462">
        <ele>1639.67</ele>
        <time>2017-02-27T09:03:56Z</time>
      </trkpt>
      <trkpt lat="46.67321" lon="12.29451">
        <ele>1640.15</ele>
        <time>2017-02-27T09:04:03Z</time>
      </trkpt>
      <trkpt lat="46.67311" lon="12.29436">
        <ele>1640.15</ele>
        <time>2017-02-27T09:04:16Z</time>
      </trkpt>
      <trkpt lat="46.67307" lon="12.29431">
        <ele>1640.63</ele>
        <time>2017-02-27T09:04:21Z</time>
      </trkpt>
      <trkpt lat="46.67302" lon="12.29417">
        <ele>1640.63</ele>
        <time>2017-02-27T09:04:32Z</time>
      </trkpt>
      <trkpt lat="46.67293" lon="12.29408">
        <ele>1641.11</ele>
        <time>2017-02-27T09:04:43Z</time>
      </trkpt>
      <trkpt lat="46.67284" lon="12.29403">
        <ele>1641.59</ele>
        <time>2017-02-27T09:04:52Z</time>
      </trkpt>
      <trkpt lat="46.6728" lon="12.29404">
        <ele>1641.59</ele>
        <time>2017-02-27T09:04:55Z</time>
      </trkpt>
      <trkpt lat="46.6727" lon="12.29393">
        <ele>1642.07</ele>
        <time>2017-02-27T09:05:07Z</time>
      </trkpt>
      <trkpt lat="46.67259" lon="12.2939">
        <ele>1642.55</ele>
        <time>2017-02-27T09:05:17Z</time>
      </trkpt>
      <trkpt lat="46.67244" lon="12.29391">
        <ele>1643.03</ele>
        <time>2017-02-27T09:05:30Z</time>
      </trkpt>
      <trkpt lat="46.67235" lon="12.29387">
        <ele>1643.51</ele>
        <time>2017-02-27T09:05:40Z</time>
      </trkpt>
      <trkpt lat="46.67232" lon="12.29386">
        <ele>1643.51</ele>
        <time>2017-02-27T09:05:43Z</time>
      </trkpt>
      <trkpt lat="46.67219" lon="12.29388">
        <ele>1643.99</ele>
        <time>2017-02-27T09:05:53Z</time>
      </trkpt>
      <trkpt lat="46.6721" lon="12.29378">
        <ele>1644.95</ele>
        <time>2017-02-27T09:06:04Z</time>
      </trkpt>
      <trkpt lat="46.67204" lon="12.29371">
        <ele>1645.43</ele>
        <time>2017-02-27T09:06:13Z</time>
      </trkpt>
      <trkpt lat="46.67201" lon="12.29367">
        <ele>1645.43</ele>
        <time>2017-02-27T09:06:18Z</time>
      </trkpt>
      <trkpt lat="46.67189" lon="12.29363">
        <ele>1645.91</ele>
        <time>2017-02-27T09:06:30Z</time>
      </trkpt>
      <trkpt lat="46.67187" lon="12.29363">
        <ele>1646.4</ele>
        <time>2017-02-27T09:06:32Z</time>
      </trkpt>
      <trkpt lat="46.67179" lon="12.29357">
        <ele>1646.4</ele>
        <time>2017-02-27T09:06:40Z</time>
      </trkpt>
      <trkpt lat="46.67175" lon="12.29353">
        <ele>1646.88</ele>
        <time>2017-02-27T09:06:46Z</time>
      </trkpt>
      <trkpt lat="46.67168" lon="12.2935">
        <ele>1647.36</ele>
        <time>2017-02-27T09:06:53Z</time>
      </trkpt>
      <trkpt lat="46.67163" lon="12.29347">
        <ele>1647.36</ele>
        <time>2017-02-27T09:06:59Z</time>
      </trkpt>
      <trkpt lat="46.67158" lon="12.29345">
        <ele>1647.36</ele>
        <time>2017-02-27T09:07:04Z</time>
      </trkpt>
      <trkpt lat="46.67154" lon="12.29343">
        <ele>1647.84</ele>
        <time>2017-02-27T09:07:08Z</time>
      </trkpt>
      <trkpt lat="46.67151" lon="12.29341">
        <ele>1648.32</ele>
        <time>2017-02-27T09:07:12Z</time>
      </trkpt>
      <trkpt lat="46.67148" lon="12.2934">
        <ele>1648.8</ele>
        <time>2017-02-27T09:07:15Z</time>
      </trkpt>
      <trkpt lat="46.67148" lon="12.29336">
        <ele>1648.8</ele>
        <time>2017-02-27T09:07:18Z</time>
      </trkpt>
      <trkpt lat="46.67146" lon="12.29335">
        <ele>1649.28</ele>
        <time>2017-02-27T09:07:20Z</time>
      </trkpt>
      <trkpt lat="46.67136" lon="12.29339">
        <ele>1649.28</ele>
        <time>2017-02-27T09:07:31Z</time>
      </trkpt>
      <trkpt lat="46.6713" lon="12.29342">
        <ele>1649.76</ele>
        <time>2017-02-27T09:07:38Z</time>
      </trkpt>
      <trkpt lat="46.67118" lon="12.29359">
        <ele>1649.76</ele>
        <time>2017-02-27T09:07:49Z</time>
      </trkpt>
      <trkpt lat="46.67104" lon="12.29369">
        <ele>1649.76</ele>
        <time>2017-02-27T09:08:02Z</time>
      </trkpt>
      <trkpt lat="46.671" lon="12.2937">
        <ele>1650.24</ele>
        <time>2017-02-27T09:08:07Z</time>
      </trkpt>
      <trkpt lat="46.67087" lon="12.29369">
        <ele>1651.2</ele>
        <time>2017-02-27T09:08:21Z</time>
      </trkpt>
      <trkpt lat="46.67078" lon="12.29367">
        <ele>1651.68</ele>
        <time>2017-02-27T09:08:32Z</time>
      </trkpt>
      <trkpt lat="46.67066" lon="12.29366">
        <ele>1652.64</ele>
        <time>2017-02-27T09:08:44Z</time>
      </trkpt>
      <trkpt lat="46.67054" lon="12.29367">
        <ele>1652.64</ele>
        <time>2017-02-27T09:08:56Z</time>
      </trkpt>
      <trkpt lat="46.6705" lon="12.29367">
        <ele>1652.64</ele>
        <time>2017-02-27T09:09:00Z</time>
      </trkpt>
      <trkpt lat="46.67039" lon="12.29366">
        <ele>1654.09</ele>
        <time>2017-02-27T09:09:14Z</time>
      </trkpt>
      <trkpt lat="46.67035" lon="12.29365">
        <ele>1654.57</ele>
        <time>2017-02-27T09:09:24Z</time>
      </trkpt>
      <trkpt lat="46.67021" lon="12.29359">
        <ele>1655.05</ele>
        <time>2017-02-27T09:09:38Z</time>
      </trkpt>
      <trkpt lat="46.67012" lon="12.29358">
        <ele>1655.53</ele>
        <time>2017-02-27T09:09:50Z</time>
      </trkpt>
      <trkpt lat="46.67009" lon="12.29357">
        <ele>1655.53</ele>
        <time>2017-02-27T09:10:03Z</time>
      </trkpt>
      <trkpt lat="46.67009" lon="12.29356">
        <ele>1655.05</ele>
        <time>2017-02-27T09:10:05Z</time>
      </trkpt>
      <trkpt lat="46.67003" lon="12.29354">
        <ele>1654.57</ele>
        <time>2017-02-27T09:10:09Z</time>
      </trkpt>
      <trkpt lat="46.66988" lon="12.2935">
        <ele>1655.05</ele>
        <time>2017-02-27T09:10:24Z</time>
      </trkpt>
      <trkpt lat="46.6698" lon="12.29348">
        <ele>1655.53</ele>
        <time>2017-02-27T09:10:32Z</time>
      </trkpt>
      <trkpt lat="46.66977" lon="12.29347">
        <ele>1655.53</ele>
        <time>2017-02-27T09:10:35Z</time>
      </trkpt>
      <trkpt lat="46.66963" lon="12.29343">
        <ele>1656.01</ele>
        <time>2017-02-27T09:10:48Z</time>
      </trkpt>
      <trkpt lat="46.66951" lon="12.29334">
        <ele>1656.97</ele>
        <time>2017-02-27T09:11:03Z</time>
      </trkpt>
      <trkpt lat="46.66944" lon="12.29332">
        <ele>1657.45</ele>
        <time>2017-02-27T09:11:09Z</time>
      </trkpt>
      <trkpt lat="46.66936" lon="12.29328">
        <ele>1657.45</ele>
        <time>2017-02-27T09:11:19Z</time>
      </trkpt>
      <trkpt lat="46.66932" lon="12.29327">
        <ele>1657.45</ele>
        <time>2017-02-27T09:11:22Z</time>
      </trkpt>
      <trkpt lat="46.66919" lon="12.29317">
        <ele>1657.93</ele>
        <time>2017-02-27T09:11:37Z</time>
      </trkpt>
      <trkpt lat="46.66918" lon="12.29315">
        <ele>1658.41</ele>
        <time>2017-02-27T09:11:39Z</time>
      </trkpt>
      <trkpt lat="46.66912" lon="12.2931">
        <ele>1658.89</ele>
        <time>2017-02-27T09:11:47Z</time>
      </trkpt>
      <trkpt lat="46.66911" lon="12.29309">
        <ele>1658.89</ele>
        <time>2017-02-27T09:11:49Z</time>
      </trkpt>
      <trkpt lat="46.66906" lon="12.29308">
        <ele>1658.89</ele>
        <time>2017-02-27T09:11:53Z</time>
      </trkpt>
      <trkpt lat="46.66899" lon="12.29302">
        <ele>1659.37</ele>
        <time>2017-02-27T09:12:06Z</time>
      </trkpt>
      <trkpt lat="46.66897" lon="12.29301">
        <ele>1659.37</ele>
        <time>2017-02-27T09:12:12Z</time>
      </trkpt>
      <trkpt lat="46.66897" lon="12.29299">
        <ele>1659.37</ele>
        <time>2017-02-27T09:12:15Z</time>
      </trkpt>
      <trkpt lat="46.66887" lon="12.29292">
        <ele>1659.85</ele>
        <time>2017-02-27T09:12:27Z</time>
      </trkpt>
      <trkpt lat="46.66878" lon="12.29288">
        <ele>1660.33</ele>
        <time>2017-02-27T09:12:40Z</time>
      </trkpt>
      <trkpt lat="46.6687" lon="12.2929">
        <ele>1661.3</ele>
        <time>2017-02-27T09:12:52Z</time>
      </trkpt>
      <trkpt lat="46.66857" lon="12.29295">
        <ele>1661.78</ele>
        <time>2017-02-27T09:13:06Z</time>
      </trkpt>
      <trkpt lat="46.66851" lon="12.29298">
        <ele>1662.74</ele>
        <time>2017-02-27T09:13:14Z</time>
      </trkpt>
      <trkpt lat="46.66841" lon="12.29305">
        <ele>1663.22</ele>
        <time>2017-02-27T09:13:25Z</time>
      </trkpt>
      <trkpt lat="46.66831" lon="12.29311">
        <ele>1664.18</ele>
        <time>2017-02-27T09:13:38Z</time>
      </trkpt>
      <trkpt lat="46.66827" lon="12.29311">
        <ele>1664.66</ele>
        <time>2017-02-27T09:13:43Z</time>
      </trkpt>
      <trkpt lat="46.66816" lon="12.29313">
        <ele>1665.14</ele>
        <time>2017-02-27T09:13:55Z</time>
      </trkpt>
      <trkpt lat="46.66806" lon="12.29318">
        <ele>1666.1</ele>
        <time>2017-02-27T09:14:07Z</time>
      </trkpt>
      <trkpt lat="46.66804" lon="12.29318">
        <ele>1665.62</ele>
        <time>2017-02-27T09:14:10Z</time>
      </trkpt>
      <trkpt lat="46.66802" lon="12.29319">
        <ele>1666.1</ele>
        <time>2017-02-27T09:14:12Z</time>
      </trkpt>
      <trkpt lat="46.66789" lon="12.29316">
        <ele>1666.58</ele>
        <time>2017-02-27T09:14:26Z</time>
      </trkpt>
      <trkpt lat="46.6678" lon="12.29313">
        <ele>1667.06</ele>
        <time>2017-02-27T09:14:37Z</time>
      </trkpt>
      <trkpt lat="46.66774" lon="12.29313">
        <ele>1667.54</ele>
        <time>2017-02-27T09:14:43Z</time>
      </trkpt>
      <trkpt lat="46.66771" lon="12.29314">
        <ele>1667.54</ele>
        <time>2017-02-27T09:14:46Z</time>
      </trkpt>
      <trkpt lat="46.6676" lon="12.29313">
        <ele>1668.51</ele>
        <time>2017-02-27T09:14:57Z</time>
      </trkpt>
      <trkpt lat="46.66752" lon="12.29313">
        <ele>1668.99</ele>
        <time>2017-02-27T09:15:07Z</time>
      </trkpt>
      <trkpt lat="46.66745" lon="12.29312">
        <ele>1668.99</ele>
        <time>2017-02-27T09:15:12Z</time>
      </trkpt>
      <trkpt lat="46.66735" lon="12.2931">
        <ele>1669.47</ele>
        <time>2017-02-27T09:15:25Z</time>
      </trkpt>
      <trkpt lat="46.66728" lon="12.29311">
        <ele>1669.95</ele>
        <time>2017-02-27T09:15:32Z</time>
      </trkpt>
      <trkpt lat="46.66724" lon="12.2931">
        <ele>1669.95</ele>
        <time>2017-02-27T09:15:36Z</time>
      </trkpt>
      <trkpt lat="46.66714" lon="12.29311">
        <ele>1670.43</ele>
        <time>2017-02-27T09:15:45Z</time>
      </trkpt>
      <trkpt lat="46.66711" lon="12.2931">
        <ele>1670.43</ele>
        <time>2017-02-27T09:15:49Z</time>
      </trkpt>
      <trkpt lat="46.66706" lon="12.2931">
        <ele>1670.91</ele>
        <time>2017-02-27T09:15:54Z</time>
      </trkpt>
      <trkpt lat="46.66702" lon="12.2931">
        <ele>1670.91</ele>
        <time>2017-02-27T09:15:58Z</time>
      </trkpt>
      <trkpt lat="46.66688" lon="12.29308">
        <ele>1671.87</ele>
        <time>2017-02-27T09:16:12Z</time>
      </trkpt>
      <trkpt lat="46.66687" lon="12.29307">
        <ele>1671.87</ele>
        <time>2017-02-27T09:16:14Z</time>
      </trkpt>
      <trkpt lat="46.66681" lon="12.29308">
        <ele>1671.87</ele>
        <time>2017-02-27T09:16:20Z</time>
      </trkpt>
      <trkpt lat="46.66669" lon="12.2931">
        <ele>1672.35</ele>
        <time>2017-02-27T09:16:31Z</time>
      </trkpt>
      <trkpt lat="46.66658" lon="12.29317">
        <ele>1672.83</ele>
        <time>2017-02-27T09:16:43Z</time>
      </trkpt>
      <trkpt lat="46.66646" lon="12.29322">
        <ele>1673.31</ele>
        <time>2017-02-27T09:16:56Z</time>
      </trkpt>
      <trkpt lat="46.66636" lon="12.29322">
        <ele>1674.27</ele>
        <time>2017-02-27T09:17:07Z</time>
      </trkpt>
      <trkpt lat="46.66633" lon="12.29324">
        <ele>1674.27</ele>
        <time>2017-02-27T09:17:12Z</time>
      </trkpt>
      <trkpt lat="46.66628" lon="12.29328">
        <ele>1674.75</ele>
        <time>2017-02-27T09:17:17Z</time>
      </trkpt>
      <trkpt lat="46.66617" lon="12.29334">
        <ele>1675.72</ele>
        <time>2017-02-27T09:17:30Z</time>
      </trkpt>
      <trkpt lat="46.6661" lon="12.29337">
        <ele>1675.72</ele>
        <time>2017-02-27T09:17:38Z</time>
      </trkpt>
      <trkpt lat="46.66602" lon="12.29339">
        <ele>1676.2</ele>
        <time>2017-02-27T09:17:46Z</time>
      </trkpt>
      <trkpt lat="46.66595" lon="12.29338">
        <ele>1676.68</ele>
        <time>2017-02-27T09:17:54Z</time>
      </trkpt>
      <trkpt lat="46.66582" lon="12.29336">
        <ele>1677.64</ele>
        <time>2017-02-27T09:18:07Z</time>
      </trkpt>
      <trkpt lat="46.66572" lon="12.29339">
        <ele>1678.6</ele>
        <time>2017-02-27T09:18:21Z</time>
      </trkpt>
      <trkpt lat="46.66558" lon="12.29334">
        <ele>1679.08</ele>
        <time>2017-02-27T09:18:36Z</time>
      </trkpt>
      <trkpt lat="46.66548" lon="12.2933">
        <ele>1680.04</ele>
        <time>2017-02-27T09:18:48Z</time>
      </trkpt>
      <trkpt lat="46.66538" lon="12.29327">
        <ele>1680.52</ele>
        <time>2017-02-27T09:19:01Z</time>
      </trkpt>
      <trkpt lat="46.66529" lon="12.29324">
        <ele>1681.48</ele>
        <time>2017-02-27T09:19:13Z</time>
      </trkpt>
      <trkpt lat="46.66516" lon="12.2932">
        <ele>1681.96</ele>
        <time>2017-02-27T09:19:28Z</time>
      </trkpt>
      <trkpt lat="46.66505" lon="12.2932">
        <ele>1682.93</ele>
        <time>2017-02-27T09:19:41Z</time>
      </trkpt>
      <trkpt lat="46.66494" lon="12.29319">
        <ele>1683.89</ele>
        <time>2017-02-27T09:19:53Z</time>
      </trkpt>
      <trkpt lat="46.66488" lon="12.29321">
        <ele>1683.89</ele>
        <time>2017-02-27T09:20:05Z</time>
      </trkpt>
      <trkpt lat="46.66481" lon="12.29319">
        <ele>1684.37</ele>
        <time>2017-02-27T09:20:15Z</time>
      </trkpt>
      <trkpt lat="46.66472" lon="12.29316">
        <ele>1684.85</ele>
        <time>2017-02-27T09:20:28Z</time>
      </trkpt>
      <trkpt lat="46.66464" lon="12.29315">
        <ele>1685.81</ele>
        <time>2017-02-27T09:20:39Z</time>
      </trkpt>
      <trkpt lat="46.66456" lon="12.29316">
        <ele>1686.29</ele>
        <time>2017-02-27T09:20:50Z</time>
      </trkpt>
      <trkpt lat="46.66444" lon="12.29317">
        <ele>1686.77</ele>
        <time>2017-02-27T09:21:02Z</time>
      </trkpt>
      <trkpt lat="46.66436" lon="12.29317">
        <ele>1687.25</ele>
        <time>2017-02-27T09:21:14Z</time>
      </trkpt>
      <trkpt lat="46.66426" lon="12.29319">
        <ele>1688.21</ele>
        <time>2017-02-27T09:21:26Z</time>
      </trkpt>
      <trkpt lat="46.66421" lon="12.2932">
        <ele>1688.21</ele>
        <time>2017-02-27T09:21:30Z</time>
      </trkpt>
      <trkpt lat="46.66411" lon="12.29321">
        <ele>1688.69</ele>
        <time>2017-02-27T09:21:41Z</time>
      </trkpt>
      <trkpt lat="46.66401" lon="12.29322">
        <ele>1689.17</ele>
        <time>2017-02-27T09:21:54Z</time>
      </trkpt>
      <trkpt lat="46.66389" lon="12.29324">
        <ele>1690.14</ele>
        <time>2017-02-27T09:22:07Z</time>
      </trkpt>
      <trkpt lat="46.6638" lon="12.29327">
        <ele>1691.1</ele>
        <time>2017-02-27T09:22:18Z</time>
      </trkpt>
      <trkpt lat="46.66371" lon="12.29328">
        <ele>1691.58</ele>
        <time>2017-02-27T09:22:28Z</time>
      </trkpt>
      <trkpt lat="46.66361" lon="12.29324">
        <ele>1692.54</ele>
        <time>2017-02-27T09:22:41Z</time>
      </trkpt>
      <trkpt lat="46.66356" lon="12.29322">
        <ele>1692.54</ele>
        <time>2017-02-27T09:22:56Z</time>
      </trkpt>
      <trkpt lat="46.66355" lon="12.2932">
        <ele>1692.54</ele>
        <time>2017-02-27T09:23:10Z</time>
      </trkpt>
      <trkpt lat="46.66355" lon="12.29319">
        <ele>1693.02</ele>
        <time>2017-02-27T09:23:24Z</time>
      </trkpt>
      <trkpt lat="46.66349" lon="12.29322">
        <ele>1693.5</ele>
        <time>2017-02-27T09:23:35Z</time>
      </trkpt>
      <trkpt lat="46.66349" lon="12.29322">
        <ele>1693.5</ele>
        <time>2017-02-27T09:23:36Z</time>
      </trkpt>
      <trkpt lat="46.66347" lon="12.29323">
        <ele>1693.5</ele>
        <time>2017-02-27T09:23:39Z</time>
      </trkpt>
      <trkpt lat="46.66334" lon="12.29325">
        <ele>1694.46</ele>
        <time>2017-02-27T09:23:51Z</time>
      </trkpt>
      <trkpt lat="46.66322" lon="12.29324">
        <ele>1694.94</ele>
        <time>2017-02-27T09:24:05Z</time>
      </trkpt>
      <trkpt lat="46.66311" lon="12.29325">
        <ele>1695.9</ele>
        <time>2017-02-27T09:24:20Z</time>
      </trkpt>
      <trkpt lat="46.66298" lon="12.29325">
        <ele>1696.38</ele>
        <time>2017-02-27T09:24:35Z</time>
      </trkpt>
      <trkpt lat="46.66287" lon="12.29327">
        <ele>1696.86</ele>
        <time>2017-02-27T09:24:47Z</time>
      </trkpt>
      <trkpt lat="46.66276" lon="12.29327">
        <ele>1697.83</ele>
        <time>2017-02-27T09:25:00Z</time>
      </trkpt>
      <trkpt lat="46.6627" lon="12.29327">
        <ele>1698.31</ele>
        <time>2017-02-27T09:25:07Z</time>
      </trkpt>
      <trkpt lat="46.66257" lon="12.29329">
        <ele>1699.27</ele>
        <time>2017-02-27T09:25:23Z</time>
      </trkpt>
      <trkpt lat="46.66254" lon="12.2933">
        <ele>1699.27</ele>
        <time>2017-02-27T09:25:27Z</time>
      </trkpt>
      <trkpt lat="46.66251" lon="12.29331">
        <ele>1699.75</ele>
        <time>2017-02-27T09:25:31Z</time>
      </trkpt>
      <trkpt lat="46.66247" lon="12.29332">
        <ele>1699.75</ele>
        <time>2017-02-27T09:25:35Z</time>
      </trkpt>
      <trkpt lat="46.66244" lon="12.29334">
        <ele>1700.23</ele>
        <time>2017-02-27T09:25:39Z</time>
      </trkpt>
      <trkpt lat="46.66234" lon="12.29337">
        <ele>1700.71</ele>
        <time>2017-02-27T09:25:51Z</time>
      </trkpt>
      <trkpt lat="46.66231" lon="12.29338">
        <ele>1701.19</ele>
        <time>2017-02-27T09:25:55Z</time>
      </trkpt>
      <trkpt lat="46.66227" lon="12.29338">
        <ele>1701.19</ele>
        <time>2017-02-27T09:25:59Z</time>
      </trkpt>
      <trkpt lat="46.66225" lon="12.29338">
        <ele>1701.19</ele>
        <time>2017-02-27T09:26:02Z</time>
      </trkpt>
      <trkpt lat="46.66223" lon="12.29338">
        <ele>1701.67</ele>
        <time>2017-02-27T09:26:05Z</time>
      </trkpt>
      <trkpt lat="46.66217" lon="12.29342">
        <ele>1701.67</ele>
        <time>2017-02-27T09:26:13Z</time>
      </trkpt>
      <trkpt lat="46.66214" lon="12.29345">
        <ele>1702.15</ele>
        <time>2017-02-27T09:26:17Z</time>
      </trkpt>
      <trkpt lat="46.66204" lon="12.29351">
        <ele>1702.63</ele>
        <time>2017-02-27T09:26:31Z</time>
      </trkpt>
      <trkpt lat="46.66201" lon="12.29353">
        <ele>1703.11</ele>
        <time>2017-02-27T09:26:35Z</time>
      </trkpt>
      <trkpt lat="46.66191" lon="12.2935">
        <ele>1703.11</ele>
        <time>2017-02-27T09:26:47Z</time>
      </trkpt>
      <trkpt lat="46.66179" lon="12.29349">
        <ele>1702.63</ele>
        <time>2017-02-27T09:26:59Z</time>
      </trkpt>
      <trkpt lat="46.6617" lon="12.2935">
        <ele>1704.07</ele>
        <time>2017-02-27T09:27:11Z</time>
      </trkpt>
      <trkpt lat="46.66168" lon="12.29351">
        <ele>1704.07</ele>
        <time>2017-02-27T09:27:14Z</time>
      </trkpt>
      <trkpt lat="46.66158" lon="12.29352">
        <ele>1705.04</ele>
        <time>2017-02-27T09:27:28Z</time>
      </trkpt>
      <trkpt lat="46.66154" lon="12.29352">
        <ele>1705.04</ele>
        <time>2017-02-27T09:27:40Z</time>
      </trkpt>
      <trkpt lat="46.66153" lon="12.29351">
        <ele>1705.52</ele>
        <time>2017-02-27T09:27:52Z</time>
      </trkpt>
      <trkpt lat="46.66153" lon="12.29354">
        <ele>1705.52</ele>
        <time>2017-02-27T09:28:16Z</time>
      </trkpt>
      <trkpt lat="46.66148" lon="12.29356">
        <ele>1706</ele>
        <time>2017-02-27T09:28:27Z</time>
      </trkpt>
      <trkpt lat="46.66146" lon="12.29358">
        <ele>1706</ele>
        <time>2017-02-27T09:28:36Z</time>
      </trkpt>
      <trkpt lat="46.66139" lon="12.2936">
        <ele>1706.48</ele>
        <time>2017-02-27T09:28:44Z</time>
      </trkpt>
      <trkpt lat="46.66132" lon="12.29361">
        <ele>1706.96</ele>
        <time>2017-02-27T09:28:56Z</time>
      </trkpt>
      <trkpt lat="46.66121" lon="12.29362">
        <ele>1708.4</ele>
        <time>2017-02-27T09:29:10Z</time>
      </trkpt>
      <trkpt lat="46.66115" lon="12.29358">
        <ele>1709.84</ele>
        <time>2017-02-27T09:29:21Z</time>
      </trkpt>
      <trkpt lat="46.66109" lon="12.2936">
        <ele>1710.32</ele>
        <time>2017-02-27T09:29:36Z</time>
      </trkpt>
      <trkpt lat="46.66108" lon="12.29362">
        <ele>1710.32</ele>
        <time>2017-02-27T09:29:40Z</time>
      </trkpt>
      <trkpt lat="46.66098" lon="12.29366">
        <ele>1712.25</ele>
        <time>2017-02-27T09:29:54Z</time>
      </trkpt>
      <trkpt lat="46.66089" lon="12.2937">
        <ele>1713.21</ele>
        <time>2017-02-27T09:30:06Z</time>
      </trkpt>
      <trkpt lat="46.66082" lon="12.29377">
        <ele>1714.17</ele>
        <time>2017-02-27T09:30:17Z</time>
      </trkpt>
      <trkpt lat="46.66073" lon="12.29384">
        <ele>1714.65</ele>
        <time>2017-02-27T09:30:29Z</time>
      </trkpt>
      <trkpt lat="46.66066" lon="12.29393">
        <ele>1715.61</ele>
        <time>2017-02-27T09:30:41Z</time>
      </trkpt>
      <trkpt lat="46.66061" lon="12.29401">
        <ele>1716.09</ele>
        <time>2017-02-27T09:30:53Z</time>
      </trkpt>
      <trkpt lat="46.66056" lon="12.29403">
        <ele>1717.05</ele>
        <time>2017-02-27T09:31:04Z</time>
      </trkpt>
      <trkpt lat="46.66054" lon="12.29403">
        <ele>1717.05</ele>
        <time>2017-02-27T09:31:08Z</time>
      </trkpt>
      <trkpt lat="46.66051" lon="12.29405">
        <ele>1717.05</ele>
        <time>2017-02-27T09:31:14Z</time>
      </trkpt>
      <trkpt lat="46.66048" lon="12.29407">
        <ele>1717.53</ele>
        <time>2017-02-27T09:31:19Z</time>
      </trkpt>
      <trkpt lat="46.66044" lon="12.29408">
        <ele>1717.53</ele>
        <time>2017-02-27T09:31:31Z</time>
      </trkpt>
      <trkpt lat="46.66042" lon="12.29405">
        <ele>1718.01</ele>
        <time>2017-02-27T09:31:51Z</time>
      </trkpt>
      <trkpt lat="46.66044" lon="12.2941">
        <ele>1718.01</ele>
        <time>2017-02-27T09:32:10Z</time>
      </trkpt>
      <trkpt lat="46.66043" lon="12.29412">
        <ele>1718.01</ele>
        <time>2017-02-27T09:32:31Z</time>
      </trkpt>
      <trkpt lat="46.66042" lon="12.29411">
        <ele>1718.49</ele>
        <time>2017-02-27T09:32:50Z</time>
      </trkpt>
      <trkpt lat="46.66044" lon="12.29414">
        <ele>1718.01</ele>
        <time>2017-02-27T09:33:11Z</time>
      </trkpt>
      <trkpt lat="46.66044" lon="12.29416">
        <ele>1718.49</ele>
        <time>2017-02-27T09:33:32Z</time>
      </trkpt>
      <trkpt lat="46.66049" lon="12.29414">
        <ele>1718.49</ele>
        <time>2017-02-27T09:33:52Z</time>
      </trkpt>
      <trkpt lat="46.66051" lon="12.29413">
        <ele>1718.01</ele>
        <time>2017-02-27T09:33:55Z</time>
      </trkpt>
      <trkpt lat="46.66062" lon="12.29408">
        <ele>1717.53</ele>
        <time>2017-02-27T09:34:08Z</time>
      </trkpt>
      <trkpt lat="46.66067" lon="12.29405">
        <ele>1717.53</ele>
        <time>2017-02-27T09:34:22Z</time>
      </trkpt>
      <trkpt lat="46.66064" lon="12.29404">
        <ele>1717.05</ele>
        <time>2017-02-27T09:34:42Z</time>
      </trkpt>
      <trkpt lat="46.66076" lon="12.29393">
        <ele>1716.57</ele>
        <time>2017-02-27T09:34:57Z</time>
      </trkpt>
      <trkpt lat="46.66081" lon="12.29388">
        <ele>1715.61</ele>
        <time>2017-02-27T09:35:13Z</time>
      </trkpt>
      <trkpt lat="46.66092" lon="12.29379">
        <ele>1714.65</ele>
        <time>2017-02-27T09:35:26Z</time>
      </trkpt>
      <trkpt lat="46.66105" lon="12.29371">
        <ele>1713.21</ele>
        <time>2017-02-27T09:35:37Z</time>
      </trkpt>
      <trkpt lat="46.66126" lon="12.29355">
        <ele>1710.32</ele>
        <time>2017-02-27T09:35:46Z</time>
      </trkpt>
      <trkpt lat="46.66145" lon="12.2933">
        <ele>1707.44</ele>
        <time>2017-02-27T09:36:01Z</time>
      </trkpt>
      <trkpt lat="46.66163" lon="12.29319">
        <ele>1706</ele>
        <time>2017-02-27T09:36:14Z</time>
      </trkpt>
      <trkpt lat="46.66178" lon="12.29305">
        <ele>1705.52</ele>
        <time>2017-02-27T09:36:26Z</time>
      </trkpt>
      <trkpt lat="46.66193" lon="12.29284">
        <ele>1703.59</ele>
        <time>2017-02-27T09:36:40Z</time>
      </trkpt>
      <trkpt lat="46.66194" lon="12.29282">
        <ele>1703.59</ele>
        <time>2017-02-27T09:36:42Z</time>
      </trkpt>
      <trkpt lat="46.66195" lon="12.2928">
        <ele>1703.59</ele>
        <time>2017-02-27T09:36:44Z</time>
      </trkpt>
      <trkpt lat="46.66196" lon="12.29279">
        <ele>1703.59</ele>
        <time>2017-02-27T09:36:45Z</time>
      </trkpt>
      <trkpt lat="46.66211" lon="12.29267">
        <ele>1702.15</ele>
        <time>2017-02-27T09:36:57Z</time>
      </trkpt>
      <trkpt lat="46.66209" lon="12.29264">
        <ele>1702.15</ele>
        <time>2017-02-27T09:37:10Z</time>
      </trkpt>
      <trkpt lat="46.66207" lon="12.29263">
        <ele>1702.63</ele>
        <time>2017-02-27T09:37:22Z</time>
      </trkpt>
      <trkpt lat="46.66206" lon="12.29265">
        <ele>1701.67</ele>
        <time>2017-02-27T09:37:36Z</time>
      </trkpt>
      <trkpt lat="46.66209" lon="12.29266">
        <ele>1701.67</ele>
        <time>2017-02-27T09:38:13Z</time>
      </trkpt>
      <trkpt lat="46.66206" lon="12.29267">
        <ele>1703.11</ele>
        <time>2017-02-27T09:38:49Z</time>
      </trkpt>
      <trkpt lat="46.66205" lon="12.29264">
        <ele>1702.63</ele>
        <time>2017-02-27T09:39:02Z</time>
      </trkpt>
      <trkpt lat="46.66208" lon="12.29261">
        <ele>1702.63</ele>
        <time>2017-02-27T09:39:37Z</time>
      </trkpt>
      <trkpt lat="46.66214" lon="12.29262">
        <ele>1702.63</ele>
        <time>2017-02-27T09:39:46Z</time>
      </trkpt>
      <trkpt lat="46.66217" lon="12.29259">
        <ele>1702.15</ele>
        <time>2017-02-27T09:39:49Z</time>
      </trkpt>
      <trkpt lat="46.66218" lon="12.29258">
        <ele>1702.15</ele>
        <time>2017-02-27T09:39:50Z</time>
      </trkpt>
      <trkpt lat="46.66221" lon="12.29256">
        <ele>1702.15</ele>
        <time>2017-02-27T09:39:53Z</time>
      </trkpt>
      <trkpt lat="46.66228" lon="12.29241">
        <ele>1701.67</ele>
        <time>2017-02-27T09:40:08Z</time>
      </trkpt>
      <trkpt lat="46.66232" lon="12.2923">
        <ele>1701.19</ele>
        <time>2017-02-27T09:40:22Z</time>
      </trkpt>
      <trkpt lat="46.66233" lon="12.29229">
        <ele>1701.19</ele>
        <time>2017-02-27T09:40:38Z</time>
      </trkpt>
      <trkpt lat="46.66229" lon="12.29224">
        <ele>1702.63</ele>
        <time>2017-02-27T09:40:54Z</time>
      </trkpt>
      <trkpt lat="46.66222" lon="12.29219">
        <ele>1703.59</ele>
        <time>2017-02-27T09:41:09Z</time>
      </trkpt>
      <trkpt lat="46.66212" lon="12.29219">
        <ele>1703.59</ele>
        <time>2017-02-27T09:41:29Z</time>
      </trkpt>
      <trkpt lat="46.66213" lon="12.29218">
        <ele>1706.96</ele>
        <time>2017-02-27T09:41:36Z</time>
      </trkpt>
      <trkpt lat="46.66214" lon="12.29222">
        <ele>1708.88</ele>
        <time>2017-02-27T09:41:53Z</time>
      </trkpt>
      <trkpt lat="46.66207" lon="12.29215">
        <ele>1710.8</ele>
        <time>2017-02-27T09:42:08Z</time>
      </trkpt>
      <trkpt lat="46.66202" lon="12.29208">
        <ele>1712.73</ele>
        <time>2017-02-27T09:42:22Z</time>
      </trkpt>
      <trkpt lat="46.66191" lon="12.29208">
        <ele>1713.69</ele>
        <time>2017-02-27T09:42:33Z</time>
      </trkpt>
      <trkpt lat="46.6619" lon="12.29208">
        <ele>1713.69</ele>
        <time>2017-02-27T09:42:34Z</time>
      </trkpt>
      <trkpt lat="46.66185" lon="12.29207">
        <ele>1714.65</ele>
        <time>2017-02-27T09:42:46Z</time>
      </trkpt>
      <trkpt lat="46.66178" lon="12.29206">
        <ele>1715.61</ele>
        <time>2017-02-27T09:43:01Z</time>
      </trkpt>
      <trkpt lat="46.66176" lon="12.2921">
        <ele>1717.05</ele>
        <time>2017-02-27T09:43:16Z</time>
      </trkpt>
      <trkpt lat="46.66172" lon="12.29216">
        <ele>1718.97</ele>
        <time>2017-02-27T09:43:32Z</time>
      </trkpt>
      <trkpt lat="46.66164" lon="12.29212">
        <ele>1720.9</ele>
        <time>2017-02-27T09:43:45Z</time>
      </trkpt>
      <trkpt lat="46.66161" lon="12.29212">
        <ele>1722.82</ele>
        <time>2017-02-27T09:43:59Z</time>
      </trkpt>
      <trkpt lat="46.66157" lon="12.29212">
        <ele>1724.74</ele>
        <time>2017-02-27T09:44:12Z</time>
      </trkpt>
      <trkpt lat="46.66151" lon="12.29213">
        <ele>1726.18</ele>
        <time>2017-02-27T09:44:25Z</time>
      </trkpt>
      <trkpt lat="46.66147" lon="12.29214">
        <ele>1727.63</ele>
        <time>2017-02-27T09:44:39Z</time>
      </trkpt>
      <trkpt lat="46.66143" lon="12.29215">
        <ele>1729.55</ele>
        <time>2017-02-27T09:44:54Z</time>
      </trkpt>
      <trkpt lat="46.66137" lon="12.29213">
        <ele>1730.99</ele>
        <time>2017-02-27T09:45:07Z</time>
      </trkpt>
      <trkpt lat="46.66133" lon="12.29214">
        <ele>1732.91</ele>
        <time>2017-02-27T09:45:22Z</time>
      </trkpt>
      <trkpt lat="46.66128" lon="12.29215">
        <ele>1734.84</ele>
        <time>2017-02-27T09:45:36Z</time>
      </trkpt>
      <trkpt lat="46.66123" lon="12.29214">
        <ele>1736.76</ele>
        <time>2017-02-27T09:45:51Z</time>
      </trkpt>
      <trkpt lat="46.6612" lon="12.29213">
        <ele>1738.68</ele>
        <time>2017-02-27T09:46:07Z</time>
      </trkpt>
      <trkpt lat="46.66111" lon="12.29212">
        <ele>1740.6</ele>
        <time>2017-02-27T09:46:21Z</time>
      </trkpt>
      <trkpt lat="46.66106" lon="12.29217">
        <ele>1742.05</ele>
        <time>2017-02-27T09:46:38Z</time>
      </trkpt>
      <trkpt lat="46.66097" lon="12.29219">
        <ele>1743.49</ele>
        <time>2017-02-27T09:46:52Z</time>
      </trkpt>
      <trkpt lat="46.66089" lon="12.29218">
        <ele>1744.93</ele>
        <time>2017-02-27T09:47:05Z</time>
      </trkpt>
      <trkpt lat="46.66087" lon="12.29217">
        <ele>1745.41</ele>
        <time>2017-02-27T09:47:07Z</time>
      </trkpt>
      <trkpt lat="46.66078" lon="12.29212">
        <ele>1746.37</ele>
        <time>2017-02-27T09:47:22Z</time>
      </trkpt>
      <trkpt lat="46.66073" lon="12.29211">
        <ele>1747.81</ele>
        <time>2017-02-27T09:47:35Z</time>
      </trkpt>
      <trkpt lat="46.66067" lon="12.29204">
        <ele>1748.78</ele>
        <time>2017-02-27T09:47:46Z</time>
      </trkpt>
      <trkpt lat="46.66063" lon="12.29201">
        <ele>1750.22</ele>
        <time>2017-02-27T09:47:59Z</time>
      </trkpt>
      <trkpt lat="46.66062" lon="12.29193">
        <ele>1751.18</ele>
        <time>2017-02-27T09:48:12Z</time>
      </trkpt>
      <trkpt lat="46.66056" lon="12.29188">
        <ele>1753.1</ele>
        <time>2017-02-27T09:48:25Z</time>
      </trkpt>
      <trkpt lat="46.66049" lon="12.29187">
        <ele>1754.54</ele>
        <time>2017-02-27T09:48:39Z</time>
      </trkpt>
      <trkpt lat="46.66041" lon="12.29181">
        <ele>1755.99</ele>
        <time>2017-02-27T09:48:52Z</time>
      </trkpt>
      <trkpt lat="46.66035" lon="12.29176">
        <ele>1757.43</ele>
        <time>2017-02-27T09:49:06Z</time>
      </trkpt>
      <trkpt lat="46.66031" lon="12.2917">
        <ele>1758.87</ele>
        <time>2017-02-27T09:49:19Z</time>
      </trkpt>
      <trkpt lat="46.66028" lon="12.29165">
        <ele>1759.83</ele>
        <time>2017-02-27T09:49:30Z</time>
      </trkpt>
      <trkpt lat="46.66023" lon="12.2916">
        <ele>1761.75</ele>
        <time>2017-02-27T09:49:45Z</time>
      </trkpt>
      <trkpt lat="46.66016" lon="12.29155">
        <ele>1763.2</ele>
        <time>2017-02-27T09:49:59Z</time>
      </trkpt>
      <trkpt lat="46.6601" lon="12.29153">
        <ele>1764.16</ele>
        <time>2017-02-27T09:50:12Z</time>
      </trkpt>
      <trkpt lat="46.66005" lon="12.29149">
        <ele>1765.6</ele>
        <time>2017-02-27T09:50:24Z</time>
      </trkpt>
      <trkpt lat="46.65999" lon="12.29139">
        <ele>1767.52</ele>
        <time>2017-02-27T09:50:41Z</time>
      </trkpt>
      <trkpt lat="46.65994" lon="12.2913">
        <ele>1768.96</ele>
        <time>2017-02-27T09:50:55Z</time>
      </trkpt>
      <trkpt lat="46.65985" lon="12.29121">
        <ele>1770.89</ele>
        <time>2017-02-27T09:51:08Z</time>
      </trkpt>
      <trkpt lat="46.65974" lon="12.29115">
        <ele>1771.85</ele>
        <time>2017-02-27T09:51:23Z</time>
      </trkpt>
      <trkpt lat="46.65973" lon="12.29112">
        <ele>1773.29</ele>
        <time>2017-02-27T09:51:37Z</time>
      </trkpt>
      <trkpt lat="46.65975" lon="12.29106">
        <ele>1774.73</ele>
        <time>2017-02-27T09:51:52Z</time>
      </trkpt>
      <trkpt lat="46.6597" lon="12.29105">
        <ele>1774.73</ele>
        <time>2017-02-27T09:52:09Z</time>
      </trkpt>
      <trkpt lat="46.6597" lon="12.29109">
        <ele>1774.73</ele>
        <time>2017-02-27T09:52:29Z</time>
      </trkpt>
      <trkpt lat="46.6597" lon="12.29109">
        <ele>1774.73</ele>
        <time>2017-02-27T09:52:50Z</time>
      </trkpt>
      <trkpt lat="46.65968" lon="12.2911">
        <ele>1774.25</ele>
        <time>2017-02-27T09:53:15Z</time>
      </trkpt>
      <trkpt lat="46.65968" lon="12.2911">
        <ele>1774.25</ele>
        <time>2017-02-27T09:53:42Z</time>
      </trkpt>
      <trkpt lat="46.65969" lon="12.29114">
        <ele>1774.25</ele>
        <time>2017-02-27T09:54:11Z</time>
      </trkpt>
      <trkpt lat="46.6597" lon="12.29109">
        <ele>1774.73</ele>
        <time>2017-02-27T09:54:31Z</time>
      </trkpt>
      <trkpt lat="46.6597" lon="12.29104">
        <ele>1774.73</ele>
        <time>2017-02-27T09:54:48Z</time>
      </trkpt>
      <trkpt lat="46.65966" lon="12.29102">
        <ele>1775.21</ele>
        <time>2017-02-27T09:55:02Z</time>
      </trkpt>
      <trkpt lat="46.65961" lon="12.29096">
        <ele>1776.65</ele>
        <time>2017-02-27T09:55:14Z</time>
      </trkpt>
      <trkpt lat="46.65953" lon="12.29094">
        <ele>1778.58</ele>
        <time>2017-02-27T09:55:30Z</time>
      </trkpt>
      <trkpt lat="46.65952" lon="12.2909">
        <ele>1780.5</ele>
        <time>2017-02-27T09:55:45Z</time>
      </trkpt>
      <trkpt lat="46.65943" lon="12.29078">
        <ele>1781.94</ele>
        <time>2017-02-27T09:56:01Z</time>
      </trkpt>
      <trkpt lat="46.65939" lon="12.29075">
        <ele>1783.38</ele>
        <time>2017-02-27T09:56:14Z</time>
      </trkpt>
      <trkpt lat="46.65936" lon="12.29073">
        <ele>1784.82</ele>
        <time>2017-02-27T09:56:27Z</time>
      </trkpt>
      <trkpt lat="46.65937" lon="12.2907">
        <ele>1786.27</ele>
        <time>2017-02-27T09:56:42Z</time>
      </trkpt>
      <trkpt lat="46.65938" lon="12.29062">
        <ele>1787.71</ele>
        <time>2017-02-27T09:56:56Z</time>
      </trkpt>
      <trkpt lat="46.65933" lon="12.29054">
        <ele>1789.15</ele>
        <time>2017-02-27T09:57:10Z</time>
      </trkpt>
      <trkpt lat="46.6593" lon="12.29048">
        <ele>1790.59</ele>
        <time>2017-02-27T09:57:23Z</time>
      </trkpt>
      <trkpt lat="46.65928" lon="12.29045">
        <ele>1792.03</ele>
        <time>2017-02-27T09:57:35Z</time>
      </trkpt>
      <trkpt lat="46.65927" lon="12.29043">
        <ele>1793.96</ele>
        <time>2017-02-27T09:57:49Z</time>
      </trkpt>
      <trkpt lat="46.65924" lon="12.29038">
        <ele>1794.92</ele>
        <time>2017-02-27T09:57:59Z</time>
      </trkpt>
      <trkpt lat="46.65923" lon="12.29035">
        <ele>1796.36</ele>
        <time>2017-02-27T09:58:12Z</time>
      </trkpt>
      <trkpt lat="46.6592" lon="12.29032">
        <ele>1797.32</ele>
        <time>2017-02-27T09:58:24Z</time>
      </trkpt>
      <trkpt lat="46.6592" lon="12.29035">
        <ele>1797.8</ele>
        <time>2017-02-27T09:58:37Z</time>
      </trkpt>
      <trkpt lat="46.65922" lon="12.29029">
        <ele>1798.76</ele>
        <time>2017-02-27T09:58:53Z</time>
      </trkpt>
      <trkpt lat="46.65924" lon="12.29027">
        <ele>1799.24</ele>
        <time>2017-02-27T09:59:10Z</time>
      </trkpt>
      <trkpt lat="46.65924" lon="12.29028">
        <ele>1799.73</ele>
        <time>2017-02-27T09:59:30Z</time>
      </trkpt>
      <trkpt lat="46.65925" lon="12.29026">
        <ele>1799.73</ele>
        <time>2017-02-27T09:59:50Z</time>
      </trkpt>
      <trkpt lat="46.65922" lon="12.29021">
        <ele>1799.73</ele>
        <time>2017-02-27T10:00:05Z</time>
      </trkpt>
      <trkpt lat="46.65922" lon="12.29025">
        <ele>1800.21</ele>
        <time>2017-02-27T10:00:21Z</time>
      </trkpt>
      <trkpt lat="46.6592" lon="12.29024">
        <ele>1799.73</ele>
        <time>2017-02-27T10:00:41Z</time>
      </trkpt>
      <trkpt lat="46.65919" lon="12.29025">
        <ele>1799.73</ele>
        <time>2017-02-27T10:00:57Z</time>
      </trkpt>
      <trkpt lat="46.65919" lon="12.29033">
        <ele>1798.28</ele>
        <time>2017-02-27T10:01:10Z</time>
      </trkpt>
      <trkpt lat="46.65918" lon="12.29036">
        <ele>1797.32</ele>
        <time>2017-02-27T10:01:23Z</time>
      </trkpt>
      <trkpt lat="46.6592" lon="12.29039">
        <ele>1796.84</ele>
        <time>2017-02-27T10:01:28Z</time>
      </trkpt>
      <trkpt lat="46.65922" lon="12.29042">
        <ele>1795.88</ele>
        <time>2017-02-27T10:01:38Z</time>
      </trkpt>
      <trkpt lat="46.65925" lon="12.29045">
        <ele>1794.44</ele>
        <time>2017-02-27T10:01:41Z</time>
      </trkpt>
      <trkpt lat="46.65925" lon="12.29048">
        <ele>1793</ele>
        <time>2017-02-27T10:01:51Z</time>
      </trkpt>
      <trkpt lat="46.65927" lon="12.29055">
        <ele>1791.55</ele>
        <time>2017-02-27T10:02:00Z</time>
      </trkpt>
      <trkpt lat="46.65932" lon="12.29061">
        <ele>1789.63</ele>
        <time>2017-02-27T10:02:05Z</time>
      </trkpt>
      <trkpt lat="46.65933" lon="12.29065">
        <ele>1788.67</ele>
        <time>2017-02-27T10:02:11Z</time>
      </trkpt>
      <trkpt lat="46.65935" lon="12.29068">
        <ele>1787.23</ele>
        <time>2017-02-27T10:02:17Z</time>
      </trkpt>
      <trkpt lat="46.65938" lon="12.29081">
        <ele>1783.86</ele>
        <time>2017-02-27T10:02:28Z</time>
      </trkpt>
      <trkpt lat="46.65939" lon="12.29084">
        <ele>1783.38</ele>
        <time>2017-02-27T10:02:31Z</time>
      </trkpt>
      <trkpt lat="46.65942" lon="12.29087">
        <ele>1782.9</ele>
        <time>2017-02-27T10:02:35Z</time>
      </trkpt>
      <trkpt lat="46.65944" lon="12.29089">
        <ele>1782.42</ele>
        <time>2017-02-27T10:02:46Z</time>
      </trkpt>
      <trkpt lat="46.65944" lon="12.2909">
        <ele>1782.9</ele>
        <time>2017-02-27T10:02:57Z</time>
      </trkpt>
      <trkpt lat="46.65943" lon="12.29087">
        <ele>1782.9</ele>
        <time>2017-02-27T10:03:07Z</time>
      </trkpt>
      <trkpt lat="46.65939" lon="12.29084">
        <ele>1783.38</ele>
        <time>2017-02-27T10:03:24Z</time>
      </trkpt>
      <trkpt lat="46.65938" lon="12.29091">
        <ele>1783.38</ele>
        <time>2017-02-27T10:03:40Z</time>
      </trkpt>
      <trkpt lat="46.65936" lon="12.29096">
        <ele>1783.86</ele>
        <time>2017-02-27T10:03:55Z</time>
      </trkpt>
      <trkpt lat="46.65935" lon="12.29097">
        <ele>1783.38</ele>
        <time>2017-02-27T10:04:11Z</time>
      </trkpt>
      <trkpt lat="46.65933" lon="12.29095">
        <ele>1784.34</ele>
        <time>2017-02-27T10:04:24Z</time>
      </trkpt>
      <trkpt lat="46.65929" lon="12.29089">
        <ele>1785.31</ele>
        <time>2017-02-27T10:04:37Z</time>
      </trkpt>
      <trkpt lat="46.65925" lon="12.29085">
        <ele>1786.75</ele>
        <time>2017-02-27T10:04:51Z</time>
      </trkpt>
      <trkpt lat="46.65922" lon="12.29083">
        <ele>1787.71</ele>
        <time>2017-02-27T10:05:03Z</time>
      </trkpt>
      <trkpt lat="46.6592" lon="12.29082">
        <ele>1788.67</ele>
        <time>2017-02-27T10:05:15Z</time>
      </trkpt>
      <trkpt lat="46.65917" lon="12.29079">
        <ele>1789.63</ele>
        <time>2017-02-27T10:05:28Z</time>
      </trkpt>
      <trkpt lat="46.65914" lon="12.29079">
        <ele>1790.59</ele>
        <time>2017-02-27T10:05:41Z</time>
      </trkpt>
      <trkpt lat="46.65913" lon="12.29075">
        <ele>1791.55</ele>
        <time>2017-02-27T10:05:53Z</time>
      </trkpt>
      <trkpt lat="46.65911" lon="12.29069">
        <ele>1792.52</ele>
        <time>2017-02-27T10:06:06Z</time>
      </trkpt>
      <trkpt lat="46.65907" lon="12.29066">
        <ele>1793.48</ele>
        <time>2017-02-27T10:06:18Z</time>
      </trkpt>
      <trkpt lat="46.65906" lon="12.29064">
        <ele>1793.48</ele>
        <time>2017-02-27T10:06:30Z</time>
      </trkpt>
      <trkpt lat="46.65903" lon="12.29063">
        <ele>1794.92</ele>
        <time>2017-02-27T10:06:44Z</time>
      </trkpt>
      <trkpt lat="46.65902" lon="12.29064">
        <ele>1796.36</ele>
        <time>2017-02-27T10:06:55Z</time>
      </trkpt>
      <trkpt lat="46.65902" lon="12.29063">
        <ele>1796.36</ele>
        <time>2017-02-27T10:07:12Z</time>
      </trkpt>
      <trkpt lat="46.659" lon="12.2906">
        <ele>1797.32</ele>
        <time>2017-02-27T10:07:25Z</time>
      </trkpt>
      <trkpt lat="46.65898" lon="12.29057">
        <ele>1798.28</ele>
        <time>2017-02-27T10:07:38Z</time>
      </trkpt>
      <trkpt lat="46.65898" lon="12.29055">
        <ele>1799.24</ele>
        <time>2017-02-27T10:07:49Z</time>
      </trkpt>
      <trkpt lat="46.65894" lon="12.29051">
        <ele>1800.21</ele>
        <time>2017-02-27T10:08:00Z</time>
      </trkpt>
      <trkpt lat="46.65892" lon="12.2905">
        <ele>1800.69</ele>
        <time>2017-02-27T10:08:10Z</time>
      </trkpt>
      <trkpt lat="46.65891" lon="12.29047">
        <ele>1801.65</ele>
        <time>2017-02-27T10:08:23Z</time>
      </trkpt>
      <trkpt lat="46.6589" lon="12.29043">
        <ele>1803.09</ele>
        <time>2017-02-27T10:08:34Z</time>
      </trkpt>
      <trkpt lat="46.65888" lon="12.29041">
        <ele>1804.05</ele>
        <time>2017-02-27T10:08:45Z</time>
      </trkpt>
      <trkpt lat="46.65887" lon="12.29039">
        <ele>1804.53</ele>
        <time>2017-02-27T10:08:56Z</time>
      </trkpt>
      <trkpt lat="46.65887" lon="12.29034">
        <ele>1805.49</ele>
        <time>2017-02-27T10:09:05Z</time>
      </trkpt>
      <trkpt lat="46.65887" lon="12.29031">
        <ele>1805.97</ele>
        <time>2017-02-27T10:09:20Z</time>
      </trkpt>
      <trkpt lat="46.65886" lon="12.29026">
        <ele>1806.94</ele>
        <time>2017-02-27T10:09:36Z</time>
      </trkpt>
      <trkpt lat="46.65885" lon="12.2902">
        <ele>1808.86</ele>
        <time>2017-02-27T10:09:50Z</time>
      </trkpt>
      <trkpt lat="46.65886" lon="12.29014">
        <ele>1810.3</ele>
        <time>2017-02-27T10:10:03Z</time>
      </trkpt>
      <trkpt lat="46.65886" lon="12.29005">
        <ele>1811.74</ele>
        <time>2017-02-27T10:10:18Z</time>
      </trkpt>
      <trkpt lat="46.65885" lon="12.29003">
        <ele>1812.22</ele>
        <time>2017-02-27T10:10:25Z</time>
      </trkpt>
      <trkpt lat="46.65884" lon="12.28995">
        <ele>1813.66</ele>
        <time>2017-02-27T10:10:37Z</time>
      </trkpt>
      <trkpt lat="46.65883" lon="12.28989">
        <ele>1814.63</ele>
        <time>2017-02-27T10:10:49Z</time>
      </trkpt>
      <trkpt lat="46.65885" lon="12.28985">
        <ele>1816.07</ele>
        <time>2017-02-27T10:11:00Z</time>
      </trkpt>
      <trkpt lat="46.65885" lon="12.28979">
        <ele>1817.03</ele>
        <time>2017-02-27T10:11:11Z</time>
      </trkpt>
      <trkpt lat="46.65886" lon="12.28976">
        <ele>1817.99</ele>
        <time>2017-02-27T10:11:22Z</time>
      </trkpt>
      <trkpt lat="46.65888" lon="12.2897">
        <ele>1819.43</ele>
        <time>2017-02-27T10:11:35Z</time>
      </trkpt>
      <trkpt lat="46.65889" lon="12.28963">
        <ele>1820.39</ele>
        <time>2017-02-27T10:11:47Z</time>
      </trkpt>
      <trkpt lat="46.65889" lon="12.28956">
        <ele>1821.35</ele>
        <time>2017-02-27T10:12:00Z</time>
      </trkpt>
      <trkpt lat="46.65887" lon="12.28948">
        <ele>1822.8</ele>
        <time>2017-02-27T10:12:16Z</time>
      </trkpt>
      <trkpt lat="46.65887" lon="12.28943">
        <ele>1823.76</ele>
        <time>2017-02-27T10:12:29Z</time>
      </trkpt>
      <trkpt lat="46.65889" lon="12.28939">
        <ele>1824.72</ele>
        <time>2017-02-27T10:12:40Z</time>
      </trkpt>
      <trkpt lat="46.65891" lon="12.28933">
        <ele>1826.16</ele>
        <time>2017-02-27T10:12:51Z</time>
      </trkpt>
      <trkpt lat="46.6589" lon="12.28924">
        <ele>1827.12</ele>
        <time>2017-02-27T10:13:04Z</time>
      </trkpt>
      <trkpt lat="46.65887" lon="12.28918">
        <ele>1828.56</ele>
        <time>2017-02-27T10:13:17Z</time>
      </trkpt>
      <trkpt lat="46.65886" lon="12.28914">
        <ele>1829.05</ele>
        <time>2017-02-27T10:13:28Z</time>
      </trkpt>
      <trkpt lat="46.65887" lon="12.28912">
        <ele>1830.49</ele>
        <time>2017-02-27T10:13:40Z</time>
      </trkpt>
      <trkpt lat="46.65886" lon="12.28906">
        <ele>1831.93</ele>
        <time>2017-02-27T10:13:53Z</time>
      </trkpt>
      <trkpt lat="46.65886" lon="12.28898">
        <ele>1832.89</ele>
        <time>2017-02-27T10:14:05Z</time>
      </trkpt>
      <trkpt lat="46.65885" lon="12.28892">
        <ele>1834.33</ele>
        <time>2017-02-27T10:14:19Z</time>
      </trkpt>
      <trkpt lat="46.65885" lon="12.28887">
        <ele>1835.29</ele>
        <time>2017-02-27T10:14:31Z</time>
      </trkpt>
      <trkpt lat="46.65884" lon="12.28882">
        <ele>1836.74</ele>
        <time>2017-02-27T10:14:46Z</time>
      </trkpt>
      <trkpt lat="46.65883" lon="12.28876">
        <ele>1837.7</ele>
        <time>2017-02-27T10:14:59Z</time>
      </trkpt>
      <trkpt lat="46.65883" lon="12.2887">
        <ele>1839.14</ele>
        <time>2017-02-27T10:15:12Z</time>
      </trkpt>
      <trkpt lat="46.65881" lon="12.28863">
        <ele>1842.5</ele>
        <time>2017-02-27T10:15:27Z</time>
      </trkpt>
      <trkpt lat="46.6588" lon="12.28856">
        <ele>1842.02</ele>
        <time>2017-02-27T10:15:38Z</time>
      </trkpt>
      <trkpt lat="46.65876" lon="12.28851">
        <ele>1843.47</ele>
        <time>2017-02-27T10:15:51Z</time>
      </trkpt>
      <trkpt lat="46.65874" lon="12.28845">
        <ele>1844.43</ele>
        <time>2017-02-27T10:16:05Z</time>
      </trkpt>
      <trkpt lat="46.65872" lon="12.28837">
        <ele>1845.39</ele>
        <time>2017-02-27T10:16:19Z</time>
      </trkpt>
      <trkpt lat="46.65871" lon="12.28831">
        <ele>1846.83</ele>
        <time>2017-02-27T10:16:32Z</time>
      </trkpt>
      <trkpt lat="46.6587" lon="12.28824">
        <ele>1847.79</ele>
        <time>2017-02-27T10:16:45Z</time>
      </trkpt>
      <trkpt lat="46.65868" lon="12.28818">
        <ele>1848.75</ele>
        <time>2017-02-27T10:16:56Z</time>
      </trkpt>
      <trkpt lat="46.65866" lon="12.2881">
        <ele>1850.68</ele>
        <time>2017-02-27T10:17:12Z</time>
      </trkpt>
      <trkpt lat="46.65864" lon="12.28804">
        <ele>1851.64</ele>
        <time>2017-02-27T10:17:24Z</time>
      </trkpt>
      <trkpt lat="46.65863" lon="12.288">
        <ele>1853.08</ele>
        <time>2017-02-27T10:17:36Z</time>
      </trkpt>
      <trkpt lat="46.65862" lon="12.28792">
        <ele>1854.52</ele>
        <time>2017-02-27T10:17:51Z</time>
      </trkpt>
      <trkpt lat="46.6586" lon="12.28783">
        <ele>1855.48</ele>
        <time>2017-02-27T10:18:05Z</time>
      </trkpt>
      <trkpt lat="46.65858" lon="12.28775">
        <ele>1856.44</ele>
        <time>2017-02-27T10:18:19Z</time>
      </trkpt>
      <trkpt lat="46.65855" lon="12.2877">
        <ele>1857.4</ele>
        <time>2017-02-27T10:18:32Z</time>
      </trkpt>
      <trkpt lat="46.65853" lon="12.28764">
        <ele>1858.37</ele>
        <time>2017-02-27T10:18:44Z</time>
      </trkpt>
      <trkpt lat="46.6585" lon="12.28758">
        <ele>1859.81</ele>
        <time>2017-02-27T10:18:58Z</time>
      </trkpt>
      <trkpt lat="46.6585" lon="12.28753">
        <ele>1860.77</ele>
        <time>2017-02-27T10:19:11Z</time>
      </trkpt>
      <trkpt lat="46.65849" lon="12.28746">
        <ele>1862.21</ele>
        <time>2017-02-27T10:19:25Z</time>
      </trkpt>
      <trkpt lat="46.65847" lon="12.2874">
        <ele>1863.65</ele>
        <time>2017-02-27T10:19:38Z</time>
      </trkpt>
      <trkpt lat="46.65844" lon="12.28736">
        <ele>1864.61</ele>
        <time>2017-02-27T10:19:50Z</time>
      </trkpt>
      <trkpt lat="46.65841" lon="12.28732">
        <ele>1866.06</ele>
        <time>2017-02-27T10:20:02Z</time>
      </trkpt>
      <trkpt lat="46.65837" lon="12.28729">
        <ele>1867.5</ele>
        <time>2017-02-27T10:20:15Z</time>
      </trkpt>
      <trkpt lat="46.65836" lon="12.28728">
        <ele>1867.98</ele>
        <time>2017-02-27T10:20:32Z</time>
      </trkpt>
      <trkpt lat="46.65836" lon="12.28735">
        <ele>1867.5</ele>
        <time>2017-02-27T10:20:53Z</time>
      </trkpt>
      <trkpt lat="46.65836" lon="12.28733">
        <ele>1867.98</ele>
        <time>2017-02-27T10:21:08Z</time>
      </trkpt>
      <trkpt lat="46.65836" lon="12.28737">
        <ele>1867.5</ele>
        <time>2017-02-27T10:21:30Z</time>
      </trkpt>
      <trkpt lat="46.65834" lon="12.28729">
        <ele>1868.94</ele>
        <time>2017-02-27T10:21:45Z</time>
      </trkpt>
      <trkpt lat="46.65828" lon="12.2872">
        <ele>1870.86</ele>
        <time>2017-02-27T10:22:01Z</time>
      </trkpt>
      <trkpt lat="46.65826" lon="12.28714">
        <ele>1872.79</ele>
        <time>2017-02-27T10:22:16Z</time>
      </trkpt>
      <trkpt lat="46.65821" lon="12.28708">
        <ele>1874.71</ele>
        <time>2017-02-27T10:22:31Z</time>
      </trkpt>
      <trkpt lat="46.65816" lon="12.287">
        <ele>1876.15</ele>
        <time>2017-02-27T10:22:48Z</time>
      </trkpt>
      <trkpt lat="46.65812" lon="12.28696">
        <ele>1877.59</ele>
        <time>2017-02-27T10:23:00Z</time>
      </trkpt>
      <trkpt lat="46.6581" lon="12.28694">
        <ele>1878.55</ele>
        <time>2017-02-27T10:23:06Z</time>
      </trkpt>
      <trkpt lat="46.65803" lon="12.28687">
        <ele>1879.51</ele>
        <time>2017-02-27T10:23:21Z</time>
      </trkpt>
      <trkpt lat="46.658" lon="12.28685">
        <ele>1880.96</ele>
        <time>2017-02-27T10:23:35Z</time>
      </trkpt>
      <trkpt lat="46.65797" lon="12.28682">
        <ele>1882.4</ele>
        <time>2017-02-27T10:23:49Z</time>
      </trkpt>
      <trkpt lat="46.65791" lon="12.28677">
        <ele>1883.84</ele>
        <time>2017-02-27T10:24:03Z</time>
      </trkpt>
      <trkpt lat="46.65789" lon="12.28673">
        <ele>1885.28</ele>
        <time>2017-02-27T10:24:16Z</time>
      </trkpt>
      <trkpt lat="46.65786" lon="12.28667">
        <ele>1887.21</ele>
        <time>2017-02-27T10:24:31Z</time>
      </trkpt>
      <trkpt lat="46.65781" lon="12.28661">
        <ele>1888.65</ele>
        <time>2017-02-27T10:24:46Z</time>
      </trkpt>
      <trkpt lat="46.65778" lon="12.28655">
        <ele>1890.09</ele>
        <time>2017-02-27T10:25:01Z</time>
      </trkpt>
      <trkpt lat="46.65772" lon="12.28649">
        <ele>1892.01</ele>
        <time>2017-02-27T10:25:17Z</time>
      </trkpt>
      <trkpt lat="46.65769" lon="12.28647">
        <ele>1892.97</ele>
        <time>2017-02-27T10:25:30Z</time>
      </trkpt>
      <trkpt lat="46.65767" lon="12.28644">
        <ele>1894.42</ele>
        <time>2017-02-27T10:25:39Z</time>
      </trkpt>
      <trkpt lat="46.65762" lon="12.28639">
        <ele>1895.86</ele>
        <time>2017-02-27T10:25:53Z</time>
      </trkpt>
      <trkpt lat="46.65758" lon="12.28634">
        <ele>1897.3</ele>
        <time>2017-02-27T10:26:05Z</time>
      </trkpt>
      <trkpt lat="46.65755" lon="12.28631">
        <ele>1898.74</ele>
        <time>2017-02-27T10:26:19Z</time>
      </trkpt>
      <trkpt lat="46.65753" lon="12.28627">
        <ele>1900.18</ele>
        <time>2017-02-27T10:26:34Z</time>
      </trkpt>
      <trkpt lat="46.65751" lon="12.28622">
        <ele>1901.14</ele>
        <time>2017-02-27T10:26:47Z</time>
      </trkpt>
      <trkpt lat="46.6575" lon="12.28617">
        <ele>1902.59</ele>
        <time>2017-02-27T10:26:59Z</time>
      </trkpt>
      <trkpt lat="46.65747" lon="12.28614">
        <ele>1904.03</ele>
        <time>2017-02-27T10:27:12Z</time>
      </trkpt>
      <trkpt lat="46.65742" lon="12.2861">
        <ele>1904.99</ele>
        <time>2017-02-27T10:27:26Z</time>
      </trkpt>
      <trkpt lat="46.6574" lon="12.28606">
        <ele>1906.43</ele>
        <time>2017-02-27T10:27:38Z</time>
      </trkpt>
      <trkpt lat="46.65736" lon="12.28604">
        <ele>1907.87</ele>
        <time>2017-02-27T10:27:50Z</time>
      </trkpt>
      <trkpt lat="46.65732" lon="12.286">
        <ele>1909.32</ele>
        <time>2017-02-27T10:28:05Z</time>
      </trkpt>
      <trkpt lat="46.6573" lon="12.28597">
        <ele>1910.76</ele>
        <time>2017-02-27T10:28:18Z</time>
      </trkpt>
      <trkpt lat="46.65728" lon="12.28593">
        <ele>1912.2</ele>
        <time>2017-02-27T10:28:30Z</time>
      </trkpt>
      <trkpt lat="46.65724" lon="12.28589">
        <ele>1913.16</ele>
        <time>2017-02-27T10:28:42Z</time>
      </trkpt>
      <trkpt lat="46.6572" lon="12.28586">
        <ele>1914.6</ele>
        <time>2017-02-27T10:28:56Z</time>
      </trkpt>
      <trkpt lat="46.65719" lon="12.28584">
        <ele>1916.53</ele>
        <time>2017-02-27T10:29:10Z</time>
      </trkpt>
      <trkpt lat="46.65717" lon="12.2858">
        <ele>1917.49</ele>
        <time>2017-02-27T10:29:21Z</time>
      </trkpt>
      <trkpt lat="46.65715" lon="12.28576">
        <ele>1920.37</ele>
        <time>2017-02-27T10:29:34Z</time>
      </trkpt>
      <trkpt lat="46.65713" lon="12.2857">
        <ele>1920.37</ele>
        <time>2017-02-27T10:29:50Z</time>
      </trkpt>
      <trkpt lat="46.6571" lon="12.28563">
        <ele>1922.29</ele>
        <time>2017-02-27T10:30:04Z</time>
      </trkpt>
      <trkpt lat="46.65707" lon="12.28561">
        <ele>1923.25</ele>
        <time>2017-02-27T10:30:14Z</time>
      </trkpt>
      <trkpt lat="46.65702" lon="12.2856">
        <ele>1924.22</ele>
        <time>2017-02-27T10:30:26Z</time>
      </trkpt>
      <trkpt lat="46.65698" lon="12.28559">
        <ele>1926.14</ele>
        <time>2017-02-27T10:30:41Z</time>
      </trkpt>
      <trkpt lat="46.65694" lon="12.28563">
        <ele>1927.58</ele>
        <time>2017-02-27T10:30:54Z</time>
      </trkpt>
      <trkpt lat="46.65696" lon="12.2856">
        <ele>1928.54</ele>
        <time>2017-02-27T10:31:08Z</time>
      </trkpt>
      <trkpt lat="46.65695" lon="12.28554">
        <ele>1929.98</ele>
        <time>2017-02-27T10:31:22Z</time>
      </trkpt>
      <trkpt lat="46.65693" lon="12.28554">
        <ele>1932.39</ele>
        <time>2017-02-27T10:31:35Z</time>
      </trkpt>
      <trkpt lat="46.6569" lon="12.28553">
        <ele>1932.87</ele>
        <time>2017-02-27T10:31:50Z</time>
      </trkpt>
      <trkpt lat="46.65685" lon="12.2855">
        <ele>1934.31</ele>
        <time>2017-02-27T10:32:06Z</time>
      </trkpt>
      <trkpt lat="46.6568" lon="12.28546">
        <ele>1935.75</ele>
        <time>2017-02-27T10:32:21Z</time>
      </trkpt>
      <trkpt lat="46.65677" lon="12.28545">
        <ele>1937.67</ele>
        <time>2017-02-27T10:32:35Z</time>
      </trkpt>
      <trkpt lat="46.65674" lon="12.28544">
        <ele>1938.64</ele>
        <time>2017-02-27T10:32:52Z</time>
      </trkpt>
      <trkpt lat="46.65672" lon="12.28542">
        <ele>1939.6</ele>
        <time>2017-02-27T10:33:04Z</time>
      </trkpt>
      <trkpt lat="46.65669" lon="12.28541">
        <ele>1940.08</ele>
        <time>2017-02-27T10:33:23Z</time>
      </trkpt>
      <trkpt lat="46.65668" lon="12.28539">
        <ele>1941.04</ele>
        <time>2017-02-27T10:33:38Z</time>
      </trkpt>
      <trkpt lat="46.65668" lon="12.2854">
        <ele>1941.52</ele>
        <time>2017-02-27T10:33:53Z</time>
      </trkpt>
      <trkpt lat="46.65665" lon="12.2854">
        <ele>1942</ele>
        <time>2017-02-27T10:34:07Z</time>
      </trkpt>
      <trkpt lat="46.65662" lon="12.28538">
        <ele>1943.44</ele>
        <time>2017-02-27T10:34:21Z</time>
      </trkpt>
      <trkpt lat="46.65662" lon="12.28539">
        <ele>1942.96</ele>
        <time>2017-02-27T10:34:37Z</time>
      </trkpt>
      <trkpt lat="46.65663" lon="12.28539">
        <ele>1942.96</ele>
        <time>2017-02-27T10:35:05Z</time>
      </trkpt>
      <trkpt lat="46.65664" lon="12.28536">
        <ele>1942.48</ele>
        <time>2017-02-27T10:35:18Z</time>
      </trkpt>
      <trkpt lat="46.65665" lon="12.28535">
        <ele>1943.92</ele>
        <time>2017-02-27T10:35:37Z</time>
      </trkpt>
      <trkpt lat="46.65664" lon="12.2853">
        <ele>1942</ele>
        <time>2017-02-27T10:35:56Z</time>
      </trkpt>
      <trkpt lat="46.65662" lon="12.28531">
        <ele>1942</ele>
        <time>2017-02-27T10:36:18Z</time>
      </trkpt>
      <trkpt lat="46.65661" lon="12.28527">
        <ele>1942</ele>
        <time>2017-02-27T10:36:34Z</time>
      </trkpt>
      <trkpt lat="46.65659" lon="12.28527">
        <ele>1942</ele>
        <time>2017-02-27T10:36:53Z</time>
      </trkpt>
      <trkpt lat="46.65661" lon="12.28526">
        <ele>1942</ele>
        <time>2017-02-27T10:37:14Z</time>
      </trkpt>
      <trkpt lat="46.65658" lon="12.28522">
        <ele>1942.48</ele>
        <time>2017-02-27T10:37:28Z</time>
      </trkpt>
      <trkpt lat="46.65658" lon="12.28521">
        <ele>1942.96</ele>
        <time>2017-02-27T10:37:36Z</time>
      </trkpt>
      <trkpt lat="46.65657" lon="12.28519">
        <ele>1942.96</ele>
        <time>2017-02-27T10:37:47Z</time>
      </trkpt>
      <trkpt lat="46.65653" lon="12.28524">
        <ele>1943.92</ele>
        <time>2017-02-27T10:37:58Z</time>
      </trkpt>
      <trkpt lat="46.65651" lon="12.28527">
        <ele>1944.88</ele>
        <time>2017-02-27T10:38:10Z</time>
      </trkpt>
      <trkpt lat="46.65653" lon="12.28526">
        <ele>1944.88</ele>
        <time>2017-02-27T10:38:25Z</time>
      </trkpt>
      <trkpt lat="46.65653" lon="12.28526">
        <ele>1946.33</ele>
        <time>2017-02-27T10:38:36Z</time>
      </trkpt>
      <trkpt lat="46.65647" lon="12.28529">
        <ele>1945.85</ele>
        <time>2017-02-27T10:38:53Z</time>
      </trkpt>
      <trkpt lat="46.65643" lon="12.28531">
        <ele>1945.85</ele>
        <time>2017-02-27T10:39:09Z</time>
      </trkpt>
      <trkpt lat="46.65644" lon="12.28529">
        <ele>1946.81</ele>
        <time>2017-02-27T10:39:25Z</time>
      </trkpt>
      <trkpt lat="46.65641" lon="12.28526">
        <ele>1948.25</ele>
        <time>2017-02-27T10:39:38Z</time>
      </trkpt>
      <trkpt lat="46.65638" lon="12.28524">
        <ele>1949.69</ele>
        <time>2017-02-27T10:39:51Z</time>
      </trkpt>
      <trkpt lat="46.65636" lon="12.28523">
        <ele>1950.65</ele>
        <time>2017-02-27T10:40:02Z</time>
      </trkpt>
      <trkpt lat="46.65633" lon="12.28527">
        <ele>1951.61</ele>
        <time>2017-02-27T10:40:20Z</time>
      </trkpt>
      <trkpt lat="46.6563" lon="12.28522">
        <ele>1952.09</ele>
        <time>2017-02-27T10:40:38Z</time>
      </trkpt>
      <trkpt lat="46.6563" lon="12.28522">
        <ele>1952.57</ele>
        <time>2017-02-27T10:40:55Z</time>
      </trkpt>
      <trkpt lat="46.6563" lon="12.2852">
        <ele>1952.57</ele>
        <time>2017-02-27T10:41:13Z</time>
      </trkpt>
      <trkpt lat="46.65631" lon="12.2852">
        <ele>1952.09</ele>
        <time>2017-02-27T10:41:37Z</time>
      </trkpt>
      <trkpt lat="46.65633" lon="12.28516">
        <ele>1951.61</ele>
        <time>2017-02-27T10:42:01Z</time>
      </trkpt>
      <trkpt lat="46.65634" lon="12.2851">
        <ele>1952.09</ele>
        <time>2017-02-27T10:42:37Z</time>
      </trkpt>
      <trkpt lat="46.6564" lon="12.2851">
        <ele>1952.09</ele>
        <time>2017-02-27T10:43:10Z</time>
      </trkpt>
      <trkpt lat="46.65623" lon="12.28512">
        <ele>1952.09</ele>
        <time>2017-02-27T10:43:47Z</time>
      </trkpt>
      <trkpt lat="46.65619" lon="12.28515">
        <ele>1952.57</ele>
        <time>2017-02-27T10:44:26Z</time>
      </trkpt>
      <trkpt lat="46.65626" lon="12.28517">
        <ele>1952.57</ele>
        <time>2017-02-27T10:44:56Z</time>
      </trkpt>
      <trkpt lat="46.65626" lon="12.2851">
        <ele>1953.06</ele>
        <time>2017-02-27T10:45:42Z</time>
      </trkpt>
      <trkpt lat="46.65629" lon="12.28513">
        <ele>1953.06</ele>
        <time>2017-02-27T10:46:17Z</time>
      </trkpt>
      <trkpt lat="46.65631" lon="12.28515">
        <ele>1953.06</ele>
        <time>2017-02-27T10:46:56Z</time>
      </trkpt>
      <trkpt lat="46.65636" lon="12.2852">
        <ele>1954.5</ele>
        <time>2017-02-27T10:47:22Z</time>
      </trkpt>
      <trkpt lat="46.65633" lon="12.28512">
        <ele>1955.94</ele>
        <time>2017-02-27T10:47:38Z</time>
      </trkpt>
      <trkpt lat="46.65619" lon="12.28514">
        <ele>1957.86</ele>
        <time>2017-02-27T10:47:56Z</time>
      </trkpt>
      <trkpt lat="46.65613" lon="12.28516">
        <ele>1957.86</ele>
        <time>2017-02-27T10:48:14Z</time>
      </trkpt>
      <trkpt lat="46.65604" lon="12.28519">
        <ele>1959.3</ele>
        <time>2017-02-27T10:48:33Z</time>
      </trkpt>
      <trkpt lat="46.65611" lon="12.28519">
        <ele>1960.75</ele>
        <time>2017-02-27T10:48:51Z</time>
      </trkpt>
      <trkpt lat="46.65606" lon="12.28513">
        <ele>1962.19</ele>
        <time>2017-02-27T10:49:17Z</time>
      </trkpt>
      <trkpt lat="46.65607" lon="12.28505">
        <ele>1963.63</ele>
        <time>2017-02-27T10:49:32Z</time>
      </trkpt>
      <trkpt lat="46.65605" lon="12.285">
        <ele>1966.03</ele>
        <time>2017-02-27T10:49:45Z</time>
      </trkpt>
      <trkpt lat="46.65602" lon="12.28495">
        <ele>1965.55</ele>
        <time>2017-02-27T10:50:09Z</time>
      </trkpt>
      <trkpt lat="46.65608" lon="12.28493">
        <ele>1966.03</ele>
        <time>2017-02-27T10:50:30Z</time>
      </trkpt>
      <trkpt lat="46.65598" lon="12.28492">
        <ele>1966.51</ele>
        <time>2017-02-27T10:50:45Z</time>
      </trkpt>
      <trkpt lat="46.65591" lon="12.28493">
        <ele>1966.51</ele>
        <time>2017-02-27T10:51:07Z</time>
      </trkpt>
      <trkpt lat="46.65589" lon="12.28491">
        <ele>1966.99</ele>
        <time>2017-02-27T10:51:31Z</time>
      </trkpt>
      <trkpt lat="46.6559" lon="12.28494">
        <ele>1966.99</ele>
        <time>2017-02-27T10:51:47Z</time>
      </trkpt>
      <trkpt lat="46.65589" lon="12.28491">
        <ele>1966.99</ele>
        <time>2017-02-27T10:52:07Z</time>
      </trkpt>
      <trkpt lat="46.65587" lon="12.28491">
        <ele>1966.99</ele>
        <time>2017-02-27T10:52:29Z</time>
      </trkpt>
      <trkpt lat="46.65589" lon="12.28492">
        <ele>1966.99</ele>
        <time>2017-02-27T10:52:51Z</time>
      </trkpt>
      <trkpt lat="46.65588" lon="12.28493">
        <ele>1966.99</ele>
        <time>2017-02-27T10:53:10Z</time>
      </trkpt>
      <trkpt lat="46.65586" lon="12.28488">
        <ele>1966.99</ele>
        <time>2017-02-27T10:53:32Z</time>
      </trkpt>
      <trkpt lat="46.65588" lon="12.28491">
        <ele>1968.44</ele>
        <time>2017-02-27T10:53:47Z</time>
      </trkpt>
      <trkpt lat="46.65588" lon="12.28491">
        <ele>1966.99</ele>
        <time>2017-02-27T10:53:48Z</time>
      </trkpt>
      <trkpt lat="46.65591" lon="12.28495">
        <ele>1966.99</ele>
        <time>2017-02-27T10:54:02Z</time>
      </trkpt>
      <trkpt lat="46.65597" lon="12.28499">
        <ele>1965.55</ele>
        <time>2017-02-27T10:54:17Z</time>
      </trkpt>
      <trkpt lat="46.65603" lon="12.28499">
        <ele>1965.07</ele>
        <time>2017-02-27T10:54:34Z</time>
      </trkpt>
      <trkpt lat="46.65608" lon="12.2851">
        <ele>1962.67</ele>
        <time>2017-02-27T10:54:51Z</time>
      </trkpt>
      <trkpt lat="46.65608" lon="12.2851">
        <ele>1962.67</ele>
        <time>2017-02-27T10:54:53Z</time>
      </trkpt>
      <trkpt lat="46.65609" lon="12.28516">
        <ele>1961.71</ele>
        <time>2017-02-27T10:55:07Z</time>
      </trkpt>
      <trkpt lat="46.65613" lon="12.28524">
        <ele>1959.78</ele>
        <time>2017-02-27T10:55:21Z</time>
      </trkpt>
      <trkpt lat="46.65616" lon="12.28522">
        <ele>1959.3</ele>
        <time>2017-02-27T10:55:36Z</time>
      </trkpt>
      <trkpt lat="46.6562" lon="12.28522">
        <ele>1958.34</ele>
        <time>2017-02-27T10:55:47Z</time>
      </trkpt>
      <trkpt lat="46.6562" lon="12.28522">
        <ele>1959.78</ele>
        <time>2017-02-27T10:55:48Z</time>
      </trkpt>
      <trkpt lat="46.6562" lon="12.28522">
        <ele>1958.34</ele>
        <time>2017-02-27T10:55:49Z</time>
      </trkpt>
      <trkpt lat="46.65626" lon="12.28517">
        <ele>1957.86</ele>
        <time>2017-02-27T10:56:04Z</time>
      </trkpt>
      <trkpt lat="46.65629" lon="12.28515">
        <ele>1956.9</ele>
        <time>2017-02-27T10:56:09Z</time>
      </trkpt>
      <trkpt lat="46.65634" lon="12.28516">
        <ele>1955.94</ele>
        <time>2017-02-27T10:56:17Z</time>
      </trkpt>
      <trkpt lat="46.6564" lon="12.28521">
        <ele>1954.02</ele>
        <time>2017-02-27T10:56:30Z</time>
      </trkpt>
      <trkpt lat="46.65644" lon="12.28528">
        <ele>1952.09</ele>
        <time>2017-02-27T10:56:44Z</time>
      </trkpt>
      <trkpt lat="46.65647" lon="12.28529">
        <ele>1951.13</ele>
        <time>2017-02-27T10:56:50Z</time>
      </trkpt>
      <trkpt lat="46.65651" lon="12.2853">
        <ele>1949.21</ele>
        <time>2017-02-27T10:57:04Z</time>
      </trkpt>
      <trkpt lat="46.65651" lon="12.2853">
        <ele>1949.21</ele>
        <time>2017-02-27T10:57:05Z</time>
      </trkpt>
      <trkpt lat="46.65656" lon="12.28535">
        <ele>1947.29</ele>
        <time>2017-02-27T10:57:09Z</time>
      </trkpt>
      <trkpt lat="46.65653" lon="12.28534">
        <ele>1946.81</ele>
        <time>2017-02-27T10:57:19Z</time>
      </trkpt>
      <trkpt lat="46.6566" lon="12.28528">
        <ele>1945.85</ele>
        <time>2017-02-27T10:57:41Z</time>
      </trkpt>
      <trkpt lat="46.65663" lon="12.28524">
        <ele>1947.29</ele>
        <time>2017-02-27T10:57:49Z</time>
      </trkpt>
      <trkpt lat="46.65663" lon="12.28524">
        <ele>1944.88</ele>
        <time>2017-02-27T10:57:50Z</time>
      </trkpt>
      <trkpt lat="46.65663" lon="12.28521">
        <ele>1944.4</ele>
        <time>2017-02-27T10:58:02Z</time>
      </trkpt>
      <trkpt lat="46.65664" lon="12.2852">
        <ele>1943.92</ele>
        <time>2017-02-27T10:58:14Z</time>
      </trkpt>
      <trkpt lat="46.65663" lon="12.2852">
        <ele>1943.44</ele>
        <time>2017-02-27T10:58:30Z</time>
      </trkpt>
      <trkpt lat="46.65665" lon="12.28521">
        <ele>1942.96</ele>
        <time>2017-02-27T10:58:45Z</time>
      </trkpt>
      <trkpt lat="46.65669" lon="12.28526">
        <ele>1942.48</ele>
        <time>2017-02-27T10:59:00Z</time>
      </trkpt>
      <trkpt lat="46.65664" lon="12.28532">
        <ele>1942.96</ele>
        <time>2017-02-27T10:59:17Z</time>
      </trkpt>
      <trkpt lat="46.65669" lon="12.28541">
        <ele>1941.52</ele>
        <time>2017-02-27T10:59:32Z</time>
      </trkpt>
      <trkpt lat="46.65682" lon="12.2855">
        <ele>1938.16</ele>
        <time>2017-02-27T10:59:51Z</time>
      </trkpt>
      <trkpt lat="46.65692" lon="12.28554">
        <ele>1935.27</ele>
        <time>2017-02-27T11:00:01Z</time>
      </trkpt>
      <trkpt lat="46.65693" lon="12.28555">
        <ele>1934.79</ele>
        <time>2017-02-27T11:00:02Z</time>
      </trkpt>
      <trkpt lat="46.65707" lon="12.28549">
        <ele>1932.39</ele>
        <time>2017-02-27T11:00:12Z</time>
      </trkpt>
      <trkpt lat="46.65712" lon="12.28556">
        <ele>1929.5</ele>
        <time>2017-02-27T11:00:28Z</time>
      </trkpt>
      <trkpt lat="46.65714" lon="12.2856">
        <ele>1927.58</ele>
        <time>2017-02-27T11:00:31Z</time>
      </trkpt>
      <trkpt lat="46.65715" lon="12.28561">
        <ele>1927.1</ele>
        <time>2017-02-27T11:00:32Z</time>
      </trkpt>
      <trkpt lat="46.6572" lon="12.28561">
        <ele>1925.66</ele>
        <time>2017-02-27T11:00:45Z</time>
      </trkpt>
      <trkpt lat="46.6572" lon="12.28561">
        <ele>1925.66</ele>
        <time>2017-02-27T11:00:47Z</time>
      </trkpt>
      <trkpt lat="46.65721" lon="12.28561">
        <ele>1924.7</ele>
        <time>2017-02-27T11:00:48Z</time>
      </trkpt>
      <trkpt lat="46.6573" lon="12.28564">
        <ele>1922.29</ele>
        <time>2017-02-27T11:00:54Z</time>
      </trkpt>
      <trkpt lat="46.65738" lon="12.28569">
        <ele>1918.93</ele>
        <time>2017-02-27T11:01:02Z</time>
      </trkpt>
      <trkpt lat="46.65738" lon="12.28569">
        <ele>1918.93</ele>
        <time>2017-02-27T11:01:03Z</time>
      </trkpt>
      <trkpt lat="46.65744" lon="12.28578">
        <ele>1917.01</ele>
        <time>2017-02-27T11:01:17Z</time>
      </trkpt>
      <trkpt lat="46.65755" lon="12.28582">
        <ele>1914.12</ele>
        <time>2017-02-27T11:01:29Z</time>
      </trkpt>
      <trkpt lat="46.65762" lon="12.28586">
        <ele>1912.2</ele>
        <time>2017-02-27T11:01:40Z</time>
      </trkpt>
      <trkpt lat="46.65768" lon="12.28596">
        <ele>1908.83</ele>
        <time>2017-02-27T11:01:45Z</time>
      </trkpt>
      <trkpt lat="46.65781" lon="12.28605">
        <ele>1905.47</ele>
        <time>2017-02-27T11:01:51Z</time>
      </trkpt>
      <trkpt lat="46.65787" lon="12.28609">
        <ele>1902.59</ele>
        <time>2017-02-27T11:01:54Z</time>
      </trkpt>
      <trkpt lat="46.65784" lon="12.28605">
        <ele>1903.07</ele>
        <time>2017-02-27T11:02:05Z</time>
      </trkpt>
      <trkpt lat="46.6579" lon="12.28611">
        <ele>1901.63</ele>
        <time>2017-02-27T11:02:19Z</time>
      </trkpt>
      <trkpt lat="46.65791" lon="12.28615">
        <ele>1901.14</ele>
        <time>2017-02-27T11:02:32Z</time>
      </trkpt>
      <trkpt lat="46.65797" lon="12.28622">
        <ele>1900.18</ele>
        <time>2017-02-27T11:02:43Z</time>
      </trkpt>
      <trkpt lat="46.65802" lon="12.28628">
        <ele>1898.26</ele>
        <time>2017-02-27T11:02:51Z</time>
      </trkpt>
      <trkpt lat="46.65804" lon="12.28628">
        <ele>1898.26</ele>
        <time>2017-02-27T11:02:52Z</time>
      </trkpt>
      <trkpt lat="46.65806" lon="12.28627">
        <ele>1897.78</ele>
        <time>2017-02-27T11:03:02Z</time>
      </trkpt>
      <trkpt lat="46.65813" lon="12.28634">
        <ele>1896.34</ele>
        <time>2017-02-27T11:03:14Z</time>
      </trkpt>
      <trkpt lat="46.65816" lon="12.28636">
        <ele>1895.86</ele>
        <time>2017-02-27T11:03:20Z</time>
      </trkpt>
      <trkpt lat="46.65825" lon="12.28643">
        <ele>1892.97</ele>
        <time>2017-02-27T11:03:25Z</time>
      </trkpt>
      <trkpt lat="46.65836" lon="12.28651">
        <ele>1889.61</ele>
        <time>2017-02-27T11:03:36Z</time>
      </trkpt>
      <trkpt lat="46.65847" lon="12.28665">
        <ele>1886.72</ele>
        <time>2017-02-27T11:03:49Z</time>
      </trkpt>
      <trkpt lat="46.65852" lon="12.2867">
        <ele>1885.76</ele>
        <time>2017-02-27T11:03:54Z</time>
      </trkpt>
      <trkpt lat="46.65861" lon="12.28676">
        <ele>1882.88</ele>
        <time>2017-02-27T11:04:03Z</time>
      </trkpt>
      <trkpt lat="46.65863" lon="12.28678">
        <ele>1882.88</ele>
        <time>2017-02-27T11:04:05Z</time>
      </trkpt>
      <trkpt lat="46.65863" lon="12.28678">
        <ele>1882.4</ele>
        <time>2017-02-27T11:04:06Z</time>
      </trkpt>
      <trkpt lat="46.65866" lon="12.28681">
        <ele>1881.92</ele>
        <time>2017-02-27T11:04:12Z</time>
      </trkpt>
      <trkpt lat="46.65868" lon="12.28682">
        <ele>1881.44</ele>
        <time>2017-02-27T11:04:13Z</time>
      </trkpt>
      <trkpt lat="46.65879" lon="12.2869">
        <ele>1878.07</ele>
        <time>2017-02-27T11:04:21Z</time>
      </trkpt>
      <trkpt lat="46.6584" lon="12.28698">
        <ele>1877.11</ele>
        <time>2017-02-27T11:04:37Z</time>
      </trkpt>
      <trkpt lat="46.65825" lon="12.28713">
        <ele>1874.23</ele>
        <time>2017-02-27T11:04:50Z</time>
      </trkpt>
      <trkpt lat="46.65822" lon="12.28716">
        <ele>1872.79</ele>
        <time>2017-02-27T11:05:05Z</time>
      </trkpt>
      <trkpt lat="46.65824" lon="12.28712">
        <ele>1872.3</ele>
        <time>2017-02-27T11:05:12Z</time>
      </trkpt>
      <trkpt lat="46.65829" lon="12.28708">
        <ele>1870.38</ele>
        <time>2017-02-27T11:05:27Z</time>
      </trkpt>
      <trkpt lat="46.65832" lon="12.28702">
        <ele>1869.9</ele>
        <time>2017-02-27T11:05:44Z</time>
      </trkpt>
      <trkpt lat="46.65832" lon="12.28696">
        <ele>1870.38</ele>
        <time>2017-02-27T11:06:00Z</time>
      </trkpt>
      <trkpt lat="46.65833" lon="12.28693">
        <ele>1871.34</ele>
        <time>2017-02-27T11:06:14Z</time>
      </trkpt>
      <trkpt lat="46.65833" lon="12.2869">
        <ele>1871.34</ele>
        <time>2017-02-27T11:06:29Z</time>
      </trkpt>
      <trkpt lat="46.65836" lon="12.28692">
        <ele>1871.82</ele>
        <time>2017-02-27T11:06:46Z</time>
      </trkpt>
      <trkpt lat="46.65834" lon="12.2869">
        <ele>1872.3</ele>
        <time>2017-02-27T11:07:03Z</time>
      </trkpt>
      <trkpt lat="46.65834" lon="12.28685">
        <ele>1872.79</ele>
        <time>2017-02-27T11:07:18Z</time>
      </trkpt>
      <trkpt lat="46.65834" lon="12.28688">
        <ele>1873.27</ele>
        <time>2017-02-27T11:07:32Z</time>
      </trkpt>
      <trkpt lat="46.65836" lon="12.28693">
        <ele>1873.75</ele>
        <time>2017-02-27T11:07:48Z</time>
      </trkpt>
      <trkpt lat="46.65838" lon="12.28687">
        <ele>1874.23</ele>
        <time>2017-02-27T11:07:59Z</time>
      </trkpt>
      <trkpt lat="46.65838" lon="12.28683">
        <ele>1873.75</ele>
        <time>2017-02-27T11:08:12Z</time>
      </trkpt>
      <trkpt lat="46.65839" lon="12.28684">
        <ele>1873.75</ele>
        <time>2017-02-27T11:08:34Z</time>
      </trkpt>
      <trkpt lat="46.6584" lon="12.28682">
        <ele>1874.23</ele>
        <time>2017-02-27T11:08:54Z</time>
      </trkpt>
      <trkpt lat="46.65837" lon="12.2868">
        <ele>1874.23</ele>
        <time>2017-02-27T11:09:20Z</time>
      </trkpt>
      <trkpt lat="46.65834" lon="12.28681">
        <ele>1873.27</ele>
        <time>2017-02-27T11:09:39Z</time>
      </trkpt>
      <trkpt lat="46.65835" lon="12.28688">
        <ele>1873.75</ele>
        <time>2017-02-27T11:10:08Z</time>
      </trkpt>
      <trkpt lat="46.65835" lon="12.28688">
        <ele>1873.75</ele>
        <time>2017-02-27T11:10:38Z</time>
      </trkpt>
      <trkpt lat="46.65835" lon="12.28686">
        <ele>1873.75</ele>
        <time>2017-02-27T11:10:52Z</time>
      </trkpt>
      <trkpt lat="46.65835" lon="12.28684">
        <ele>1873.75</ele>
        <time>2017-02-27T11:11:26Z</time>
      </trkpt>
      <trkpt lat="46.65833" lon="12.28684">
        <ele>1873.27</ele>
        <time>2017-02-27T11:11:59Z</time>
      </trkpt>
      <trkpt lat="46.65834" lon="12.28685">
        <ele>1873.27</ele>
        <time>2017-02-27T11:12:30Z</time>
      </trkpt>
      <trkpt lat="46.65837" lon="12.28685">
        <ele>1873.27</ele>
        <time>2017-02-27T11:13:04Z</time>
      </trkpt>
      <trkpt lat="46.65836" lon="12.28681">
        <ele>1873.27</ele>
        <time>2017-02-27T11:13:46Z</time>
      </trkpt>
      <trkpt lat="46.65833" lon="12.28682">
        <ele>1875.19</ele>
        <time>2017-02-27T11:13:58Z</time>
      </trkpt>
      <trkpt lat="46.65833" lon="12.28682">
        <ele>1873.75</ele>
        <time>2017-02-27T11:13:59Z</time>
      </trkpt>
      <trkpt lat="46.65834" lon="12.28682">
        <ele>1873.75</ele>
        <time>2017-02-27T11:14:34Z</time>
      </trkpt>
      <trkpt lat="46.65833" lon="12.28682">
        <ele>1873.75</ele>
        <time>2017-02-27T11:14:59Z</time>
      </trkpt>
      <trkpt lat="46.65832" lon="12.2868">
        <ele>1873.75</ele>
        <time>2017-02-27T11:15:32Z</time>
      </trkpt>
      <trkpt lat="46.65833" lon="12.2868">
        <ele>1874.71</ele>
        <time>2017-02-27T11:16:04Z</time>
      </trkpt>
      <trkpt lat="46.65835" lon="12.28681">
        <ele>1874.71</ele>
        <time>2017-02-27T11:16:21Z</time>
      </trkpt>
      <trkpt lat="46.65837" lon="12.28684">
        <ele>1874.71</ele>
        <time>2017-02-27T11:16:37Z</time>
      </trkpt>
      <trkpt lat="46.65839" lon="12.28683">
        <ele>1874.71</ele>
        <time>2017-02-27T11:16:54Z</time>
      </trkpt>
      <trkpt lat="46.65835" lon="12.28683">
        <ele>1874.71</ele>
        <time>2017-02-27T11:17:14Z</time>
      </trkpt>
      <trkpt lat="46.65837" lon="12.28676">
        <ele>1875.67</ele>
        <time>2017-02-27T11:17:33Z</time>
      </trkpt>
      <trkpt lat="46.65835" lon="12.28667">
        <ele>1877.11</ele>
        <time>2017-02-27T11:17:52Z</time>
      </trkpt>
      <trkpt lat="46.65834" lon="12.28663">
        <ele>1879.51</ele>
        <time>2017-02-27T11:18:00Z</time>
      </trkpt>
      <trkpt lat="46.65834" lon="12.28658">
        <ele>1879.51</ele>
        <time>2017-02-27T11:18:17Z</time>
      </trkpt>
      <trkpt lat="46.65831" lon="12.28652">
        <ele>1880.48</ele>
        <time>2017-02-27T11:18:33Z</time>
      </trkpt>
      <trkpt lat="46.65829" lon="12.2865">
        <ele>1880.96</ele>
        <time>2017-02-27T11:18:56Z</time>
      </trkpt>
      <trkpt lat="46.6583" lon="12.28644">
        <ele>1882.88</ele>
        <time>2017-02-27T11:19:12Z</time>
      </trkpt>
      <trkpt lat="46.65829" lon="12.2864">
        <ele>1884.32</ele>
        <time>2017-02-27T11:19:27Z</time>
      </trkpt>
      <trkpt lat="46.65827" lon="12.28633">
        <ele>1885.76</ele>
        <time>2017-02-27T11:19:44Z</time>
      </trkpt>
      <trkpt lat="46.65826" lon="12.28626">
        <ele>1887.21</ele>
        <time>2017-02-27T11:19:58Z</time>
      </trkpt>
      <trkpt lat="46.65824" lon="12.2862">
        <ele>1888.17</ele>
        <time>2017-02-27T11:20:15Z</time>
      </trkpt>
      <trkpt lat="46.65821" lon="12.28618">
        <ele>1888.17</ele>
        <time>2017-02-27T11:20:34Z</time>
      </trkpt>
      <trkpt lat="46.65819" lon="12.28618">
        <ele>1888.17</ele>
        <time>2017-02-27T11:20:50Z</time>
      </trkpt>
      <trkpt lat="46.65819" lon="12.28613">
        <ele>1889.13</ele>
        <time>2017-02-27T11:21:03Z</time>
      </trkpt>
      <trkpt lat="46.65821" lon="12.28603">
        <ele>1891.05</ele>
        <time>2017-02-27T11:21:19Z</time>
      </trkpt>
      <trkpt lat="46.65817" lon="12.28593">
        <ele>1892.97</ele>
        <time>2017-02-27T11:21:34Z</time>
      </trkpt>
      <trkpt lat="46.65813" lon="12.28581">
        <ele>1893.93</ele>
        <time>2017-02-27T11:21:47Z</time>
      </trkpt>
      <trkpt lat="46.65806" lon="12.28575">
        <ele>1897.3</ele>
        <time>2017-02-27T11:22:02Z</time>
      </trkpt>
      <trkpt lat="46.65799" lon="12.2857">
        <ele>1895.86</ele>
        <time>2017-02-27T11:22:17Z</time>
      </trkpt>
      <trkpt lat="46.65793" lon="12.28566">
        <ele>1896.82</ele>
        <time>2017-02-27T11:22:32Z</time>
      </trkpt>
      <trkpt lat="46.65795" lon="12.28559">
        <ele>1898.74</ele>
        <time>2017-02-27T11:22:51Z</time>
      </trkpt>
      <trkpt lat="46.65792" lon="12.28544">
        <ele>1899.7</ele>
        <time>2017-02-27T11:23:07Z</time>
      </trkpt>
      <trkpt lat="46.65791" lon="12.28534">
        <ele>1902.11</ele>
        <time>2017-02-27T11:23:26Z</time>
      </trkpt>
      <trkpt lat="46.6579" lon="12.28524">
        <ele>1904.03</ele>
        <time>2017-02-27T11:23:42Z</time>
      </trkpt>
      <trkpt lat="46.6579" lon="12.28518">
        <ele>1904.51</ele>
        <time>2017-02-27T11:23:59Z</time>
      </trkpt>
      <trkpt lat="46.65782" lon="12.28514">
        <ele>1904.99</ele>
        <time>2017-02-27T11:24:16Z</time>
      </trkpt>
      <trkpt lat="46.65775" lon="12.28507">
        <ele>1906.91</ele>
        <time>2017-02-27T11:24:31Z</time>
      </trkpt>
      <trkpt lat="46.65771" lon="12.28501">
        <ele>1908.35</ele>
        <time>2017-02-27T11:24:48Z</time>
      </trkpt>
      <trkpt lat="46.65767" lon="12.28495">
        <ele>1909.8</ele>
        <time>2017-02-27T11:25:05Z</time>
      </trkpt>
      <trkpt lat="46.65758" lon="12.28488">
        <ele>1911.24</ele>
        <time>2017-02-27T11:25:23Z</time>
      </trkpt>
      <trkpt lat="46.6575" lon="12.28481">
        <ele>1912.68</ele>
        <time>2017-02-27T11:25:39Z</time>
      </trkpt>
      <trkpt lat="46.65746" lon="12.28479">
        <ele>1913.64</ele>
        <time>2017-02-27T11:25:55Z</time>
      </trkpt>
      <trkpt lat="46.65744" lon="12.2847">
        <ele>1915.56</ele>
        <time>2017-02-27T11:26:15Z</time>
      </trkpt>
      <trkpt lat="46.65744" lon="12.28465">
        <ele>1917.49</ele>
        <time>2017-02-27T11:26:30Z</time>
      </trkpt>
      <trkpt lat="46.65731" lon="12.28459">
        <ele>1917.97</ele>
        <time>2017-02-27T11:26:47Z</time>
      </trkpt>
      <trkpt lat="46.6573" lon="12.28451">
        <ele>1918.45</ele>
        <time>2017-02-27T11:27:01Z</time>
      </trkpt>
      <trkpt lat="46.65729" lon="12.28443">
        <ele>1920.37</ele>
        <time>2017-02-27T11:27:19Z</time>
      </trkpt>
      <trkpt lat="46.65729" lon="12.28434">
        <ele>1922.29</ele>
        <time>2017-02-27T11:27:35Z</time>
      </trkpt>
      <trkpt lat="46.65726" lon="12.28424">
        <ele>1923.74</ele>
        <time>2017-02-27T11:27:51Z</time>
      </trkpt>
      <trkpt lat="46.65725" lon="12.2841">
        <ele>1925.18</ele>
        <time>2017-02-27T11:28:07Z</time>
      </trkpt>
      <trkpt lat="46.65724" lon="12.28399">
        <ele>1926.14</ele>
        <time>2017-02-27T11:28:23Z</time>
      </trkpt>
      <trkpt lat="46.65717" lon="12.28389">
        <ele>1927.58</ele>
        <time>2017-02-27T11:28:39Z</time>
      </trkpt>
      <trkpt lat="46.65713" lon="12.28375">
        <ele>1929.02</ele>
        <time>2017-02-27T11:28:58Z</time>
      </trkpt>
      <trkpt lat="46.65706" lon="12.28365">
        <ele>1929.98</ele>
        <time>2017-02-27T11:29:13Z</time>
      </trkpt>
      <trkpt lat="46.65701" lon="12.28357">
        <ele>1930.95</ele>
        <time>2017-02-27T11:29:27Z</time>
      </trkpt>
      <trkpt lat="46.657" lon="12.28356">
        <ele>1930.95</ele>
        <time>2017-02-27T11:29:45Z</time>
      </trkpt>
      <trkpt lat="46.65696" lon="12.28353">
        <ele>1931.43</ele>
        <time>2017-02-27T11:29:58Z</time>
      </trkpt>
      <trkpt lat="46.65696" lon="12.28355">
        <ele>1931.43</ele>
        <time>2017-02-27T11:30:16Z</time>
      </trkpt>
      <trkpt lat="46.65697" lon="12.28355">
        <ele>1931.43</ele>
        <time>2017-02-27T11:30:30Z</time>
      </trkpt>
      <trkpt lat="46.65697" lon="12.28355">
        <ele>1931.43</ele>
        <time>2017-02-27T11:30:49Z</time>
      </trkpt>
      <trkpt lat="46.65697" lon="12.2836">
        <ele>1931.43</ele>
        <time>2017-02-27T11:31:00Z</time>
      </trkpt>
      <trkpt lat="46.65698" lon="12.28357">
        <ele>1931.43</ele>
        <time>2017-02-27T11:31:24Z</time>
      </trkpt>
      <trkpt lat="46.65697" lon="12.28359">
        <ele>1931.43</ele>
        <time>2017-02-27T11:31:42Z</time>
      </trkpt>
      <trkpt lat="46.65696" lon="12.28364">
        <ele>1931.43</ele>
        <time>2017-02-27T11:31:59Z</time>
      </trkpt>
      <trkpt lat="46.65697" lon="12.28362">
        <ele>1930.95</ele>
        <time>2017-02-27T11:32:16Z</time>
      </trkpt>
      <trkpt lat="46.65696" lon="12.2836">
        <ele>1931.43</ele>
        <time>2017-02-27T11:32:34Z</time>
      </trkpt>
      <trkpt lat="46.65697" lon="12.28362">
        <ele>1931.43</ele>
        <time>2017-02-27T11:32:54Z</time>
      </trkpt>
      <trkpt lat="46.65699" lon="12.28359">
        <ele>1930.95</ele>
        <time>2017-02-27T11:33:14Z</time>
      </trkpt>
      <trkpt lat="46.65703" lon="12.28358">
        <ele>1931.43</ele>
        <time>2017-02-27T11:33:30Z</time>
      </trkpt>
      <trkpt lat="46.65702" lon="12.28361">
        <ele>1930.95</ele>
        <time>2017-02-27T11:34:01Z</time>
      </trkpt>
      <trkpt lat="46.65698" lon="12.28359">
        <ele>1931.43</ele>
        <time>2017-02-27T11:34:31Z</time>
      </trkpt>
      <trkpt lat="46.657" lon="12.28361">
        <ele>1931.43</ele>
        <time>2017-02-27T11:34:44Z</time>
      </trkpt>
      <trkpt lat="46.65698" lon="12.28359">
        <ele>1931.43</ele>
        <time>2017-02-27T11:35:00Z</time>
      </trkpt>
      <trkpt lat="46.65699" lon="12.28356">
        <ele>1931.43</ele>
        <time>2017-02-27T11:35:14Z</time>
      </trkpt>
      <trkpt lat="46.657" lon="12.28348">
        <ele>1931.43</ele>
        <time>2017-02-27T11:35:27Z</time>
      </trkpt>
      <trkpt lat="46.657" lon="12.28335">
        <ele>1932.87</ele>
        <time>2017-02-27T11:35:43Z</time>
      </trkpt>
      <trkpt lat="46.65699" lon="12.28321">
        <ele>1934.79</ele>
        <time>2017-02-27T11:36:00Z</time>
      </trkpt>
      <trkpt lat="46.65697" lon="12.28307">
        <ele>1936.23</ele>
        <time>2017-02-27T11:36:17Z</time>
      </trkpt>
      <trkpt lat="46.65694" lon="12.28291">
        <ele>1937.67</ele>
        <time>2017-02-27T11:36:36Z</time>
      </trkpt>
      <trkpt lat="46.6569" lon="12.28281">
        <ele>1938.16</ele>
        <time>2017-02-27T11:36:50Z</time>
      </trkpt>
      <trkpt lat="46.65687" lon="12.28267">
        <ele>1940.08</ele>
        <time>2017-02-27T11:37:07Z</time>
      </trkpt>
      <trkpt lat="46.65691" lon="12.28257">
        <ele>1940.56</ele>
        <time>2017-02-27T11:37:22Z</time>
      </trkpt>
      <trkpt lat="46.65688" lon="12.28251">
        <ele>1941.04</ele>
        <time>2017-02-27T11:37:41Z</time>
      </trkpt>
      <trkpt lat="46.65684" lon="12.28237">
        <ele>1942</ele>
        <time>2017-02-27T11:37:58Z</time>
      </trkpt>
      <trkpt lat="46.65678" lon="12.28227">
        <ele>1944.88</ele>
        <time>2017-02-27T11:38:12Z</time>
      </trkpt>
      <trkpt lat="46.65673" lon="12.28215">
        <ele>1943.92</ele>
        <time>2017-02-27T11:38:27Z</time>
      </trkpt>
      <trkpt lat="46.65666" lon="12.28204">
        <ele>1945.36</ele>
        <time>2017-02-27T11:38:43Z</time>
      </trkpt>
      <trkpt lat="46.65659" lon="12.28197">
        <ele>1946.81</ele>
        <time>2017-02-27T11:38:57Z</time>
      </trkpt>
      <trkpt lat="46.65649" lon="12.28199">
        <ele>1948.25</ele>
        <time>2017-02-27T11:39:16Z</time>
      </trkpt>
      <trkpt lat="46.65643" lon="12.28197">
        <ele>1949.69</ele>
        <time>2017-02-27T11:39:31Z</time>
      </trkpt>
      <trkpt lat="46.65638" lon="12.28183">
        <ele>1951.61</ele>
        <time>2017-02-27T11:39:52Z</time>
      </trkpt>
      <trkpt lat="46.65631" lon="12.28174">
        <ele>1953.54</ele>
        <time>2017-02-27T11:40:10Z</time>
      </trkpt>
      <trkpt lat="46.65629" lon="12.28174">
        <ele>1955.46</ele>
        <time>2017-02-27T11:40:13Z</time>
      </trkpt>
      <trkpt lat="46.65621" lon="12.28172">
        <ele>1955.46</ele>
        <time>2017-02-27T11:40:32Z</time>
      </trkpt>
      <trkpt lat="46.65613" lon="12.28166">
        <ele>1957.38</ele>
        <time>2017-02-27T11:40:51Z</time>
      </trkpt>
      <trkpt lat="46.65606" lon="12.28154">
        <ele>1959.3</ele>
        <time>2017-02-27T11:41:12Z</time>
      </trkpt>
      <trkpt lat="46.65601" lon="12.28149">
        <ele>1961.23</ele>
        <time>2017-02-27T11:41:29Z</time>
      </trkpt>
      <trkpt lat="46.65594" lon="12.28143">
        <ele>1962.67</ele>
        <time>2017-02-27T11:41:47Z</time>
      </trkpt>
      <trkpt lat="46.65591" lon="12.28141">
        <ele>1964.11</ele>
        <time>2017-02-27T11:42:02Z</time>
      </trkpt>
      <trkpt lat="46.65584" lon="12.28137">
        <ele>1966.03</ele>
        <time>2017-02-27T11:42:22Z</time>
      </trkpt>
      <trkpt lat="46.65578" lon="12.28132">
        <ele>1967.96</ele>
        <time>2017-02-27T11:42:41Z</time>
      </trkpt>
      <trkpt lat="46.65576" lon="12.28126">
        <ele>1969.4</ele>
        <time>2017-02-27T11:42:55Z</time>
      </trkpt>
      <trkpt lat="46.65567" lon="12.28122">
        <ele>1971.32</ele>
        <time>2017-02-27T11:43:14Z</time>
      </trkpt>
      <trkpt lat="46.65563" lon="12.28122">
        <ele>1972.76</ele>
        <time>2017-02-27T11:43:30Z</time>
      </trkpt>
      <trkpt lat="46.65559" lon="12.28117">
        <ele>1973.24</ele>
        <time>2017-02-27T11:43:43Z</time>
      </trkpt>
      <trkpt lat="46.65553" lon="12.28117">
        <ele>1975.17</ele>
        <time>2017-02-27T11:44:00Z</time>
      </trkpt>
      <trkpt lat="46.65547" lon="12.28121">
        <ele>1977.09</ele>
        <time>2017-02-27T11:44:16Z</time>
      </trkpt>
      <trkpt lat="46.65544" lon="12.28115">
        <ele>1978.05</ele>
        <time>2017-02-27T11:44:33Z</time>
      </trkpt>
      <trkpt lat="46.6554" lon="12.28108">
        <ele>1980.45</ele>
        <time>2017-02-27T11:44:51Z</time>
      </trkpt>
      <trkpt lat="46.65535" lon="12.28104">
        <ele>1981.9</ele>
        <time>2017-02-27T11:45:08Z</time>
      </trkpt>
      <trkpt lat="46.65531" lon="12.28108">
        <ele>1982.38</ele>
        <time>2017-02-27T11:45:24Z</time>
      </trkpt>
      <trkpt lat="46.65533" lon="12.2811">
        <ele>1982.86</ele>
        <time>2017-02-27T11:45:42Z</time>
      </trkpt>
      <trkpt lat="46.65526" lon="12.28105">
        <ele>1984.3</ele>
        <time>2017-02-27T11:45:58Z</time>
      </trkpt>
      <trkpt lat="46.65519" lon="12.281">
        <ele>1988.14</ele>
        <time>2017-02-27T11:46:16Z</time>
      </trkpt>
      <trkpt lat="46.65515" lon="12.281">
        <ele>1987.66</ele>
        <time>2017-02-27T11:46:29Z</time>
      </trkpt>
      <trkpt lat="46.65507" lon="12.28101">
        <ele>1990.07</ele>
        <time>2017-02-27T11:46:51Z</time>
      </trkpt>
      <trkpt lat="46.65499" lon="12.28097">
        <ele>1992.95</ele>
        <time>2017-02-27T11:47:11Z</time>
      </trkpt>
      <trkpt lat="46.65494" lon="12.28091">
        <ele>1994.87</ele>
        <time>2017-02-27T11:47:29Z</time>
      </trkpt>
      <trkpt lat="46.65491" lon="12.28089">
        <ele>1996.8</ele>
        <time>2017-02-27T11:47:49Z</time>
      </trkpt>
      <trkpt lat="46.65486" lon="12.28084">
        <ele>1997.76</ele>
        <time>2017-02-27T11:48:03Z</time>
      </trkpt>
      <trkpt lat="46.65479" lon="12.28087">
        <ele>1999.68</ele>
        <time>2017-02-27T11:48:20Z</time>
      </trkpt>
      <trkpt lat="46.65473" lon="12.28092">
        <ele>2001.12</ele>
        <time>2017-02-27T11:48:38Z</time>
      </trkpt>
      <trkpt lat="46.65471" lon="12.28096">
        <ele>2002.08</ele>
        <time>2017-02-27T11:48:56Z</time>
      </trkpt>
      <trkpt lat="46.65468" lon="12.28096">
        <ele>2003.04</ele>
        <time>2017-02-27T11:49:16Z</time>
      </trkpt>
      <trkpt lat="46.6546" lon="12.281">
        <ele>2004.01</ele>
        <time>2017-02-27T11:49:31Z</time>
      </trkpt>
      <trkpt lat="46.6545" lon="12.28104">
        <ele>2004.97</ele>
        <time>2017-02-27T11:49:49Z</time>
      </trkpt>
      <trkpt lat="46.65445" lon="12.28105">
        <ele>2006.41</ele>
        <time>2017-02-27T11:50:03Z</time>
      </trkpt>
      <trkpt lat="46.6544" lon="12.28106">
        <ele>2007.85</ele>
        <time>2017-02-27T11:50:17Z</time>
      </trkpt>
      <trkpt lat="46.65436" lon="12.28112">
        <ele>2009.29</ele>
        <time>2017-02-27T11:50:29Z</time>
      </trkpt>
      <trkpt lat="46.65432" lon="12.28114">
        <ele>2010.73</ele>
        <time>2017-02-27T11:50:43Z</time>
      </trkpt>
      <trkpt lat="46.65427" lon="12.28116">
        <ele>2012.18</ele>
        <time>2017-02-27T11:50:55Z</time>
      </trkpt>
      <trkpt lat="46.65424" lon="12.28117">
        <ele>2013.62</ele>
        <time>2017-02-27T11:51:10Z</time>
      </trkpt>
      <trkpt lat="46.65418" lon="12.28117">
        <ele>2015.06</ele>
        <time>2017-02-27T11:51:24Z</time>
      </trkpt>
      <trkpt lat="46.6541" lon="12.28118">
        <ele>2016.5</ele>
        <time>2017-02-27T11:51:39Z</time>
      </trkpt>
      <trkpt lat="46.65406" lon="12.28121">
        <ele>2017.94</ele>
        <time>2017-02-27T11:51:51Z</time>
      </trkpt>
      <trkpt lat="46.65405" lon="12.28117">
        <ele>2018.91</ele>
        <time>2017-02-27T11:52:04Z</time>
      </trkpt>
      <trkpt lat="46.65404" lon="12.28117">
        <ele>2018.91</ele>
        <time>2017-02-27T11:52:05Z</time>
      </trkpt>
      <trkpt lat="46.65401" lon="12.28114">
        <ele>2019.87</ele>
        <time>2017-02-27T11:52:18Z</time>
      </trkpt>
      <trkpt lat="46.65396" lon="12.28113">
        <ele>2021.31</ele>
        <time>2017-02-27T11:52:31Z</time>
      </trkpt>
      <trkpt lat="46.65391" lon="12.28115">
        <ele>2022.75</ele>
        <time>2017-02-27T11:52:45Z</time>
      </trkpt>
      <trkpt lat="46.65388" lon="12.28117">
        <ele>2024.19</ele>
        <time>2017-02-27T11:52:59Z</time>
      </trkpt>
      <trkpt lat="46.65382" lon="12.28118">
        <ele>2025.15</ele>
        <time>2017-02-27T11:53:13Z</time>
      </trkpt>
      <trkpt lat="46.65379" lon="12.2812">
        <ele>2026.6</ele>
        <time>2017-02-27T11:53:26Z</time>
      </trkpt>
      <trkpt lat="46.65377" lon="12.2812">
        <ele>2028.04</ele>
        <time>2017-02-27T11:53:41Z</time>
      </trkpt>
      <trkpt lat="46.65374" lon="12.28111">
        <ele>2029.48</ele>
        <time>2017-02-27T11:53:56Z</time>
      </trkpt>
      <trkpt lat="46.6537" lon="12.28106">
        <ele>2030.44</ele>
        <time>2017-02-27T11:54:09Z</time>
      </trkpt>
      <trkpt lat="46.65365" lon="12.28106">
        <ele>2032.36</ele>
        <time>2017-02-27T11:54:23Z</time>
      </trkpt>
      <trkpt lat="46.65361" lon="12.28109">
        <ele>2033.33</ele>
        <time>2017-02-27T11:54:36Z</time>
      </trkpt>
      <trkpt lat="46.65358" lon="12.28111">
        <ele>2034.77</ele>
        <time>2017-02-27T11:54:48Z</time>
      </trkpt>
      <trkpt lat="46.65354" lon="12.28106">
        <ele>2036.21</ele>
        <time>2017-02-27T11:55:02Z</time>
      </trkpt>
      <trkpt lat="46.65351" lon="12.28104">
        <ele>2037.65</ele>
        <time>2017-02-27T11:55:16Z</time>
      </trkpt>
      <trkpt lat="46.65347" lon="12.28105">
        <ele>2039.09</ele>
        <time>2017-02-27T11:55:29Z</time>
      </trkpt>
      <trkpt lat="46.65344" lon="12.28106">
        <ele>2040.05</ele>
        <time>2017-02-27T11:55:43Z</time>
      </trkpt>
      <trkpt lat="46.65339" lon="12.28106">
        <ele>2041.5</ele>
        <time>2017-02-27T11:55:57Z</time>
      </trkpt>
      <trkpt lat="46.65336" lon="12.28111">
        <ele>2043.42</ele>
        <time>2017-02-27T11:56:12Z</time>
      </trkpt>
      <trkpt lat="46.65332" lon="12.28114">
        <ele>2044.86</ele>
        <time>2017-02-27T11:56:28Z</time>
      </trkpt>
      <trkpt lat="46.65328" lon="12.28114">
        <ele>2045.82</ele>
        <time>2017-02-27T11:56:41Z</time>
      </trkpt>
      <trkpt lat="46.65325" lon="12.28115">
        <ele>2047.75</ele>
        <time>2017-02-27T11:56:55Z</time>
      </trkpt>
      <trkpt lat="46.65325" lon="12.28115">
        <ele>2048.71</ele>
        <time>2017-02-27T11:57:09Z</time>
      </trkpt>
      <trkpt lat="46.6532" lon="12.28113">
        <ele>2049.67</ele>
        <time>2017-02-27T11:57:21Z</time>
      </trkpt>
      <trkpt lat="46.65318" lon="12.28112">
        <ele>2051.59</ele>
        <time>2017-02-27T11:57:34Z</time>
      </trkpt>
      <trkpt lat="46.65317" lon="12.2811">
        <ele>2052.55</ele>
        <time>2017-02-27T11:57:45Z</time>
      </trkpt>
      <trkpt lat="46.65313" lon="12.28106">
        <ele>2053.51</ele>
        <time>2017-02-27T11:57:58Z</time>
      </trkpt>
      <trkpt lat="46.65309" lon="12.28103">
        <ele>2054.96</ele>
        <time>2017-02-27T11:58:11Z</time>
      </trkpt>
      <trkpt lat="46.65308" lon="12.28104">
        <ele>2055.92</ele>
        <time>2017-02-27T11:58:24Z</time>
      </trkpt>
      <trkpt lat="46.65305" lon="12.28102">
        <ele>2057.36</ele>
        <time>2017-02-27T11:58:39Z</time>
      </trkpt>
      <trkpt lat="46.65299" lon="12.28102">
        <ele>2058.32</ele>
        <time>2017-02-27T11:58:52Z</time>
      </trkpt>
      <trkpt lat="46.65295" lon="12.28102">
        <ele>2059.76</ele>
        <time>2017-02-27T11:59:04Z</time>
      </trkpt>
      <trkpt lat="46.65294" lon="12.28103">
        <ele>2061.68</ele>
        <time>2017-02-27T11:59:16Z</time>
      </trkpt>
      <trkpt lat="46.6529" lon="12.28101">
        <ele>2062.65</ele>
        <time>2017-02-27T11:59:30Z</time>
      </trkpt>
      <trkpt lat="46.65286" lon="12.28099">
        <ele>2064.09</ele>
        <time>2017-02-27T11:59:45Z</time>
      </trkpt>
      <trkpt lat="46.65283" lon="12.28099">
        <ele>2065.05</ele>
        <time>2017-02-27T11:59:56Z</time>
      </trkpt>
      <trkpt lat="46.6528" lon="12.28098">
        <ele>2066.49</ele>
        <time>2017-02-27T12:00:09Z</time>
      </trkpt>
      <trkpt lat="46.65278" lon="12.28094">
        <ele>2067.45</ele>
        <time>2017-02-27T12:00:21Z</time>
      </trkpt>
      <trkpt lat="46.65279" lon="12.2809">
        <ele>2069.38</ele>
        <time>2017-02-27T12:00:34Z</time>
      </trkpt>
      <trkpt lat="46.65279" lon="12.28084">
        <ele>2070.82</ele>
        <time>2017-02-27T12:00:48Z</time>
      </trkpt>
      <trkpt lat="46.65274" lon="12.28082">
        <ele>2071.3</ele>
        <time>2017-02-27T12:01:01Z</time>
      </trkpt>
      <trkpt lat="46.65271" lon="12.28078">
        <ele>2074.18</ele>
        <time>2017-02-27T12:01:15Z</time>
      </trkpt>
      <trkpt lat="46.6527" lon="12.28078">
        <ele>2073.22</ele>
        <time>2017-02-27T12:01:16Z</time>
      </trkpt>
      <trkpt lat="46.65266" lon="12.28078">
        <ele>2073.7</ele>
        <time>2017-02-27T12:01:29Z</time>
      </trkpt>
      <trkpt lat="46.65262" lon="12.28076">
        <ele>2075.62</ele>
        <time>2017-02-27T12:01:44Z</time>
      </trkpt>
      <trkpt lat="46.65258" lon="12.28076">
        <ele>2076.59</ele>
        <time>2017-02-27T12:02:00Z</time>
      </trkpt>
      <trkpt lat="46.65252" lon="12.28072">
        <ele>2078.51</ele>
        <time>2017-02-27T12:02:17Z</time>
      </trkpt>
      <trkpt lat="46.65248" lon="12.2807">
        <ele>2079.95</ele>
        <time>2017-02-27T12:02:31Z</time>
      </trkpt>
      <trkpt lat="46.65243" lon="12.28068">
        <ele>2081.39</ele>
        <time>2017-02-27T12:02:47Z</time>
      </trkpt>
      <trkpt lat="46.65239" lon="12.28067">
        <ele>2082.83</ele>
        <time>2017-02-27T12:03:02Z</time>
      </trkpt>
      <trkpt lat="46.65235" lon="12.28066">
        <ele>2084.28</ele>
        <time>2017-02-27T12:03:15Z</time>
      </trkpt>
      <trkpt lat="46.65229" lon="12.28064">
        <ele>2085.72</ele>
        <time>2017-02-27T12:03:28Z</time>
      </trkpt>
      <trkpt lat="46.65224" lon="12.28062">
        <ele>2086.68</ele>
        <time>2017-02-27T12:03:42Z</time>
      </trkpt>
      <trkpt lat="46.65217" lon="12.2806">
        <ele>2088.6</ele>
        <time>2017-02-27T12:03:59Z</time>
      </trkpt>
      <trkpt lat="46.65213" lon="12.2806">
        <ele>2090.04</ele>
        <time>2017-02-27T12:04:14Z</time>
      </trkpt>
      <trkpt lat="46.65211" lon="12.28054">
        <ele>2091.49</ele>
        <time>2017-02-27T12:04:30Z</time>
      </trkpt>
      <trkpt lat="46.65208" lon="12.2805">
        <ele>2092.93</ele>
        <time>2017-02-27T12:04:44Z</time>
      </trkpt>
      <trkpt lat="46.65202" lon="12.28049">
        <ele>2093.89</ele>
        <time>2017-02-27T12:05:00Z</time>
      </trkpt>
      <trkpt lat="46.65196" lon="12.28048">
        <ele>2095.33</ele>
        <time>2017-02-27T12:05:15Z</time>
      </trkpt>
      <trkpt lat="46.65192" lon="12.28047">
        <ele>2096.77</ele>
        <time>2017-02-27T12:05:31Z</time>
      </trkpt>
      <trkpt lat="46.65189" lon="12.28047">
        <ele>2098.21</ele>
        <time>2017-02-27T12:05:46Z</time>
      </trkpt>
      <trkpt lat="46.65184" lon="12.28047">
        <ele>2099.66</ele>
        <time>2017-02-27T12:06:01Z</time>
      </trkpt>
      <trkpt lat="46.6518" lon="12.28047">
        <ele>2100.62</ele>
        <time>2017-02-27T12:06:15Z</time>
      </trkpt>
      <trkpt lat="46.65176" lon="12.2805">
        <ele>2102.06</ele>
        <time>2017-02-27T12:06:29Z</time>
      </trkpt>
      <trkpt lat="46.65173" lon="12.28052">
        <ele>2103.5</ele>
        <time>2017-02-27T12:06:44Z</time>
      </trkpt>
      <trkpt lat="46.6517" lon="12.28049">
        <ele>2104.94</ele>
        <time>2017-02-27T12:06:58Z</time>
      </trkpt>
      <trkpt lat="46.65169" lon="12.28044">
        <ele>2106.39</ele>
        <time>2017-02-27T12:07:11Z</time>
      </trkpt>
      <trkpt lat="46.65168" lon="12.2804">
        <ele>2106.87</ele>
        <time>2017-02-27T12:07:28Z</time>
      </trkpt>
      <trkpt lat="46.65166" lon="12.28036">
        <ele>2108.31</ele>
        <time>2017-02-27T12:07:41Z</time>
      </trkpt>
      <trkpt lat="46.65163" lon="12.28029">
        <ele>2109.27</ele>
        <time>2017-02-27T12:07:54Z</time>
      </trkpt>
      <trkpt lat="46.65161" lon="12.28025">
        <ele>2110.71</ele>
        <time>2017-02-27T12:08:08Z</time>
      </trkpt>
      <trkpt lat="46.65157" lon="12.28022">
        <ele>2111.67</ele>
        <time>2017-02-27T12:08:22Z</time>
      </trkpt>
      <trkpt lat="46.65152" lon="12.28021">
        <ele>2113.12</ele>
        <time>2017-02-27T12:08:35Z</time>
      </trkpt>
      <trkpt lat="46.65149" lon="12.28023">
        <ele>2114.56</ele>
        <time>2017-02-27T12:08:49Z</time>
      </trkpt>
      <trkpt lat="46.65146" lon="12.28026">
        <ele>2116</ele>
        <time>2017-02-27T12:09:04Z</time>
      </trkpt>
      <trkpt lat="46.65146" lon="12.28024">
        <ele>2116.96</ele>
        <time>2017-02-27T12:09:20Z</time>
      </trkpt>
      <trkpt lat="46.65141" lon="12.28018">
        <ele>2117.92</ele>
        <time>2017-02-27T12:09:31Z</time>
      </trkpt>
      <trkpt lat="46.65136" lon="12.28019">
        <ele>2119.36</ele>
        <time>2017-02-27T12:09:45Z</time>
      </trkpt>
      <trkpt lat="46.65138" lon="12.28018">
        <ele>2120.81</ele>
        <time>2017-02-27T12:09:56Z</time>
      </trkpt>
      <trkpt lat="46.65135" lon="12.28014">
        <ele>2121.77</ele>
        <time>2017-02-27T12:10:08Z</time>
      </trkpt>
      <trkpt lat="46.65132" lon="12.28012">
        <ele>2122.73</ele>
        <time>2017-02-27T12:10:19Z</time>
      </trkpt>
      <trkpt lat="46.6513" lon="12.28012">
        <ele>2124.17</ele>
        <time>2017-02-27T12:10:31Z</time>
      </trkpt>
      <trkpt lat="46.6513" lon="12.28008">
        <ele>2125.13</ele>
        <time>2017-02-27T12:10:43Z</time>
      </trkpt>
      <trkpt lat="46.6513" lon="12.28004">
        <ele>2126.09</ele>
        <time>2017-02-27T12:10:56Z</time>
      </trkpt>
      <trkpt lat="46.65125" lon="12.28002">
        <ele>2127.53</ele>
        <time>2017-02-27T12:11:09Z</time>
      </trkpt>
      <trkpt lat="46.6512" lon="12.28002">
        <ele>2128.98</ele>
        <time>2017-02-27T12:11:22Z</time>
      </trkpt>
      <trkpt lat="46.65115" lon="12.28">
        <ele>2129.94</ele>
        <time>2017-02-27T12:11:37Z</time>
      </trkpt>
      <trkpt lat="46.65117" lon="12.27999">
        <ele>2131.38</ele>
        <time>2017-02-27T12:11:49Z</time>
      </trkpt>
      <trkpt lat="46.65118" lon="12.27996">
        <ele>2132.82</ele>
        <time>2017-02-27T12:11:59Z</time>
      </trkpt>
      <trkpt lat="46.65118" lon="12.27992">
        <ele>2133.3</ele>
        <time>2017-02-27T12:12:10Z</time>
      </trkpt>
      <trkpt lat="46.65117" lon="12.27987">
        <ele>2134.74</ele>
        <time>2017-02-27T12:12:22Z</time>
      </trkpt>
      <trkpt lat="46.65114" lon="12.27982">
        <ele>2135.71</ele>
        <time>2017-02-27T12:12:35Z</time>
      </trkpt>
      <trkpt lat="46.65109" lon="12.27982">
        <ele>2137.15</ele>
        <time>2017-02-27T12:12:49Z</time>
      </trkpt>
      <trkpt lat="46.65107" lon="12.27982">
        <ele>2138.11</ele>
        <time>2017-02-27T12:13:03Z</time>
      </trkpt>
      <trkpt lat="46.65107" lon="12.27978">
        <ele>2139.55</ele>
        <time>2017-02-27T12:13:17Z</time>
      </trkpt>
      <trkpt lat="46.65103" lon="12.27973">
        <ele>2140.51</ele>
        <time>2017-02-27T12:13:30Z</time>
      </trkpt>
      <trkpt lat="46.65099" lon="12.27972">
        <ele>2141.95</ele>
        <time>2017-02-27T12:13:42Z</time>
      </trkpt>
      <trkpt lat="46.65096" lon="12.27969">
        <ele>2143.4</ele>
        <time>2017-02-27T12:13:57Z</time>
      </trkpt>
      <trkpt lat="46.65093" lon="12.27963">
        <ele>2144.84</ele>
        <time>2017-02-27T12:14:10Z</time>
      </trkpt>
      <trkpt lat="46.65089" lon="12.27962">
        <ele>2145.32</ele>
        <time>2017-02-27T12:14:23Z</time>
      </trkpt>
      <trkpt lat="46.65087" lon="12.27963">
        <ele>2146.76</ele>
        <time>2017-02-27T12:14:35Z</time>
      </trkpt>
      <trkpt lat="46.65085" lon="12.27964">
        <ele>2148.2</ele>
        <time>2017-02-27T12:14:48Z</time>
      </trkpt>
      <trkpt lat="46.6508" lon="12.27965">
        <ele>2149.16</ele>
        <time>2017-02-27T12:15:00Z</time>
      </trkpt>
      <trkpt lat="46.65076" lon="12.27966">
        <ele>2150.13</ele>
        <time>2017-02-27T12:15:13Z</time>
      </trkpt>
      <trkpt lat="46.65075" lon="12.27967">
        <ele>2151.57</ele>
        <time>2017-02-27T12:15:26Z</time>
      </trkpt>
      <trkpt lat="46.65073" lon="12.27962">
        <ele>2152.53</ele>
        <time>2017-02-27T12:15:39Z</time>
      </trkpt>
      <trkpt lat="46.65073" lon="12.27956">
        <ele>2153.97</ele>
        <time>2017-02-27T12:15:54Z</time>
      </trkpt>
      <trkpt lat="46.65067" lon="12.27952">
        <ele>2155.41</ele>
        <time>2017-02-27T12:16:08Z</time>
      </trkpt>
      <trkpt lat="46.65064" lon="12.27954">
        <ele>2156.37</ele>
        <time>2017-02-27T12:16:19Z</time>
      </trkpt>
      <trkpt lat="46.6506" lon="12.27955">
        <ele>2157.34</ele>
        <time>2017-02-27T12:16:32Z</time>
      </trkpt>
      <trkpt lat="46.65061" lon="12.2795">
        <ele>2158.78</ele>
        <time>2017-02-27T12:16:46Z</time>
      </trkpt>
      <trkpt lat="46.65059" lon="12.27944">
        <ele>2160.22</ele>
        <time>2017-02-27T12:17:01Z</time>
      </trkpt>
      <trkpt lat="46.65061" lon="12.2794">
        <ele>2161.18</ele>
        <time>2017-02-27T12:17:12Z</time>
      </trkpt>
      <trkpt lat="46.65055" lon="12.27937">
        <ele>2162.14</ele>
        <time>2017-02-27T12:17:26Z</time>
      </trkpt>
      <trkpt lat="46.6505" lon="12.27937">
        <ele>2163.1</ele>
        <time>2017-02-27T12:17:39Z</time>
      </trkpt>
      <trkpt lat="46.65049" lon="12.2794">
        <ele>2164.55</ele>
        <time>2017-02-27T12:17:54Z</time>
      </trkpt>
      <trkpt lat="46.65048" lon="12.2794">
        <ele>2165.99</ele>
        <time>2017-02-27T12:18:08Z</time>
      </trkpt>
      <trkpt lat="46.65046" lon="12.27936">
        <ele>2166.95</ele>
        <time>2017-02-27T12:18:19Z</time>
      </trkpt>
      <trkpt lat="46.65045" lon="12.27931">
        <ele>2167.91</ele>
        <time>2017-02-27T12:18:31Z</time>
      </trkpt>
      <trkpt lat="46.65046" lon="12.27926">
        <ele>2169.35</ele>
        <time>2017-02-27T12:18:43Z</time>
      </trkpt>
      <trkpt lat="46.65043" lon="12.27921">
        <ele>2170.31</ele>
        <time>2017-02-27T12:18:55Z</time>
      </trkpt>
      <trkpt lat="46.65038" lon="12.27917">
        <ele>2171.76</ele>
        <time>2017-02-27T12:19:08Z</time>
      </trkpt>
      <trkpt lat="46.65037" lon="12.27917">
        <ele>2173.68</ele>
        <time>2017-02-27T12:19:20Z</time>
      </trkpt>
      <trkpt lat="46.65035" lon="12.27914">
        <ele>2174.16</ele>
        <time>2017-02-27T12:19:32Z</time>
      </trkpt>
      <trkpt lat="46.65033" lon="12.27912">
        <ele>2175.12</ele>
        <time>2017-02-27T12:19:45Z</time>
      </trkpt>
      <trkpt lat="46.6503" lon="12.2791">
        <ele>2176.08</ele>
        <time>2017-02-27T12:19:57Z</time>
      </trkpt>
      <trkpt lat="46.65027" lon="12.27908">
        <ele>2177.52</ele>
        <time>2017-02-27T12:20:10Z</time>
      </trkpt>
      <trkpt lat="46.65024" lon="12.27906">
        <ele>2178.48</ele>
        <time>2017-02-27T12:20:22Z</time>
      </trkpt>
      <trkpt lat="46.65018" lon="12.27905">
        <ele>2179.45</ele>
        <time>2017-02-27T12:20:34Z</time>
      </trkpt>
      <trkpt lat="46.65016" lon="12.27907">
        <ele>2180.41</ele>
        <time>2017-02-27T12:20:47Z</time>
      </trkpt>
      <trkpt lat="46.65011" lon="12.2791">
        <ele>2182.33</ele>
        <time>2017-02-27T12:21:02Z</time>
      </trkpt>
      <trkpt lat="46.65011" lon="12.27907">
        <ele>2183.29</ele>
        <time>2017-02-27T12:21:15Z</time>
      </trkpt>
      <trkpt lat="46.6501" lon="12.27902">
        <ele>2184.25</ele>
        <time>2017-02-27T12:21:26Z</time>
      </trkpt>
      <trkpt lat="46.65007" lon="12.27897">
        <ele>2185.21</ele>
        <time>2017-02-27T12:21:39Z</time>
      </trkpt>
      <trkpt lat="46.65001" lon="12.27897">
        <ele>2186.66</ele>
        <time>2017-02-27T12:21:51Z</time>
      </trkpt>
      <trkpt lat="46.65001" lon="12.27899">
        <ele>2187.62</ele>
        <time>2017-02-27T12:22:04Z</time>
      </trkpt>
      <trkpt lat="46.65" lon="12.27898">
        <ele>2189.06</ele>
        <time>2017-02-27T12:22:17Z</time>
      </trkpt>
      <trkpt lat="46.64997" lon="12.27892">
        <ele>2190.02</ele>
        <time>2017-02-27T12:22:30Z</time>
      </trkpt>
      <trkpt lat="46.64992" lon="12.27891">
        <ele>2191.46</ele>
        <time>2017-02-27T12:22:43Z</time>
      </trkpt>
      <trkpt lat="46.64989" lon="12.27894">
        <ele>2192.9</ele>
        <time>2017-02-27T12:22:57Z</time>
      </trkpt>
      <trkpt lat="46.64987" lon="12.27895">
        <ele>2193.87</ele>
        <time>2017-02-27T12:23:10Z</time>
      </trkpt>
      <trkpt lat="46.64986" lon="12.27891">
        <ele>2195.31</ele>
        <time>2017-02-27T12:23:23Z</time>
      </trkpt>
      <trkpt lat="46.64981" lon="12.27886">
        <ele>2196.75</ele>
        <time>2017-02-27T12:23:37Z</time>
      </trkpt>
      <trkpt lat="46.64977" lon="12.27888">
        <ele>2197.71</ele>
        <time>2017-02-27T12:23:50Z</time>
      </trkpt>
      <trkpt lat="46.64975" lon="12.27892">
        <ele>2198.67</ele>
        <time>2017-02-27T12:24:03Z</time>
      </trkpt>
      <trkpt lat="46.64972" lon="12.27896">
        <ele>2200.11</ele>
        <time>2017-02-27T12:24:17Z</time>
      </trkpt>
      <trkpt lat="46.6497" lon="12.27897">
        <ele>2201.56</ele>
        <time>2017-02-27T12:24:31Z</time>
      </trkpt>
      <trkpt lat="46.64968" lon="12.27896">
        <ele>2202.52</ele>
        <time>2017-02-27T12:24:44Z</time>
      </trkpt>
      <trkpt lat="46.64967" lon="12.27894">
        <ele>2203.96</ele>
        <time>2017-02-27T12:24:56Z</time>
      </trkpt>
      <trkpt lat="46.64964" lon="12.27889">
        <ele>2204.92</ele>
        <time>2017-02-27T12:25:08Z</time>
      </trkpt>
      <trkpt lat="46.6496" lon="12.27885">
        <ele>2205.88</ele>
        <time>2017-02-27T12:25:21Z</time>
      </trkpt>
      <trkpt lat="46.64957" lon="12.27884">
        <ele>2206.84</ele>
        <time>2017-02-27T12:25:33Z</time>
      </trkpt>
      <trkpt lat="46.64952" lon="12.27882">
        <ele>2207.81</ele>
        <time>2017-02-27T12:25:47Z</time>
      </trkpt>
      <trkpt lat="46.64948" lon="12.27882">
        <ele>2209.25</ele>
        <time>2017-02-27T12:26:01Z</time>
      </trkpt>
      <trkpt lat="46.64942" lon="12.27882">
        <ele>2210.69</ele>
        <time>2017-02-27T12:26:16Z</time>
      </trkpt>
      <trkpt lat="46.64941" lon="12.27885">
        <ele>2211.65</ele>
        <time>2017-02-27T12:26:31Z</time>
      </trkpt>
      <trkpt lat="46.64938" lon="12.27883">
        <ele>2213.09</ele>
        <time>2017-02-27T12:26:44Z</time>
      </trkpt>
      <trkpt lat="46.64937" lon="12.27879">
        <ele>2214.53</ele>
        <time>2017-02-27T12:26:58Z</time>
      </trkpt>
      <trkpt lat="46.64935" lon="12.27875">
        <ele>2215.5</ele>
        <time>2017-02-27T12:27:12Z</time>
      </trkpt>
      <trkpt lat="46.64929" lon="12.27875">
        <ele>2216.94</ele>
        <time>2017-02-27T12:27:25Z</time>
      </trkpt>
      <trkpt lat="46.64925" lon="12.27876">
        <ele>2218.38</ele>
        <time>2017-02-27T12:27:39Z</time>
      </trkpt>
      <trkpt lat="46.64922" lon="12.27875">
        <ele>2219.34</ele>
        <time>2017-02-27T12:27:52Z</time>
      </trkpt>
      <trkpt lat="46.6492" lon="12.27876">
        <ele>2220.78</ele>
        <time>2017-02-27T12:28:05Z</time>
      </trkpt>
      <trkpt lat="46.64918" lon="12.27872">
        <ele>2222.22</ele>
        <time>2017-02-27T12:28:17Z</time>
      </trkpt>
      <trkpt lat="46.64917" lon="12.27871">
        <ele>2223.19</ele>
        <time>2017-02-27T12:28:30Z</time>
      </trkpt>
      <trkpt lat="46.64913" lon="12.27865">
        <ele>2224.15</ele>
        <time>2017-02-27T12:28:43Z</time>
      </trkpt>
      <trkpt lat="46.64908" lon="12.27865">
        <ele>2225.59</ele>
        <time>2017-02-27T12:28:57Z</time>
      </trkpt>
      <trkpt lat="46.64904" lon="12.27868">
        <ele>2227.03</ele>
        <time>2017-02-27T12:29:12Z</time>
      </trkpt>
      <trkpt lat="46.64902" lon="12.27869">
        <ele>2228.47</ele>
        <time>2017-02-27T12:29:25Z</time>
      </trkpt>
      <trkpt lat="46.64899" lon="12.27865">
        <ele>2229.92</ele>
        <time>2017-02-27T12:29:39Z</time>
      </trkpt>
      <trkpt lat="46.64896" lon="12.2786">
        <ele>2230.88</ele>
        <time>2017-02-27T12:29:53Z</time>
      </trkpt>
      <trkpt lat="46.6489" lon="12.27858">
        <ele>2232.32</ele>
        <time>2017-02-27T12:30:07Z</time>
      </trkpt>
      <trkpt lat="46.64885" lon="12.27861">
        <ele>2234.24</ele>
        <time>2017-02-27T12:30:22Z</time>
      </trkpt>
      <trkpt lat="46.64881" lon="12.27864">
        <ele>2235.68</ele>
        <time>2017-02-27T12:30:37Z</time>
      </trkpt>
      <trkpt lat="46.64879" lon="12.27862">
        <ele>2237.13</ele>
        <time>2017-02-27T12:30:57Z</time>
      </trkpt>
      <trkpt lat="46.64876" lon="12.27853">
        <ele>2239.05</ele>
        <time>2017-02-27T12:31:20Z</time>
      </trkpt>
      <trkpt lat="46.64872" lon="12.27849">
        <ele>2240.49</ele>
        <time>2017-02-27T12:31:35Z</time>
      </trkpt>
      <trkpt lat="46.64865" lon="12.27846">
        <ele>2241.93</ele>
        <time>2017-02-27T12:31:51Z</time>
      </trkpt>
      <trkpt lat="46.64858" lon="12.27846">
        <ele>2243.37</ele>
        <time>2017-02-27T12:32:07Z</time>
      </trkpt>
      <trkpt lat="46.64852" lon="12.27847">
        <ele>2244.82</ele>
        <time>2017-02-27T12:32:23Z</time>
      </trkpt>
      <trkpt lat="46.64846" lon="12.27848">
        <ele>2246.26</ele>
        <time>2017-02-27T12:32:38Z</time>
      </trkpt>
      <trkpt lat="46.6484" lon="12.27849">
        <ele>2247.22</ele>
        <time>2017-02-27T12:32:53Z</time>
      </trkpt>
      <trkpt lat="46.64836" lon="12.27849">
        <ele>2248.18</ele>
        <time>2017-02-27T12:33:07Z</time>
      </trkpt>
      <trkpt lat="46.64832" lon="12.27847">
        <ele>2249.62</ele>
        <time>2017-02-27T12:33:22Z</time>
      </trkpt>
      <trkpt lat="46.6483" lon="12.27843">
        <ele>2251.06</ele>
        <time>2017-02-27T12:33:36Z</time>
      </trkpt>
      <trkpt lat="46.64826" lon="12.2784">
        <ele>2252.51</ele>
        <time>2017-02-27T12:33:51Z</time>
      </trkpt>
      <trkpt lat="46.64821" lon="12.2784">
        <ele>2253.47</ele>
        <time>2017-02-27T12:34:04Z</time>
      </trkpt>
      <trkpt lat="46.64817" lon="12.27841">
        <ele>2254.91</ele>
        <time>2017-02-27T12:34:19Z</time>
      </trkpt>
      <trkpt lat="46.64812" lon="12.27844">
        <ele>2255.87</ele>
        <time>2017-02-27T12:34:34Z</time>
      </trkpt>
      <trkpt lat="46.64811" lon="12.27844">
        <ele>2257.31</ele>
        <time>2017-02-27T12:34:46Z</time>
      </trkpt>
      <trkpt lat="46.64809" lon="12.27839">
        <ele>2258.75</ele>
        <time>2017-02-27T12:35:02Z</time>
      </trkpt>
      <trkpt lat="46.64804" lon="12.27838">
        <ele>2260.2</ele>
        <time>2017-02-27T12:35:17Z</time>
      </trkpt>
      <trkpt lat="46.64801" lon="12.27837">
        <ele>2261.64</ele>
        <time>2017-02-27T12:35:30Z</time>
      </trkpt>
      <trkpt lat="46.648" lon="12.27834">
        <ele>2262.12</ele>
        <time>2017-02-27T12:35:43Z</time>
      </trkpt>
      <trkpt lat="46.64797" lon="12.27829">
        <ele>2263.56</ele>
        <time>2017-02-27T12:35:57Z</time>
      </trkpt>
      <trkpt lat="46.64794" lon="12.27824">
        <ele>2265</ele>
        <time>2017-02-27T12:36:11Z</time>
      </trkpt>
      <trkpt lat="46.64793" lon="12.27819">
        <ele>2265.96</ele>
        <time>2017-02-27T12:36:26Z</time>
      </trkpt>
      <trkpt lat="46.64786" lon="12.27817">
        <ele>2267.41</ele>
        <time>2017-02-27T12:36:40Z</time>
      </trkpt>
      <trkpt lat="46.64782" lon="12.27822">
        <ele>2268.37</ele>
        <time>2017-02-27T12:36:52Z</time>
      </trkpt>
      <trkpt lat="46.64778" lon="12.27828">
        <ele>2268.85</ele>
        <time>2017-02-27T12:37:05Z</time>
      </trkpt>
      <trkpt lat="46.64776" lon="12.27834">
        <ele>2270.29</ele>
        <time>2017-02-27T12:37:18Z</time>
      </trkpt>
      <trkpt lat="46.64777" lon="12.27837">
        <ele>2271.25</ele>
        <time>2017-02-27T12:37:32Z</time>
      </trkpt>
      <trkpt lat="46.64775" lon="12.27833">
        <ele>2272.21</ele>
        <time>2017-02-27T12:37:46Z</time>
      </trkpt>
      <trkpt lat="46.64771" lon="12.27832">
        <ele>2273.66</ele>
        <time>2017-02-27T12:38:02Z</time>
      </trkpt>
      <trkpt lat="46.64769" lon="12.27838">
        <ele>2274.14</ele>
        <time>2017-02-27T12:38:15Z</time>
      </trkpt>
      <trkpt lat="46.64768" lon="12.27843">
        <ele>2275.58</ele>
        <time>2017-02-27T12:38:29Z</time>
      </trkpt>
      <trkpt lat="46.64766" lon="12.27846">
        <ele>2277.02</ele>
        <time>2017-02-27T12:38:44Z</time>
      </trkpt>
      <trkpt lat="46.64765" lon="12.27842">
        <ele>2277.98</ele>
        <time>2017-02-27T12:38:57Z</time>
      </trkpt>
      <trkpt lat="46.64761" lon="12.27839">
        <ele>2278.94</ele>
        <time>2017-02-27T12:39:11Z</time>
      </trkpt>
      <trkpt lat="46.64758" lon="12.27844">
        <ele>2279.9</ele>
        <time>2017-02-27T12:39:25Z</time>
      </trkpt>
      <trkpt lat="46.64756" lon="12.27851">
        <ele>2281.83</ele>
        <time>2017-02-27T12:39:40Z</time>
      </trkpt>
      <trkpt lat="46.64756" lon="12.27847">
        <ele>2282.79</ele>
        <time>2017-02-27T12:39:54Z</time>
      </trkpt>
      <trkpt lat="46.64753" lon="12.27843">
        <ele>2284.23</ele>
        <time>2017-02-27T12:40:10Z</time>
      </trkpt>
      <trkpt lat="46.64748" lon="12.27844">
        <ele>2285.19</ele>
        <time>2017-02-27T12:40:24Z</time>
      </trkpt>
      <trkpt lat="46.64747" lon="12.27849">
        <ele>2286.15</ele>
        <time>2017-02-27T12:40:36Z</time>
      </trkpt>
      <trkpt lat="46.64747" lon="12.27854">
        <ele>2287.11</ele>
        <time>2017-02-27T12:40:48Z</time>
      </trkpt>
      <trkpt lat="46.64748" lon="12.27852">
        <ele>2288.08</ele>
        <time>2017-02-27T12:41:02Z</time>
      </trkpt>
      <trkpt lat="46.64745" lon="12.27847">
        <ele>2289.04</ele>
        <time>2017-02-27T12:41:16Z</time>
      </trkpt>
      <trkpt lat="46.6474" lon="12.27844">
        <ele>2290</ele>
        <time>2017-02-27T12:41:31Z</time>
      </trkpt>
      <trkpt lat="46.64737" lon="12.27851">
        <ele>2291.44</ele>
        <time>2017-02-27T12:41:45Z</time>
      </trkpt>
      <trkpt lat="46.64737" lon="12.27852">
        <ele>2292.4</ele>
        <time>2017-02-27T12:41:54Z</time>
      </trkpt>
      <trkpt lat="46.64733" lon="12.27849">
        <ele>2293.36</ele>
        <time>2017-02-27T12:42:08Z</time>
      </trkpt>
      <trkpt lat="46.6473" lon="12.27848">
        <ele>2294.8</ele>
        <time>2017-02-27T12:42:25Z</time>
      </trkpt>
      <trkpt lat="46.64725" lon="12.27849">
        <ele>2296.25</ele>
        <time>2017-02-27T12:42:39Z</time>
      </trkpt>
      <trkpt lat="46.64723" lon="12.27853">
        <ele>2297.69</ele>
        <time>2017-02-27T12:42:52Z</time>
      </trkpt>
      <trkpt lat="46.6472" lon="12.27852">
        <ele>2299.13</ele>
        <time>2017-02-27T12:43:08Z</time>
      </trkpt>
      <trkpt lat="46.6472" lon="12.27854">
        <ele>2299.13</ele>
        <time>2017-02-27T12:43:24Z</time>
      </trkpt>
      <trkpt lat="46.64718" lon="12.27854">
        <ele>2299.61</ele>
        <time>2017-02-27T12:43:38Z</time>
      </trkpt>
      <trkpt lat="46.64716" lon="12.27854">
        <ele>2300.09</ele>
        <time>2017-02-27T12:43:53Z</time>
      </trkpt>
      <trkpt lat="46.64714" lon="12.27848">
        <ele>2300.09</ele>
        <time>2017-02-27T12:44:06Z</time>
      </trkpt>
      <trkpt lat="46.64716" lon="12.27848">
        <ele>2300.57</ele>
        <time>2017-02-27T12:44:24Z</time>
      </trkpt>
      <trkpt lat="46.64713" lon="12.27854">
        <ele>2300.09</ele>
        <time>2017-02-27T12:44:46Z</time>
      </trkpt>
      <trkpt lat="46.64717" lon="12.27849">
        <ele>2300.09</ele>
        <time>2017-02-27T12:45:00Z</time>
      </trkpt>
      <trkpt lat="46.64717" lon="12.27849">
        <ele>2300.09</ele>
        <time>2017-02-27T12:45:14Z</time>
      </trkpt>
      <trkpt lat="46.64716" lon="12.27849">
        <ele>2300.09</ele>
        <time>2017-02-27T12:45:30Z</time>
      </trkpt>
      <trkpt lat="46.64717" lon="12.27846">
        <ele>2300.09</ele>
        <time>2017-02-27T12:45:45Z</time>
      </trkpt>
      <trkpt lat="46.64715" lon="12.27849">
        <ele>2299.61</ele>
        <time>2017-02-27T12:46:06Z</time>
      </trkpt>
      <trkpt lat="46.64715" lon="12.2785">
        <ele>2299.13</ele>
        <time>2017-02-27T12:46:19Z</time>
      </trkpt>
      <trkpt lat="46.64716" lon="12.27848">
        <ele>2298.65</ele>
        <time>2017-02-27T12:46:58Z</time>
      </trkpt>
      <trkpt lat="46.64717" lon="12.27849">
        <ele>2298.65</ele>
        <time>2017-02-27T12:47:41Z</time>
      </trkpt>
      <trkpt lat="46.64713" lon="12.27849">
        <ele>2299.13</ele>
        <time>2017-02-27T12:48:15Z</time>
      </trkpt>
      <trkpt lat="46.64712" lon="12.27851">
        <ele>2299.13</ele>
        <time>2017-02-27T12:48:46Z</time>
      </trkpt>
      <trkpt lat="46.64713" lon="12.2785">
        <ele>2299.13</ele>
        <time>2017-02-27T12:49:24Z</time>
      </trkpt>
      <trkpt lat="46.64716" lon="12.27846">
        <ele>2299.61</ele>
        <time>2017-02-27T12:49:56Z</time>
      </trkpt>
      <trkpt lat="46.64719" lon="12.27848">
        <ele>2299.61</ele>
        <time>2017-02-27T12:50:31Z</time>
      </trkpt>
      <trkpt lat="46.64712" lon="12.2785">
        <ele>2300.09</ele>
        <time>2017-02-27T12:51:04Z</time>
      </trkpt>
      <trkpt lat="46.64713" lon="12.27856">
        <ele>2300.57</ele>
        <time>2017-02-27T12:51:41Z</time>
      </trkpt>
      <trkpt lat="46.64712" lon="12.27855">
        <ele>2300.57</ele>
        <time>2017-02-27T12:52:21Z</time>
      </trkpt>
      <trkpt lat="46.6471" lon="12.27858">
        <ele>2301.05</ele>
        <time>2017-02-27T12:52:58Z</time>
      </trkpt>
      <trkpt lat="46.64712" lon="12.27853">
        <ele>2301.05</ele>
        <time>2017-02-27T12:53:38Z</time>
      </trkpt>
      <trkpt lat="46.64714" lon="12.27855">
        <ele>2301.53</ele>
        <time>2017-02-27T12:54:16Z</time>
      </trkpt>
      <trkpt lat="46.64713" lon="12.27858">
        <ele>2302.01</ele>
        <time>2017-02-27T12:54:50Z</time>
      </trkpt>
      <trkpt lat="46.64713" lon="12.27854">
        <ele>2302.01</ele>
        <time>2017-02-27T12:55:27Z</time>
      </trkpt>
      <trkpt lat="46.64712" lon="12.27853">
        <ele>2302.49</ele>
        <time>2017-02-27T12:55:58Z</time>
      </trkpt>
      <trkpt lat="46.64712" lon="12.27851">
        <ele>2302.49</ele>
        <time>2017-02-27T12:56:28Z</time>
      </trkpt>
      <trkpt lat="46.64716" lon="12.2785">
        <ele>2302.98</ele>
        <time>2017-02-27T12:56:55Z</time>
      </trkpt>
      <trkpt lat="46.64711" lon="12.27849">
        <ele>2303.46</ele>
        <time>2017-02-27T12:57:20Z</time>
      </trkpt>
      <trkpt lat="46.64711" lon="12.27846">
        <ele>2303.46</ele>
        <time>2017-02-27T12:57:57Z</time>
      </trkpt>
      <trkpt lat="46.64711" lon="12.27842">
        <ele>2303.46</ele>
        <time>2017-02-27T12:58:22Z</time>
      </trkpt>
      <trkpt lat="46.64711" lon="12.27844">
        <ele>2303.46</ele>
        <time>2017-02-27T12:58:48Z</time>
      </trkpt>
      <trkpt lat="46.64712" lon="12.27846">
        <ele>2303.94</ele>
        <time>2017-02-27T12:59:18Z</time>
      </trkpt>
      <trkpt lat="46.64711" lon="12.27849">
        <ele>2304.9</ele>
        <time>2017-02-27T12:59:44Z</time>
      </trkpt>
      <trkpt lat="46.64711" lon="12.27848">
        <ele>2304.9</ele>
        <time>2017-02-27T13:00:04Z</time>
      </trkpt>
      <trkpt lat="46.64712" lon="12.27846">
        <ele>2304.9</ele>
        <time>2017-02-27T13:00:19Z</time>
      </trkpt>
      <trkpt lat="46.64711" lon="12.27848">
        <ele>2305.38</ele>
        <time>2017-02-27T13:00:40Z</time>
      </trkpt>
      <trkpt lat="46.64709" lon="12.27851">
        <ele>2305.38</ele>
        <time>2017-02-27T13:01:00Z</time>
      </trkpt>
      <trkpt lat="46.64709" lon="12.27851">
        <ele>2305.38</ele>
        <time>2017-02-27T13:01:18Z</time>
      </trkpt>
      <trkpt lat="46.64711" lon="12.2785">
        <ele>2305.86</ele>
        <time>2017-02-27T13:01:41Z</time>
      </trkpt>
      <trkpt lat="46.64711" lon="12.2785">
        <ele>2303.94</ele>
        <time>2017-02-27T13:01:53Z</time>
      </trkpt>
      <trkpt lat="46.64711" lon="12.27849">
        <ele>2307.78</ele>
        <time>2017-02-27T13:01:54Z</time>
      </trkpt>
      <trkpt lat="46.64711" lon="12.27849">
        <ele>2305.38</ele>
        <time>2017-02-27T13:01:55Z</time>
      </trkpt>
      <trkpt lat="46.64712" lon="12.2785">
        <ele>2305.38</ele>
        <time>2017-02-27T13:02:12Z</time>
      </trkpt>
      <trkpt lat="46.64708" lon="12.27856">
        <ele>2305.38</ele>
        <time>2017-02-27T13:02:28Z</time>
      </trkpt>
      <trkpt lat="46.64707" lon="12.2786">
        <ele>2305.38</ele>
        <time>2017-02-27T13:02:48Z</time>
      </trkpt>
      <trkpt lat="46.64709" lon="12.27868">
        <ele>2305.38</ele>
        <time>2017-02-27T13:03:07Z</time>
      </trkpt>
      <trkpt lat="46.6471" lon="12.27869">
        <ele>2304.9</ele>
        <time>2017-02-27T13:03:29Z</time>
      </trkpt>
      <trkpt lat="46.64714" lon="12.27867">
        <ele>2303.46</ele>
        <time>2017-02-27T13:03:32Z</time>
      </trkpt>
      <trkpt lat="46.64724" lon="12.27855">
        <ele>2300.57</ele>
        <time>2017-02-27T13:03:39Z</time>
      </trkpt>
      <trkpt lat="46.64728" lon="12.27853">
        <ele>2298.65</ele>
        <time>2017-02-27T13:03:49Z</time>
      </trkpt>
      <trkpt lat="46.64726" lon="12.27853">
        <ele>2299.13</ele>
        <time>2017-02-27T13:04:17Z</time>
      </trkpt>
      <trkpt lat="46.64726" lon="12.27849">
        <ele>2299.13</ele>
        <time>2017-02-27T13:04:37Z</time>
      </trkpt>
      <trkpt lat="46.64727" lon="12.27852">
        <ele>2298.65</ele>
        <time>2017-02-27T13:04:58Z</time>
      </trkpt>
      <trkpt lat="46.64725" lon="12.27852">
        <ele>2298.65</ele>
        <time>2017-02-27T13:05:24Z</time>
      </trkpt>
      <trkpt lat="46.64727" lon="12.27856">
        <ele>2298.65</ele>
        <time>2017-02-27T13:05:27Z</time>
      </trkpt>
      <trkpt lat="46.64729" lon="12.27854">
        <ele>2297.21</ele>
        <time>2017-02-27T13:05:29Z</time>
      </trkpt>
      <trkpt lat="46.6473" lon="12.27852">
        <ele>2297.21</ele>
        <time>2017-02-27T13:05:30Z</time>
      </trkpt>
      <trkpt lat="46.64731" lon="12.27853">
        <ele>2295.77</ele>
        <time>2017-02-27T13:05:31Z</time>
      </trkpt>
      <trkpt lat="46.64735" lon="12.27856">
        <ele>2294.8</ele>
        <time>2017-02-27T13:05:33Z</time>
      </trkpt>
      <trkpt lat="46.64738" lon="12.27855">
        <ele>2293.84</ele>
        <time>2017-02-27T13:05:35Z</time>
      </trkpt>
      <trkpt lat="46.64743" lon="12.27848">
        <ele>2291.92</ele>
        <time>2017-02-27T13:05:37Z</time>
      </trkpt>
      <trkpt lat="46.64751" lon="12.27846">
        <ele>2290.96</ele>
        <time>2017-02-27T13:05:40Z</time>
      </trkpt>
      <trkpt lat="46.64756" lon="12.2785">
        <ele>2290</ele>
        <time>2017-02-27T13:05:42Z</time>
      </trkpt>
      <trkpt lat="46.64758" lon="12.27853">
        <ele>2289.04</ele>
        <time>2017-02-27T13:05:43Z</time>
      </trkpt>
      <trkpt lat="46.64761" lon="12.27856">
        <ele>2288.08</ele>
        <time>2017-02-27T13:05:44Z</time>
      </trkpt>
      <trkpt lat="46.64763" lon="12.27857">
        <ele>2288.08</ele>
        <time>2017-02-27T13:05:45Z</time>
      </trkpt>
      <trkpt lat="46.64765" lon="12.27857">
        <ele>2287.11</ele>
        <time>2017-02-27T13:05:46Z</time>
      </trkpt>
      <trkpt lat="46.64767" lon="12.27856">
        <ele>2286.15</ele>
        <time>2017-02-27T13:05:47Z</time>
      </trkpt>
      <trkpt lat="46.6477" lon="12.27854">
        <ele>2285.67</ele>
        <time>2017-02-27T13:05:48Z</time>
      </trkpt>
      <trkpt lat="46.64771" lon="12.27854">
        <ele>2285.67</ele>
        <time>2017-02-27T13:05:49Z</time>
      </trkpt>
      <trkpt lat="46.64777" lon="12.2785">
        <ele>2283.27</ele>
        <time>2017-02-27T13:05:54Z</time>
      </trkpt>
      <trkpt lat="46.64782" lon="12.27847">
        <ele>2279.9</ele>
        <time>2017-02-27T13:05:58Z</time>
      </trkpt>
      <trkpt lat="46.64787" lon="12.27847">
        <ele>2277.02</ele>
        <time>2017-02-27T13:06:02Z</time>
      </trkpt>
      <trkpt lat="46.64789" lon="12.2785">
        <ele>2276.06</ele>
        <time>2017-02-27T13:06:03Z</time>
      </trkpt>
      <trkpt lat="46.64793" lon="12.27851">
        <ele>2275.1</ele>
        <time>2017-02-27T13:06:05Z</time>
      </trkpt>
      <trkpt lat="46.64799" lon="12.27845">
        <ele>2270.77</ele>
        <time>2017-02-27T13:06:11Z</time>
      </trkpt>
      <trkpt lat="46.64802" lon="12.27847">
        <ele>2268.85</ele>
        <time>2017-02-27T13:06:12Z</time>
      </trkpt>
      <trkpt lat="46.64806" lon="12.27848">
        <ele>2267.41</ele>
        <time>2017-02-27T13:06:15Z</time>
      </trkpt>
      <trkpt lat="46.64807" lon="12.2785">
        <ele>2266.45</ele>
        <time>2017-02-27T13:06:16Z</time>
      </trkpt>
      <trkpt lat="46.6481" lon="12.27856">
        <ele>2265.48</ele>
        <time>2017-02-27T13:06:18Z</time>
      </trkpt>
      <trkpt lat="46.64812" lon="12.27858">
        <ele>2264.52</ele>
        <time>2017-02-27T13:06:19Z</time>
      </trkpt>
      <trkpt lat="46.64815" lon="12.27858">
        <ele>2264.52</ele>
        <time>2017-02-27T13:06:20Z</time>
      </trkpt>
      <trkpt lat="46.64818" lon="12.27855">
        <ele>2262.12</ele>
        <time>2017-02-27T13:06:21Z</time>
      </trkpt>
      <trkpt lat="46.64831" lon="12.27855">
        <ele>2262.6</ele>
        <time>2017-02-27T13:06:30Z</time>
      </trkpt>
      <trkpt lat="46.64833" lon="12.27854">
        <ele>2262.6</ele>
        <time>2017-02-27T13:06:35Z</time>
      </trkpt>
      <trkpt lat="46.64835" lon="12.27853">
        <ele>2262.12</ele>
        <time>2017-02-27T13:06:36Z</time>
      </trkpt>
      <trkpt lat="46.64837" lon="12.27851">
        <ele>2261.64</ele>
        <time>2017-02-27T13:06:37Z</time>
      </trkpt>
      <trkpt lat="46.64839" lon="12.2785">
        <ele>2261.16</ele>
        <time>2017-02-27T13:06:38Z</time>
      </trkpt>
      <trkpt lat="46.64841" lon="12.27849">
        <ele>2261.64</ele>
        <time>2017-02-27T13:06:39Z</time>
      </trkpt>
      <trkpt lat="46.64843" lon="12.27849">
        <ele>2261.64</ele>
        <time>2017-02-27T13:06:40Z</time>
      </trkpt>
      <trkpt lat="46.64848" lon="12.2785">
        <ele>2259.24</ele>
        <time>2017-02-27T13:06:43Z</time>
      </trkpt>
      <trkpt lat="46.64851" lon="12.27849">
        <ele>2258.75</ele>
        <time>2017-02-27T13:06:44Z</time>
      </trkpt>
      <trkpt lat="46.64853" lon="12.27849">
        <ele>2258.27</ele>
        <time>2017-02-27T13:06:45Z</time>
      </trkpt>
      <trkpt lat="46.64856" lon="12.2785">
        <ele>2257.79</ele>
        <time>2017-02-27T13:06:46Z</time>
      </trkpt>
      <trkpt lat="46.64858" lon="12.2785">
        <ele>2256.35</ele>
        <time>2017-02-27T13:06:47Z</time>
      </trkpt>
      <trkpt lat="46.6486" lon="12.2785">
        <ele>2255.87</ele>
        <time>2017-02-27T13:06:48Z</time>
      </trkpt>
      <trkpt lat="46.64866" lon="12.27852">
        <ele>2252.51</ele>
        <time>2017-02-27T13:06:50Z</time>
      </trkpt>
      <trkpt lat="46.64867" lon="12.27853">
        <ele>2252.03</ele>
        <time>2017-02-27T13:06:51Z</time>
      </trkpt>
      <trkpt lat="46.64873" lon="12.27859">
        <ele>2248.18</ele>
        <time>2017-02-27T13:06:54Z</time>
      </trkpt>
      <trkpt lat="46.64892" lon="12.27855">
        <ele>2248.18</ele>
        <time>2017-02-27T13:07:06Z</time>
      </trkpt>
      <trkpt lat="46.64893" lon="12.27865">
        <ele>2249.14</ele>
        <time>2017-02-27T13:07:32Z</time>
      </trkpt>
      <trkpt lat="46.64902" lon="12.27865">
        <ele>2246.26</ele>
        <time>2017-02-27T13:07:40Z</time>
      </trkpt>
      <trkpt lat="46.6491" lon="12.27865">
        <ele>2243.37</ele>
        <time>2017-02-27T13:07:45Z</time>
      </trkpt>
      <trkpt lat="46.64912" lon="12.27865">
        <ele>2241.45</ele>
        <time>2017-02-27T13:07:46Z</time>
      </trkpt>
      <trkpt lat="46.64913" lon="12.27869">
        <ele>2240.01</ele>
        <time>2017-02-27T13:07:47Z</time>
      </trkpt>
      <trkpt lat="46.64914" lon="12.27872">
        <ele>2238.57</ele>
        <time>2017-02-27T13:07:48Z</time>
      </trkpt>
      <trkpt lat="46.64915" lon="12.27873">
        <ele>2237.13</ele>
        <time>2017-02-27T13:07:49Z</time>
      </trkpt>
      <trkpt lat="46.64918" lon="12.27875">
        <ele>2236.16</ele>
        <time>2017-02-27T13:07:50Z</time>
      </trkpt>
      <trkpt lat="46.64925" lon="12.2788">
        <ele>2231.84</ele>
        <time>2017-02-27T13:07:52Z</time>
      </trkpt>
      <trkpt lat="46.64932" lon="12.27884">
        <ele>2227.99</ele>
        <time>2017-02-27T13:07:55Z</time>
      </trkpt>
      <trkpt lat="46.64937" lon="12.27889">
        <ele>2224.15</ele>
        <time>2017-02-27T13:07:57Z</time>
      </trkpt>
      <trkpt lat="46.64943" lon="12.27893">
        <ele>2221.74</ele>
        <time>2017-02-27T13:07:59Z</time>
      </trkpt>
      <trkpt lat="46.64947" lon="12.27893">
        <ele>2221.26</ele>
        <time>2017-02-27T13:08:00Z</time>
      </trkpt>
      <trkpt lat="46.64952" lon="12.27894">
        <ele>2220.78</ele>
        <time>2017-02-27T13:08:01Z</time>
      </trkpt>
      <trkpt lat="46.64955" lon="12.27895">
        <ele>2219.34</ele>
        <time>2017-02-27T13:08:02Z</time>
      </trkpt>
      <trkpt lat="46.64962" lon="12.2789">
        <ele>2218.86</ele>
        <time>2017-02-27T13:08:03Z</time>
      </trkpt>
      <trkpt lat="46.64971" lon="12.27881">
        <ele>2220.3</ele>
        <time>2017-02-27T13:08:06Z</time>
      </trkpt>
      <trkpt lat="46.64978" lon="12.2788">
        <ele>2220.78</ele>
        <time>2017-02-27T13:08:24Z</time>
      </trkpt>
      <trkpt lat="46.64979" lon="12.27884">
        <ele>2218.38</ele>
        <time>2017-02-27T13:08:37Z</time>
      </trkpt>
      <trkpt lat="46.64981" lon="12.27884">
        <ele>2217.42</ele>
        <time>2017-02-27T13:08:38Z</time>
      </trkpt>
      <trkpt lat="46.64984" lon="12.27885">
        <ele>2216.46</ele>
        <time>2017-02-27T13:08:39Z</time>
      </trkpt>
      <trkpt lat="46.64987" lon="12.27884">
        <ele>2215.98</ele>
        <time>2017-02-27T13:08:40Z</time>
      </trkpt>
      <trkpt lat="46.64991" lon="12.27884">
        <ele>2215.5</ele>
        <time>2017-02-27T13:08:41Z</time>
      </trkpt>
      <trkpt lat="46.64995" lon="12.27886">
        <ele>2213.57</ele>
        <time>2017-02-27T13:08:42Z</time>
      </trkpt>
      <trkpt lat="46.65004" lon="12.27892">
        <ele>2210.69</ele>
        <time>2017-02-27T13:08:44Z</time>
      </trkpt>
      <trkpt lat="46.65015" lon="12.27898">
        <ele>2206.84</ele>
        <time>2017-02-27T13:08:46Z</time>
      </trkpt>
      <trkpt lat="46.6502" lon="12.27899">
        <ele>2205.4</ele>
        <time>2017-02-27T13:08:47Z</time>
      </trkpt>
      <trkpt lat="46.65026" lon="12.27901">
        <ele>2202.52</ele>
        <time>2017-02-27T13:08:48Z</time>
      </trkpt>
      <trkpt lat="46.65035" lon="12.27903">
        <ele>2199.63</ele>
        <time>2017-02-27T13:08:50Z</time>
      </trkpt>
      <trkpt lat="46.6504" lon="12.27904">
        <ele>2199.63</ele>
        <time>2017-02-27T13:08:51Z</time>
      </trkpt>
      <trkpt lat="46.65045" lon="12.27907">
        <ele>2195.31</ele>
        <time>2017-02-27T13:08:52Z</time>
      </trkpt>
      <trkpt lat="46.65051" lon="12.27908">
        <ele>2193.87</ele>
        <time>2017-02-27T13:08:53Z</time>
      </trkpt>
      <trkpt lat="46.65056" lon="12.27909">
        <ele>2192.9</ele>
        <time>2017-02-27T13:08:54Z</time>
      </trkpt>
      <trkpt lat="46.65063" lon="12.27907">
        <ele>2191.46</ele>
        <time>2017-02-27T13:08:55Z</time>
      </trkpt>
      <trkpt lat="46.65079" lon="12.27896">
        <ele>2191.46</ele>
        <time>2017-02-27T13:09:04Z</time>
      </trkpt>
      <trkpt lat="46.65076" lon="12.27896">
        <ele>2190.98</ele>
        <time>2017-02-27T13:09:29Z</time>
      </trkpt>
      <trkpt lat="46.6509" lon="12.27893">
        <ele>2187.14</ele>
        <time>2017-02-27T13:09:34Z</time>
      </trkpt>
      <trkpt lat="46.65093" lon="12.27892">
        <ele>2187.14</ele>
        <time>2017-02-27T13:09:35Z</time>
      </trkpt>
      <trkpt lat="46.65118" lon="12.27889">
        <ele>2184.25</ele>
        <time>2017-02-27T13:09:40Z</time>
      </trkpt>
      <trkpt lat="46.65141" lon="12.27881">
        <ele>2180.89</ele>
        <time>2017-02-27T13:09:46Z</time>
      </trkpt>
      <trkpt lat="46.65149" lon="12.27878">
        <ele>2178.97</ele>
        <time>2017-02-27T13:09:47Z</time>
      </trkpt>
      <trkpt lat="46.65156" lon="12.27882">
        <ele>2175.6</ele>
        <time>2017-02-27T13:09:49Z</time>
      </trkpt>
      <trkpt lat="46.65166" lon="12.27892">
        <ele>2171.27</ele>
        <time>2017-02-27T13:09:52Z</time>
      </trkpt>
      <trkpt lat="46.65172" lon="12.27901">
        <ele>2167.91</ele>
        <time>2017-02-27T13:09:54Z</time>
      </trkpt>
      <trkpt lat="46.65178" lon="12.27908">
        <ele>2164.55</ele>
        <time>2017-02-27T13:09:56Z</time>
      </trkpt>
      <trkpt lat="46.65196" lon="12.2793">
        <ele>2157.34</ele>
        <time>2017-02-27T13:10:01Z</time>
      </trkpt>
      <trkpt lat="46.65202" lon="12.27937">
        <ele>2154.93</ele>
        <time>2017-02-27T13:10:03Z</time>
      </trkpt>
      <trkpt lat="46.65205" lon="12.27943">
        <ele>2152.53</ele>
        <time>2017-02-27T13:10:04Z</time>
      </trkpt>
      <trkpt lat="46.65209" lon="12.27947">
        <ele>2151.57</ele>
        <time>2017-02-27T13:10:05Z</time>
      </trkpt>
      <trkpt lat="46.65217" lon="12.27949">
        <ele>2150.13</ele>
        <time>2017-02-27T13:10:12Z</time>
      </trkpt>
      <trkpt lat="46.65208" lon="12.27951">
        <ele>2150.13</ele>
        <time>2017-02-27T13:10:31Z</time>
      </trkpt>
      <trkpt lat="46.65201" lon="12.2795">
        <ele>2151.09</ele>
        <time>2017-02-27T13:10:51Z</time>
      </trkpt>
      <trkpt lat="46.652" lon="12.27953">
        <ele>2151.57</ele>
        <time>2017-02-27T13:10:58Z</time>
      </trkpt>
      <trkpt lat="46.65208" lon="12.27968">
        <ele>2148.68</ele>
        <time>2017-02-27T13:11:04Z</time>
      </trkpt>
      <trkpt lat="46.65212" lon="12.27977">
        <ele>2145.32</ele>
        <time>2017-02-27T13:11:06Z</time>
      </trkpt>
      <trkpt lat="46.65221" lon="12.27989">
        <ele>2141.47</ele>
        <time>2017-02-27T13:11:09Z</time>
      </trkpt>
      <trkpt lat="46.65229" lon="12.27998">
        <ele>2138.11</ele>
        <time>2017-02-27T13:11:12Z</time>
      </trkpt>
      <trkpt lat="46.65232" lon="12.28007">
        <ele>2136.19</ele>
        <time>2017-02-27T13:11:15Z</time>
      </trkpt>
      <trkpt lat="46.65238" lon="12.28022">
        <ele>2131.86</ele>
        <time>2017-02-27T13:11:19Z</time>
      </trkpt>
      <trkpt lat="46.65246" lon="12.28031">
        <ele>2128.5</ele>
        <time>2017-02-27T13:11:22Z</time>
      </trkpt>
      <trkpt lat="46.65254" lon="12.28038">
        <ele>2125.61</ele>
        <time>2017-02-27T13:11:25Z</time>
      </trkpt>
      <trkpt lat="46.65257" lon="12.28039">
        <ele>2124.17</ele>
        <time>2017-02-27T13:11:26Z</time>
      </trkpt>
      <trkpt lat="46.65267" lon="12.28047">
        <ele>2121.29</ele>
        <time>2017-02-27T13:11:29Z</time>
      </trkpt>
      <trkpt lat="46.65269" lon="12.28045">
        <ele>2120.32</ele>
        <time>2017-02-27T13:11:30Z</time>
      </trkpt>
      <trkpt lat="46.65288" lon="12.28037">
        <ele>2117.44</ele>
        <time>2017-02-27T13:11:35Z</time>
      </trkpt>
      <trkpt lat="46.653" lon="12.28043">
        <ele>2116</ele>
        <time>2017-02-27T13:11:39Z</time>
      </trkpt>
      <trkpt lat="46.65304" lon="12.28041">
        <ele>2115.04</ele>
        <time>2017-02-27T13:11:40Z</time>
      </trkpt>
      <trkpt lat="46.65306" lon="12.28029">
        <ele>2113.6</ele>
        <time>2017-02-27T13:11:50Z</time>
      </trkpt>
      <trkpt lat="46.65307" lon="12.28028">
        <ele>2113.6</ele>
        <time>2017-02-27T13:12:08Z</time>
      </trkpt>
      <trkpt lat="46.65311" lon="12.28029">
        <ele>2112.15</ele>
        <time>2017-02-27T13:12:14Z</time>
      </trkpt>
      <trkpt lat="46.65324" lon="12.28023">
        <ele>2109.27</ele>
        <time>2017-02-27T13:12:18Z</time>
      </trkpt>
      <trkpt lat="46.65336" lon="12.28027">
        <ele>2107.83</ele>
        <time>2017-02-27T13:12:22Z</time>
      </trkpt>
      <trkpt lat="46.65341" lon="12.28047">
        <ele>2102.06</ele>
        <time>2017-02-27T13:12:26Z</time>
      </trkpt>
      <trkpt lat="46.65348" lon="12.28066">
        <ele>2098.7</ele>
        <time>2017-02-27T13:12:32Z</time>
      </trkpt>
      <trkpt lat="46.65349" lon="12.28067">
        <ele>2098.21</ele>
        <time>2017-02-27T13:12:33Z</time>
      </trkpt>
      <trkpt lat="46.65352" lon="12.28066">
        <ele>2097.73</ele>
        <time>2017-02-27T13:12:35Z</time>
      </trkpt>
      <trkpt lat="46.6535" lon="12.28076">
        <ele>2096.29</ele>
        <time>2017-02-27T13:12:36Z</time>
      </trkpt>
      <trkpt lat="46.65349" lon="12.28085">
        <ele>2094.37</ele>
        <time>2017-02-27T13:12:39Z</time>
      </trkpt>
      <trkpt lat="46.65353" lon="12.28086">
        <ele>2091.97</ele>
        <time>2017-02-27T13:12:41Z</time>
      </trkpt>
      <trkpt lat="46.65374" lon="12.28085">
        <ele>2088.6</ele>
        <time>2017-02-27T13:12:48Z</time>
      </trkpt>
      <trkpt lat="46.65384" lon="12.28092">
        <ele>2083.79</ele>
        <time>2017-02-27T13:12:52Z</time>
      </trkpt>
      <trkpt lat="46.65391" lon="12.28094">
        <ele>2080.43</ele>
        <time>2017-02-27T13:12:54Z</time>
      </trkpt>
      <trkpt lat="46.65389" lon="12.28102">
        <ele>2079.47</ele>
        <time>2017-02-27T13:12:56Z</time>
      </trkpt>
      <trkpt lat="46.65393" lon="12.28107">
        <ele>2078.03</ele>
        <time>2017-02-27T13:12:57Z</time>
      </trkpt>
      <trkpt lat="46.65394" lon="12.2811">
        <ele>2077.07</ele>
        <time>2017-02-27T13:12:58Z</time>
      </trkpt>
      <trkpt lat="46.65409" lon="12.28141">
        <ele>2073.7</ele>
        <time>2017-02-27T13:13:07Z</time>
      </trkpt>
      <trkpt lat="46.6541" lon="12.28152">
        <ele>2071.3</ele>
        <time>2017-02-27T13:13:12Z</time>
      </trkpt>
      <trkpt lat="46.65411" lon="12.28154">
        <ele>2069.38</ele>
        <time>2017-02-27T13:13:15Z</time>
      </trkpt>
      <trkpt lat="46.65393" lon="12.28164">
        <ele>2069.38</ele>
        <time>2017-02-27T13:13:26Z</time>
      </trkpt>
      <trkpt lat="46.6538" lon="12.28143">
        <ele>2070.82</ele>
        <time>2017-02-27T13:13:41Z</time>
      </trkpt>
      <trkpt lat="46.65382" lon="12.28142">
        <ele>2069.86</ele>
        <time>2017-02-27T13:13:42Z</time>
      </trkpt>
      <trkpt lat="46.6538" lon="12.2814">
        <ele>2069.38</ele>
        <time>2017-02-27T13:14:05Z</time>
      </trkpt>
      <trkpt lat="46.65379" lon="12.28139">
        <ele>2069.38</ele>
        <time>2017-02-27T13:14:23Z</time>
      </trkpt>
      <trkpt lat="46.6537" lon="12.28145">
        <ele>2069.38</ele>
        <time>2017-02-27T13:14:40Z</time>
      </trkpt>
      <trkpt lat="46.65369" lon="12.28143">
        <ele>2069.86</ele>
        <time>2017-02-27T13:15:03Z</time>
      </trkpt>
      <trkpt lat="46.65347" lon="12.28155">
        <ele>2069.86</ele>
        <time>2017-02-27T13:15:25Z</time>
      </trkpt>
      <trkpt lat="46.65333" lon="12.2816">
        <ele>2071.3</ele>
        <time>2017-02-27T13:15:42Z</time>
      </trkpt>
      <trkpt lat="46.65332" lon="12.2816">
        <ele>2069.86</ele>
        <time>2017-02-27T13:15:43Z</time>
      </trkpt>
      <trkpt lat="46.65354" lon="12.28164">
        <ele>2069.86</ele>
        <time>2017-02-27T13:16:03Z</time>
      </trkpt>
      <trkpt lat="46.65346" lon="12.28165">
        <ele>2069.86</ele>
        <time>2017-02-27T13:16:20Z</time>
      </trkpt>
      <trkpt lat="46.65329" lon="12.28163">
        <ele>2069.86</ele>
        <time>2017-02-27T13:16:39Z</time>
      </trkpt>
      <trkpt lat="46.65323" lon="12.28149">
        <ele>2069.86</ele>
        <time>2017-02-27T13:17:00Z</time>
      </trkpt>
      <trkpt lat="46.65336" lon="12.28151">
        <ele>2069.86</ele>
        <time>2017-02-27T13:17:23Z</time>
      </trkpt>
      <trkpt lat="46.65357" lon="12.28132">
        <ele>2070.34</ele>
        <time>2017-02-27T13:17:41Z</time>
      </trkpt>
      <trkpt lat="46.65358" lon="12.28131">
        <ele>2071.3</ele>
        <time>2017-02-27T13:17:43Z</time>
      </trkpt>
      <trkpt lat="46.65359" lon="12.2813">
        <ele>2069.38</ele>
        <time>2017-02-27T13:17:44Z</time>
      </trkpt>
      <trkpt lat="46.65365" lon="12.28126">
        <ele>2068.41</ele>
        <time>2017-02-27T13:17:56Z</time>
      </trkpt>
      <trkpt lat="46.65367" lon="12.28128">
        <ele>2068.41</ele>
        <time>2017-02-27T13:18:01Z</time>
      </trkpt>
      <trkpt lat="46.65369" lon="12.28135">
        <ele>2068.41</ele>
        <time>2017-02-27T13:18:10Z</time>
      </trkpt>
      <trkpt lat="46.6537" lon="12.28137">
        <ele>2068.41</ele>
        <time>2017-02-27T13:18:11Z</time>
      </trkpt>
      <trkpt lat="46.65381" lon="12.28151">
        <ele>2065.05</ele>
        <time>2017-02-27T13:18:18Z</time>
      </trkpt>
      <trkpt lat="46.65387" lon="12.28158">
        <ele>2062.17</ele>
        <time>2017-02-27T13:18:21Z</time>
      </trkpt>
      <trkpt lat="46.65389" lon="12.2816">
        <ele>2061.2</ele>
        <time>2017-02-27T13:18:22Z</time>
      </trkpt>
      <trkpt lat="46.65398" lon="12.28162">
        <ele>2057.84</ele>
        <time>2017-02-27T13:18:25Z</time>
      </trkpt>
      <trkpt lat="46.65407" lon="12.28171">
        <ele>2055.92</ele>
        <time>2017-02-27T13:18:28Z</time>
      </trkpt>
      <trkpt lat="46.65415" lon="12.28173">
        <ele>2053.51</ele>
        <time>2017-02-27T13:18:33Z</time>
      </trkpt>
      <trkpt lat="46.65404" lon="12.28178">
        <ele>2053.03</ele>
        <time>2017-02-27T13:18:43Z</time>
      </trkpt>
      <trkpt lat="46.65394" lon="12.28177">
        <ele>2052.55</ele>
        <time>2017-02-27T13:18:56Z</time>
      </trkpt>
      <trkpt lat="46.6538" lon="12.2825">
        <ele>2052.07</ele>
        <time>2017-02-27T13:19:14Z</time>
      </trkpt>
      <trkpt lat="46.6538" lon="12.28249">
        <ele>2051.59</ele>
        <time>2017-02-27T13:19:15Z</time>
      </trkpt>
      <trkpt lat="46.65378" lon="12.28253">
        <ele>2050.15</ele>
        <time>2017-02-27T13:19:16Z</time>
      </trkpt>
      <trkpt lat="46.65375" lon="12.28258">
        <ele>2048.23</ele>
        <time>2017-02-27T13:19:20Z</time>
      </trkpt>
      <trkpt lat="46.65381" lon="12.28254">
        <ele>2047.75</ele>
        <time>2017-02-27T13:19:21Z</time>
      </trkpt>
      <trkpt lat="46.65389" lon="12.28245">
        <ele>2045.82</ele>
        <time>2017-02-27T13:19:22Z</time>
      </trkpt>
      <trkpt lat="46.65395" lon="12.28237">
        <ele>2044.86</ele>
        <time>2017-02-27T13:19:23Z</time>
      </trkpt>
      <trkpt lat="46.65402" lon="12.28231">
        <ele>2043.42</ele>
        <time>2017-02-27T13:19:24Z</time>
      </trkpt>
      <trkpt lat="46.65409" lon="12.28226">
        <ele>2041.5</ele>
        <time>2017-02-27T13:19:25Z</time>
      </trkpt>
      <trkpt lat="46.65415" lon="12.28226">
        <ele>2040.54</ele>
        <time>2017-02-27T13:19:26Z</time>
      </trkpt>
      <trkpt lat="46.65421" lon="12.28226">
        <ele>2039.57</ele>
        <time>2017-02-27T13:19:27Z</time>
      </trkpt>
      <trkpt lat="46.65429" lon="12.28225">
        <ele>2038.61</ele>
        <time>2017-02-27T13:19:28Z</time>
      </trkpt>
      <trkpt lat="46.65436" lon="12.28225">
        <ele>2038.13</ele>
        <time>2017-02-27T13:19:29Z</time>
      </trkpt>
      <trkpt lat="46.65442" lon="12.28222">
        <ele>2036.21</ele>
        <time>2017-02-27T13:19:30Z</time>
      </trkpt>
      <trkpt lat="46.65468" lon="12.28217">
        <ele>2031.88</ele>
        <time>2017-02-27T13:19:35Z</time>
      </trkpt>
      <trkpt lat="46.65475" lon="12.28211">
        <ele>2030.92</ele>
        <time>2017-02-27T13:19:36Z</time>
      </trkpt>
      <trkpt lat="46.6549" lon="12.28206">
        <ele>2028.52</ele>
        <time>2017-02-27T13:19:39Z</time>
      </trkpt>
      <trkpt lat="46.65511" lon="12.28193">
        <ele>2028.04</ele>
        <time>2017-02-27T13:19:43Z</time>
      </trkpt>
      <trkpt lat="46.65517" lon="12.28192">
        <ele>2024.67</ele>
        <time>2017-02-27T13:19:45Z</time>
      </trkpt>
      <trkpt lat="46.65532" lon="12.28181">
        <ele>2025.15</ele>
        <time>2017-02-27T13:19:54Z</time>
      </trkpt>
      <trkpt lat="46.65538" lon="12.28185">
        <ele>2023.71</ele>
        <time>2017-02-27T13:20:18Z</time>
      </trkpt>
      <trkpt lat="46.65539" lon="12.28184">
        <ele>2022.75</ele>
        <time>2017-02-27T13:20:19Z</time>
      </trkpt>
      <trkpt lat="46.6554" lon="12.28184">
        <ele>2021.31</ele>
        <time>2017-02-27T13:20:20Z</time>
      </trkpt>
      <trkpt lat="46.65541" lon="12.28183">
        <ele>2019.87</ele>
        <time>2017-02-27T13:20:21Z</time>
      </trkpt>
      <trkpt lat="46.65544" lon="12.28182">
        <ele>2019.87</ele>
        <time>2017-02-27T13:20:22Z</time>
      </trkpt>
      <trkpt lat="46.65575" lon="12.28175">
        <ele>2016.5</ele>
        <time>2017-02-27T13:20:31Z</time>
      </trkpt>
      <trkpt lat="46.65596" lon="12.2816">
        <ele>2014.1</ele>
        <time>2017-02-27T13:20:36Z</time>
      </trkpt>
      <trkpt lat="46.65615" lon="12.2818">
        <ele>2009.77</ele>
        <time>2017-02-27T13:20:43Z</time>
      </trkpt>
      <trkpt lat="46.65616" lon="12.28182">
        <ele>2009.77</ele>
        <time>2017-02-27T13:20:44Z</time>
      </trkpt>
      <trkpt lat="46.65619" lon="12.28185">
        <ele>2008.33</ele>
        <time>2017-02-27T13:20:47Z</time>
      </trkpt>
      <trkpt lat="46.65624" lon="12.28185">
        <ele>2005.93</ele>
        <time>2017-02-27T13:20:49Z</time>
      </trkpt>
      <trkpt lat="46.65634" lon="12.28183">
        <ele>2004.01</ele>
        <time>2017-02-27T13:20:52Z</time>
      </trkpt>
      <trkpt lat="46.65641" lon="12.28187">
        <ele>2002.56</ele>
        <time>2017-02-27T13:20:53Z</time>
      </trkpt>
      <trkpt lat="46.65643" lon="12.28188">
        <ele>2002.08</ele>
        <time>2017-02-27T13:20:54Z</time>
      </trkpt>
      <trkpt lat="46.65652" lon="12.28188">
        <ele>2000.64</ele>
        <time>2017-02-27T13:20:55Z</time>
      </trkpt>
      <trkpt lat="46.65656" lon="12.2819">
        <ele>1998.72</ele>
        <time>2017-02-27T13:20:56Z</time>
      </trkpt>
      <trkpt lat="46.65662" lon="12.28191">
        <ele>1998.24</ele>
        <time>2017-02-27T13:20:57Z</time>
      </trkpt>
      <trkpt lat="46.65672" lon="12.28191">
        <ele>1995.35</ele>
        <time>2017-02-27T13:20:59Z</time>
      </trkpt>
      <trkpt lat="46.65685" lon="12.28198">
        <ele>1993.43</ele>
        <time>2017-02-27T13:21:02Z</time>
      </trkpt>
      <trkpt lat="46.6569" lon="12.28198">
        <ele>1991.99</ele>
        <time>2017-02-27T13:21:03Z</time>
      </trkpt>
      <trkpt lat="46.65695" lon="12.282">
        <ele>1990.55</ele>
        <time>2017-02-27T13:21:04Z</time>
      </trkpt>
      <trkpt lat="46.65699" lon="12.28201">
        <ele>1989.59</ele>
        <time>2017-02-27T13:21:05Z</time>
      </trkpt>
      <trkpt lat="46.65712" lon="12.28219">
        <ele>1987.66</ele>
        <time>2017-02-27T13:21:09Z</time>
      </trkpt>
      <trkpt lat="46.65715" lon="12.28221">
        <ele>1988.14</ele>
        <time>2017-02-27T13:21:10Z</time>
      </trkpt>
      <trkpt lat="46.65722" lon="12.28222">
        <ele>1987.66</ele>
        <time>2017-02-27T13:21:24Z</time>
      </trkpt>
      <trkpt lat="46.65723" lon="12.2822">
        <ele>1987.18</ele>
        <time>2017-02-27T13:21:29Z</time>
      </trkpt>
      <trkpt lat="46.65724" lon="12.2822">
        <ele>1987.18</ele>
        <time>2017-02-27T13:21:30Z</time>
      </trkpt>
      <trkpt lat="46.65726" lon="12.28222">
        <ele>1985.74</ele>
        <time>2017-02-27T13:21:31Z</time>
      </trkpt>
      <trkpt lat="46.65729" lon="12.28225">
        <ele>1983.82</ele>
        <time>2017-02-27T13:21:32Z</time>
      </trkpt>
      <trkpt lat="46.65694" lon="12.28209">
        <ele>1980.45</ele>
        <time>2017-02-27T13:21:38Z</time>
      </trkpt>
      <trkpt lat="46.65682" lon="12.28216">
        <ele>1979.49</ele>
        <time>2017-02-27T13:21:39Z</time>
      </trkpt>
      <trkpt lat="46.65674" lon="12.28216">
        <ele>1978.05</ele>
        <time>2017-02-27T13:21:40Z</time>
      </trkpt>
      <trkpt lat="46.65643" lon="12.28209">
        <ele>1975.17</ele>
        <time>2017-02-27T13:21:46Z</time>
      </trkpt>
      <trkpt lat="46.65641" lon="12.28205">
        <ele>1972.76</ele>
        <time>2017-02-27T13:21:49Z</time>
      </trkpt>
      <trkpt lat="46.65655" lon="12.28205">
        <ele>1968.92</ele>
        <time>2017-02-27T13:21:58Z</time>
      </trkpt>
      <trkpt lat="46.65664" lon="12.28208">
        <ele>1965.55</ele>
        <time>2017-02-27T13:22:02Z</time>
      </trkpt>
      <trkpt lat="46.65673" lon="12.28207">
        <ele>1964.11</ele>
        <time>2017-02-27T13:22:05Z</time>
      </trkpt>
      <trkpt lat="46.65674" lon="12.28199">
        <ele>1964.59</ele>
        <time>2017-02-27T13:22:18Z</time>
      </trkpt>
      <trkpt lat="46.65684" lon="12.28208">
        <ele>1961.23</ele>
        <time>2017-02-27T13:22:24Z</time>
      </trkpt>
      <trkpt lat="46.65696" lon="12.28228">
        <ele>1957.86</ele>
        <time>2017-02-27T13:22:29Z</time>
      </trkpt>
      <trkpt lat="46.65706" lon="12.2825">
        <ele>1956.42</ele>
        <time>2017-02-27T13:22:34Z</time>
      </trkpt>
      <trkpt lat="46.65715" lon="12.2828">
        <ele>1954.98</ele>
        <time>2017-02-27T13:22:44Z</time>
      </trkpt>
      <trkpt lat="46.65714" lon="12.28281">
        <ele>1954.98</ele>
        <time>2017-02-27T13:22:47Z</time>
      </trkpt>
      <trkpt lat="46.65714" lon="12.28291">
        <ele>1952.57</ele>
        <time>2017-02-27T13:22:50Z</time>
      </trkpt>
      <trkpt lat="46.65722" lon="12.28333">
        <ele>1949.21</ele>
        <time>2017-02-27T13:22:58Z</time>
      </trkpt>
      <trkpt lat="46.65729" lon="12.28356">
        <ele>1946.33</ele>
        <time>2017-02-27T13:23:04Z</time>
      </trkpt>
      <trkpt lat="46.65725" lon="12.28357">
        <ele>1943.92</ele>
        <time>2017-02-27T13:23:17Z</time>
      </trkpt>
      <trkpt lat="46.65725" lon="12.28356">
        <ele>1945.85</ele>
        <time>2017-02-27T13:23:18Z</time>
      </trkpt>
      <trkpt lat="46.65721" lon="12.28355">
        <ele>1950.17</ele>
        <time>2017-02-27T13:23:25Z</time>
      </trkpt>
      <trkpt lat="46.6572" lon="12.28356">
        <ele>1950.17</ele>
        <time>2017-02-27T13:23:26Z</time>
      </trkpt>
      <trkpt lat="46.6572" lon="12.28356">
        <ele>1946.81</ele>
        <time>2017-02-27T13:23:27Z</time>
      </trkpt>
      <trkpt lat="46.65725" lon="12.28354">
        <ele>1946.81</ele>
        <time>2017-02-27T13:23:48Z</time>
      </trkpt>
      <trkpt lat="46.65726" lon="12.28358">
        <ele>1946.81</ele>
        <time>2017-02-27T13:24:09Z</time>
      </trkpt>
      <trkpt lat="46.6572" lon="12.28353">
        <ele>1946.81</ele>
        <time>2017-02-27T13:24:34Z</time>
      </trkpt>
      <trkpt lat="46.65714" lon="12.28352">
        <ele>1943.44</ele>
        <time>2017-02-27T13:24:49Z</time>
      </trkpt>
      <trkpt lat="46.65713" lon="12.28352">
        <ele>1943.44</ele>
        <time>2017-02-27T13:24:50Z</time>
      </trkpt>
      <trkpt lat="46.65713" lon="12.28352">
        <ele>1948.25</ele>
        <time>2017-02-27T13:24:51Z</time>
      </trkpt>
      <trkpt lat="46.65712" lon="12.28354">
        <ele>1948.25</ele>
        <time>2017-02-27T13:25:04Z</time>
      </trkpt>
      <trkpt lat="46.65711" lon="12.28354">
        <ele>1946.81</ele>
        <time>2017-02-27T13:25:05Z</time>
      </trkpt>
      <trkpt lat="46.6571" lon="12.28353">
        <ele>1948.73</ele>
        <time>2017-02-27T13:25:13Z</time>
      </trkpt>
      <trkpt lat="46.6571" lon="12.28355">
        <ele>1946.81</ele>
        <time>2017-02-27T13:25:14Z</time>
      </trkpt>
      <trkpt lat="46.65712" lon="12.28359">
        <ele>1946.81</ele>
        <time>2017-02-27T13:25:39Z</time>
      </trkpt>
      <trkpt lat="46.65717" lon="12.28367">
        <ele>1946.81</ele>
        <time>2017-02-27T13:25:44Z</time>
      </trkpt>
      <trkpt lat="46.6572" lon="12.28371">
        <ele>1946.33</ele>
        <time>2017-02-27T13:25:46Z</time>
      </trkpt>
      <trkpt lat="46.65724" lon="12.28377">
        <ele>1944.4</ele>
        <time>2017-02-27T13:25:48Z</time>
      </trkpt>
      <trkpt lat="46.6574" lon="12.28407">
        <ele>1941.52</ele>
        <time>2017-02-27T13:25:56Z</time>
      </trkpt>
      <trkpt lat="46.65759" lon="12.28443">
        <ele>1938.16</ele>
        <time>2017-02-27T13:26:05Z</time>
      </trkpt>
      <trkpt lat="46.65759" lon="12.28446">
        <ele>1937.67</ele>
        <time>2017-02-27T13:26:06Z</time>
      </trkpt>
      <trkpt lat="46.65752" lon="12.2846">
        <ele>1934.79</ele>
        <time>2017-02-27T13:26:11Z</time>
      </trkpt>
      <trkpt lat="46.65751" lon="12.28485">
        <ele>1931.43</ele>
        <time>2017-02-27T13:26:17Z</time>
      </trkpt>
      <trkpt lat="46.65753" lon="12.28488">
        <ele>1930.95</ele>
        <time>2017-02-27T13:26:18Z</time>
      </trkpt>
      <trkpt lat="46.65754" lon="12.2849">
        <ele>1929.98</ele>
        <time>2017-02-27T13:26:19Z</time>
      </trkpt>
      <trkpt lat="46.65756" lon="12.28492">
        <ele>1929.5</ele>
        <time>2017-02-27T13:26:20Z</time>
      </trkpt>
      <trkpt lat="46.65758" lon="12.28494">
        <ele>1929.5</ele>
        <time>2017-02-27T13:26:21Z</time>
      </trkpt>
      <trkpt lat="46.65772" lon="12.28505">
        <ele>1926.62</ele>
        <time>2017-02-27T13:26:27Z</time>
      </trkpt>
      <trkpt lat="46.65787" lon="12.28519">
        <ele>1923.74</ele>
        <time>2017-02-27T13:26:34Z</time>
      </trkpt>
      <trkpt lat="46.65795" lon="12.28527">
        <ele>1920.85</ele>
        <time>2017-02-27T13:26:39Z</time>
      </trkpt>
      <trkpt lat="46.658" lon="12.28531">
        <ele>1919.41</ele>
        <time>2017-02-27T13:26:40Z</time>
      </trkpt>
      <trkpt lat="46.65851" lon="12.2857">
        <ele>1918.93</ele>
        <time>2017-02-27T13:26:57Z</time>
      </trkpt>
      <trkpt lat="46.65829" lon="12.28549">
        <ele>1918.45</ele>
        <time>2017-02-27T13:27:04Z</time>
      </trkpt>
      <trkpt lat="46.6582" lon="12.28554">
        <ele>1916.04</ele>
        <time>2017-02-27T13:27:08Z</time>
      </trkpt>
      <trkpt lat="46.65821" lon="12.28558">
        <ele>1915.56</ele>
        <time>2017-02-27T13:27:09Z</time>
      </trkpt>
      <trkpt lat="46.65823" lon="12.28569">
        <ele>1913.16</ele>
        <time>2017-02-27T13:27:12Z</time>
      </trkpt>
      <trkpt lat="46.65821" lon="12.28572">
        <ele>1912.2</ele>
        <time>2017-02-27T13:27:17Z</time>
      </trkpt>
      <trkpt lat="46.65819" lon="12.28577">
        <ele>1911.24</ele>
        <time>2017-02-27T13:27:20Z</time>
      </trkpt>
      <trkpt lat="46.6582" lon="12.28579">
        <ele>1910.76</ele>
        <time>2017-02-27T13:27:21Z</time>
      </trkpt>
      <trkpt lat="46.65828" lon="12.28585">
        <ele>1909.8</ele>
        <time>2017-02-27T13:27:32Z</time>
      </trkpt>
      <trkpt lat="46.65831" lon="12.28592">
        <ele>1908.83</ele>
        <time>2017-02-27T13:27:45Z</time>
      </trkpt>
      <trkpt lat="46.65834" lon="12.28595">
        <ele>1908.35</ele>
        <time>2017-02-27T13:27:56Z</time>
      </trkpt>
      <trkpt lat="46.65837" lon="12.28598">
        <ele>1907.39</ele>
        <time>2017-02-27T13:28:09Z</time>
      </trkpt>
      <trkpt lat="46.65838" lon="12.28607">
        <ele>1906.43</ele>
        <time>2017-02-27T13:28:14Z</time>
      </trkpt>
      <trkpt lat="46.65838" lon="12.28609">
        <ele>1905.95</ele>
        <time>2017-02-27T13:28:15Z</time>
      </trkpt>
      <trkpt lat="46.65841" lon="12.28619">
        <ele>1904.03</ele>
        <time>2017-02-27T13:28:26Z</time>
      </trkpt>
      <trkpt lat="46.65841" lon="12.28623">
        <ele>1903.07</ele>
        <time>2017-02-27T13:28:29Z</time>
      </trkpt>
      <trkpt lat="46.65838" lon="12.28625">
        <ele>1903.07</ele>
        <time>2017-02-27T13:28:44Z</time>
      </trkpt>
      <trkpt lat="46.65841" lon="12.28632">
        <ele>1902.11</ele>
        <time>2017-02-27T13:28:59Z</time>
      </trkpt>
      <trkpt lat="46.6582" lon="12.28652">
        <ele>1900.66</ele>
        <time>2017-02-27T13:29:17Z</time>
      </trkpt>
      <trkpt lat="46.65822" lon="12.28654">
        <ele>1900.18</ele>
        <time>2017-02-27T13:29:21Z</time>
      </trkpt>
      <trkpt lat="46.65825" lon="12.28657">
        <ele>1898.74</ele>
        <time>2017-02-27T13:29:25Z</time>
      </trkpt>
      <trkpt lat="46.65827" lon="12.2866">
        <ele>1897.78</ele>
        <time>2017-02-27T13:29:27Z</time>
      </trkpt>
      <trkpt lat="46.6583" lon="12.28664">
        <ele>1896.34</ele>
        <time>2017-02-27T13:29:37Z</time>
      </trkpt>
    </trkseg>
  </trk>
</gpx>